<?xml version="1.0" encoding="UTF-8" standalone="no" ?>
<gpx xmlns="http://www.topografix.com/GPX/1/1" xmlns:xsi="http://www.w3.org/2001/XMLSchema-instance" xsi:schemaLocation="http://www.topografix.com/GPX/1/1 http://www.topografix.com/GPX/1/1/gpx.xsd" version="1.1" creator="VisuGPX - https://www.visugpx.com">
  <metadata>
    <name>2023-05-29 17:42:37</name>
    <desc><![CDATA[

]]></desc>
  </metadata>
  <trk>
    <name><![CDATA[2023-05-29 17:42:37]]></name>
    <extensions>
      <line xmlns="http://www.topografix.com/GPX/gpx_style/0/2">
        <color>0000FF</color>
        <width>4</width>
      </line>
    </extensions>
    <trkseg>
      <trkpt lat="44.36398" lon="0.57764">
        <ele>135.68</ele>
        <time>2023-05-29T07:05:48Z</time>
      </trkpt>
      <trkpt lat="44.36394" lon="0.57709">
        <ele>134.24</ele>
        <time>2023-05-29T07:06:45Z</time>
      </trkpt>
      <trkpt lat="44.36401" lon="0.57688">
        <ele>133.76</ele>
        <time>2023-05-29T07:07:03Z</time>
      </trkpt>
      <trkpt lat="44.36406" lon="0.57672">
        <ele>133.28</ele>
        <time>2023-05-29T07:07:17Z</time>
      </trkpt>
      <trkpt lat="44.36442" lon="0.57531">
        <ele>148.66</ele>
        <time>2023-05-29T07:10:49Z</time>
      </trkpt>
      <trkpt lat="44.36356" lon="0.5762">
        <ele>139.05</ele>
        <time>2023-05-29T07:12:19Z</time>
      </trkpt>
      <trkpt lat="44.3634" lon="0.57628">
        <ele>140.97</ele>
        <time>2023-05-29T07:12:28Z</time>
      </trkpt>
      <trkpt lat="44.36319" lon="0.57635">
        <ele>141.93</ele>
        <time>2023-05-29T07:12:43Z</time>
      </trkpt>
      <trkpt lat="44.36267" lon="0.57633">
        <ele>147.7</ele>
        <time>2023-05-29T07:13:25Z</time>
      </trkpt>
      <trkpt lat="44.36224" lon="0.57632">
        <ele>143.85</ele>
        <time>2023-05-29T07:13:57Z</time>
      </trkpt>
      <trkpt lat="44.36189" lon="0.57627">
        <ele>143.85</ele>
        <time>2023-05-29T07:14:22Z</time>
      </trkpt>
      <trkpt lat="44.36172" lon="0.57621">
        <ele>144.34</ele>
        <time>2023-05-29T07:14:34Z</time>
      </trkpt>
      <trkpt lat="44.36135" lon="0.57619">
        <ele>145.78</ele>
        <time>2023-05-29T07:15:04Z</time>
      </trkpt>
      <trkpt lat="44.36086" lon="0.57644">
        <ele>145.3</ele>
        <time>2023-05-29T07:15:38Z</time>
      </trkpt>
      <trkpt lat="44.36073" lon="0.57658">
        <ele>147.7</ele>
        <time>2023-05-29T07:15:46Z</time>
      </trkpt>
      <trkpt lat="44.36061" lon="0.57665">
        <ele>152.51</ele>
        <time>2023-05-29T07:15:54Z</time>
      </trkpt>
      <trkpt lat="44.3605" lon="0.57679">
        <ele>164.52</ele>
        <time>2023-05-29T07:16:02Z</time>
      </trkpt>
      <trkpt lat="44.36042" lon="0.57689">
        <ele>168.37</ele>
        <time>2023-05-29T07:16:10Z</time>
      </trkpt>
      <trkpt lat="44.36033" lon="0.57698">
        <ele>170.29</ele>
        <time>2023-05-29T07:16:18Z</time>
      </trkpt>
      <trkpt lat="44.36024" lon="0.57707">
        <ele>171.25</ele>
        <time>2023-05-29T07:16:26Z</time>
      </trkpt>
      <trkpt lat="44.36014" lon="0.57716">
        <ele>171.73</ele>
        <time>2023-05-29T07:16:34Z</time>
      </trkpt>
      <trkpt lat="44.36005" lon="0.57724">
        <ele>172.69</ele>
        <time>2023-05-29T07:16:41Z</time>
      </trkpt>
      <trkpt lat="44.35995" lon="0.5773">
        <ele>173.17</ele>
        <time>2023-05-29T07:16:48Z</time>
      </trkpt>
      <trkpt lat="44.35984" lon="0.57736">
        <ele>173.17</ele>
        <time>2023-05-29T07:16:56Z</time>
      </trkpt>
      <trkpt lat="44.35973" lon="0.57742">
        <ele>172.69</ele>
        <time>2023-05-29T07:17:06Z</time>
      </trkpt>
      <trkpt lat="44.35963" lon="0.57745">
        <ele>171.73</ele>
        <time>2023-05-29T07:17:14Z</time>
      </trkpt>
      <trkpt lat="44.35951" lon="0.57749">
        <ele>170.29</ele>
        <time>2023-05-29T07:17:24Z</time>
      </trkpt>
      <trkpt lat="44.35941" lon="0.57761">
        <ele>169.81</ele>
        <time>2023-05-29T07:17:36Z</time>
      </trkpt>
      <trkpt lat="44.35923" lon="0.57758">
        <ele>182.31</ele>
        <time>2023-05-29T07:18:30Z</time>
      </trkpt>
      <trkpt lat="44.35912" lon="0.57757">
        <ele>181.83</ele>
        <time>2023-05-29T07:18:38Z</time>
      </trkpt>
      <trkpt lat="44.35902" lon="0.57759">
        <ele>181.35</ele>
        <time>2023-05-29T07:18:46Z</time>
      </trkpt>
      <trkpt lat="44.3589" lon="0.5776">
        <ele>181.35</ele>
        <time>2023-05-29T07:18:54Z</time>
      </trkpt>
      <trkpt lat="44.35879" lon="0.57759">
        <ele>179.9</ele>
        <time>2023-05-29T07:19:03Z</time>
      </trkpt>
      <trkpt lat="44.35867" lon="0.57759">
        <ele>178.46</ele>
        <time>2023-05-29T07:19:12Z</time>
      </trkpt>
      <trkpt lat="44.35854" lon="0.57761">
        <ele>177.98</ele>
        <time>2023-05-29T07:19:21Z</time>
      </trkpt>
      <trkpt lat="44.35842" lon="0.57758">
        <ele>178.46</ele>
        <time>2023-05-29T07:19:29Z</time>
      </trkpt>
      <trkpt lat="44.3583" lon="0.57755">
        <ele>178.94</ele>
        <time>2023-05-29T07:19:38Z</time>
      </trkpt>
      <trkpt lat="44.35818" lon="0.57749">
        <ele>181.35</ele>
        <time>2023-05-29T07:19:46Z</time>
      </trkpt>
      <trkpt lat="44.35811" lon="0.57739">
        <ele>182.79</ele>
        <time>2023-05-29T07:19:54Z</time>
      </trkpt>
      <trkpt lat="44.35812" lon="0.57726">
        <ele>182.79</ele>
        <time>2023-05-29T07:20:02Z</time>
      </trkpt>
      <trkpt lat="44.35812" lon="0.57712">
        <ele>183.27</ele>
        <time>2023-05-29T07:20:09Z</time>
      </trkpt>
      <trkpt lat="44.3581" lon="0.57699">
        <ele>183.75</ele>
        <time>2023-05-29T07:20:16Z</time>
      </trkpt>
      <trkpt lat="44.35809" lon="0.57684">
        <ele>184.23</ele>
        <time>2023-05-29T07:20:24Z</time>
      </trkpt>
      <trkpt lat="44.35807" lon="0.57669">
        <ele>185.19</ele>
        <time>2023-05-29T07:20:32Z</time>
      </trkpt>
      <trkpt lat="44.35806" lon="0.57655">
        <ele>185.67</ele>
        <time>2023-05-29T07:20:40Z</time>
      </trkpt>
      <trkpt lat="44.35805" lon="0.57642">
        <ele>186.63</ele>
        <time>2023-05-29T07:20:47Z</time>
      </trkpt>
      <trkpt lat="44.35804" lon="0.57627">
        <ele>186.63</ele>
        <time>2023-05-29T07:20:55Z</time>
      </trkpt>
      <trkpt lat="44.35802" lon="0.57613">
        <ele>187.11</ele>
        <time>2023-05-29T07:21:02Z</time>
      </trkpt>
      <trkpt lat="44.35801" lon="0.57598">
        <ele>187.11</ele>
        <time>2023-05-29T07:21:09Z</time>
      </trkpt>
      <trkpt lat="44.358" lon="0.57583">
        <ele>188.08</ele>
        <time>2023-05-29T07:21:16Z</time>
      </trkpt>
      <trkpt lat="44.35797" lon="0.57571">
        <ele>189.04</ele>
        <time>2023-05-29T07:21:23Z</time>
      </trkpt>
      <trkpt lat="44.35794" lon="0.57557">
        <ele>190</ele>
        <time>2023-05-29T07:21:30Z</time>
      </trkpt>
      <trkpt lat="44.35789" lon="0.57543">
        <ele>190.96</ele>
        <time>2023-05-29T07:21:37Z</time>
      </trkpt>
      <trkpt lat="44.35785" lon="0.5753">
        <ele>191.92</ele>
        <time>2023-05-29T07:21:44Z</time>
      </trkpt>
      <trkpt lat="44.35781" lon="0.57519">
        <ele>191.44</ele>
        <time>2023-05-29T07:21:50Z</time>
      </trkpt>
      <trkpt lat="44.35777" lon="0.57508">
        <ele>191.44</ele>
        <time>2023-05-29T07:21:56Z</time>
      </trkpt>
      <trkpt lat="44.35773" lon="0.57497">
        <ele>190.96</ele>
        <time>2023-05-29T07:22:02Z</time>
      </trkpt>
      <trkpt lat="44.35768" lon="0.57486">
        <ele>190</ele>
        <time>2023-05-29T07:22:08Z</time>
      </trkpt>
      <trkpt lat="44.35764" lon="0.57475">
        <ele>189.04</ele>
        <time>2023-05-29T07:22:14Z</time>
      </trkpt>
      <trkpt lat="44.35758" lon="0.57464">
        <ele>188.56</ele>
        <time>2023-05-29T07:22:20Z</time>
      </trkpt>
      <trkpt lat="44.35753" lon="0.57454">
        <ele>187.59</ele>
        <time>2023-05-29T07:22:26Z</time>
      </trkpt>
      <trkpt lat="44.35746" lon="0.57444">
        <ele>187.11</ele>
        <time>2023-05-29T07:22:32Z</time>
      </trkpt>
      <trkpt lat="44.3574" lon="0.57434">
        <ele>186.15</ele>
        <time>2023-05-29T07:22:38Z</time>
      </trkpt>
      <trkpt lat="44.35733" lon="0.57425">
        <ele>185.67</ele>
        <time>2023-05-29T07:22:44Z</time>
      </trkpt>
      <trkpt lat="44.35725" lon="0.57415">
        <ele>185.67</ele>
        <time>2023-05-29T07:22:50Z</time>
      </trkpt>
      <trkpt lat="44.35718" lon="0.57406">
        <ele>185.67</ele>
        <time>2023-05-29T07:22:56Z</time>
      </trkpt>
      <trkpt lat="44.3571" lon="0.57397">
        <ele>185.67</ele>
        <time>2023-05-29T07:23:03Z</time>
      </trkpt>
      <trkpt lat="44.35703" lon="0.57389">
        <ele>185.19</ele>
        <time>2023-05-29T07:23:09Z</time>
      </trkpt>
      <trkpt lat="44.35695" lon="0.57379">
        <ele>184.71</ele>
        <time>2023-05-29T07:23:16Z</time>
      </trkpt>
      <trkpt lat="44.35687" lon="0.57371">
        <ele>183.75</ele>
        <time>2023-05-29T07:23:22Z</time>
      </trkpt>
      <trkpt lat="44.3568" lon="0.57364">
        <ele>182.79</ele>
        <time>2023-05-29T07:23:28Z</time>
      </trkpt>
      <trkpt lat="44.35672" lon="0.57359">
        <ele>181.83</ele>
        <time>2023-05-29T07:23:33Z</time>
      </trkpt>
      <trkpt lat="44.35663" lon="0.57354">
        <ele>179.9</ele>
        <time>2023-05-29T07:23:39Z</time>
      </trkpt>
      <trkpt lat="44.35654" lon="0.5735">
        <ele>178.94</ele>
        <time>2023-05-29T07:23:45Z</time>
      </trkpt>
      <trkpt lat="44.35645" lon="0.57347">
        <ele>177.98</ele>
        <time>2023-05-29T07:23:51Z</time>
      </trkpt>
      <trkpt lat="44.35636" lon="0.57343">
        <ele>177.5</ele>
        <time>2023-05-29T07:23:57Z</time>
      </trkpt>
      <trkpt lat="44.35627" lon="0.57338">
        <ele>177.5</ele>
        <time>2023-05-29T07:24:03Z</time>
      </trkpt>
      <trkpt lat="44.35618" lon="0.57333">
        <ele>177.5</ele>
        <time>2023-05-29T07:24:09Z</time>
      </trkpt>
      <trkpt lat="44.3561" lon="0.57327">
        <ele>177.5</ele>
        <time>2023-05-29T07:24:15Z</time>
      </trkpt>
      <trkpt lat="44.35601" lon="0.57322">
        <ele>177.98</ele>
        <time>2023-05-29T07:24:21Z</time>
      </trkpt>
      <trkpt lat="44.35591" lon="0.57315">
        <ele>178.94</ele>
        <time>2023-05-29T07:24:28Z</time>
      </trkpt>
      <trkpt lat="44.35582" lon="0.5731">
        <ele>179.42</ele>
        <time>2023-05-29T07:24:34Z</time>
      </trkpt>
      <trkpt lat="44.35573" lon="0.57304">
        <ele>179.42</ele>
        <time>2023-05-29T07:24:41Z</time>
      </trkpt>
      <trkpt lat="44.35564" lon="0.57299">
        <ele>179.9</ele>
        <time>2023-05-29T07:24:47Z</time>
      </trkpt>
      <trkpt lat="44.35554" lon="0.57294">
        <ele>180.87</ele>
        <time>2023-05-29T07:24:54Z</time>
      </trkpt>
      <trkpt lat="44.35546" lon="0.57289">
        <ele>181.35</ele>
        <time>2023-05-29T07:25:00Z</time>
      </trkpt>
      <trkpt lat="44.35536" lon="0.57282">
        <ele>181.35</ele>
        <time>2023-05-29T07:25:07Z</time>
      </trkpt>
      <trkpt lat="44.35527" lon="0.57275">
        <ele>181.83</ele>
        <time>2023-05-29T07:25:14Z</time>
      </trkpt>
      <trkpt lat="44.35519" lon="0.57269">
        <ele>182.31</ele>
        <time>2023-05-29T07:25:20Z</time>
      </trkpt>
      <trkpt lat="44.35511" lon="0.5726">
        <ele>183.27</ele>
        <time>2023-05-29T07:25:27Z</time>
      </trkpt>
      <trkpt lat="44.35502" lon="0.5725">
        <ele>183.27</ele>
        <time>2023-05-29T07:25:34Z</time>
      </trkpt>
      <trkpt lat="44.35494" lon="0.57241">
        <ele>183.75</ele>
        <time>2023-05-29T07:25:41Z</time>
      </trkpt>
      <trkpt lat="44.35485" lon="0.57231">
        <ele>184.71</ele>
        <time>2023-05-29T07:25:48Z</time>
      </trkpt>
      <trkpt lat="44.35477" lon="0.57224">
        <ele>185.19</ele>
        <time>2023-05-29T07:25:54Z</time>
      </trkpt>
      <trkpt lat="44.35469" lon="0.57217">
        <ele>185.67</ele>
        <time>2023-05-29T07:26:00Z</time>
      </trkpt>
      <trkpt lat="44.35461" lon="0.5721">
        <ele>186.15</ele>
        <time>2023-05-29T07:26:06Z</time>
      </trkpt>
      <trkpt lat="44.35453" lon="0.57201">
        <ele>186.63</ele>
        <time>2023-05-29T07:26:13Z</time>
      </trkpt>
      <trkpt lat="44.35444" lon="0.57193">
        <ele>187.59</ele>
        <time>2023-05-29T07:26:20Z</time>
      </trkpt>
      <trkpt lat="44.35435" lon="0.57185">
        <ele>188.08</ele>
        <time>2023-05-29T07:26:27Z</time>
      </trkpt>
      <trkpt lat="44.35427" lon="0.5718">
        <ele>189.04</ele>
        <time>2023-05-29T07:26:34Z</time>
      </trkpt>
      <trkpt lat="44.35418" lon="0.57172">
        <ele>190</ele>
        <time>2023-05-29T07:26:42Z</time>
      </trkpt>
      <trkpt lat="44.3541" lon="0.57164">
        <ele>190.48</ele>
        <time>2023-05-29T07:26:49Z</time>
      </trkpt>
      <trkpt lat="44.35402" lon="0.57156">
        <ele>191.44</ele>
        <time>2023-05-29T07:26:56Z</time>
      </trkpt>
      <trkpt lat="44.35393" lon="0.57148">
        <ele>191.92</ele>
        <time>2023-05-29T07:27:03Z</time>
      </trkpt>
      <trkpt lat="44.35384" lon="0.5714">
        <ele>192.4</ele>
        <time>2023-05-29T07:27:11Z</time>
      </trkpt>
      <trkpt lat="44.35374" lon="0.57132">
        <ele>193.84</ele>
        <time>2023-05-29T07:27:19Z</time>
      </trkpt>
      <trkpt lat="44.35364" lon="0.57122">
        <ele>195.28</ele>
        <time>2023-05-29T07:27:27Z</time>
      </trkpt>
      <trkpt lat="44.35355" lon="0.57116">
        <ele>195.77</ele>
        <time>2023-05-29T07:27:35Z</time>
      </trkpt>
      <trkpt lat="44.35347" lon="0.57111">
        <ele>195.28</ele>
        <time>2023-05-29T07:27:42Z</time>
      </trkpt>
      <trkpt lat="44.35338" lon="0.57105">
        <ele>195.28</ele>
        <time>2023-05-29T07:27:50Z</time>
      </trkpt>
      <trkpt lat="44.35329" lon="0.57098">
        <ele>195.77</ele>
        <time>2023-05-29T07:27:57Z</time>
      </trkpt>
      <trkpt lat="44.35321" lon="0.57094">
        <ele>195.28</ele>
        <time>2023-05-29T07:28:03Z</time>
      </trkpt>
      <trkpt lat="44.35311" lon="0.5709">
        <ele>195.28</ele>
        <time>2023-05-29T07:28:11Z</time>
      </trkpt>
      <trkpt lat="44.35302" lon="0.57086">
        <ele>195.28</ele>
        <time>2023-05-29T07:28:18Z</time>
      </trkpt>
      <trkpt lat="44.35293" lon="0.57082">
        <ele>194.8</ele>
        <time>2023-05-29T07:28:26Z</time>
      </trkpt>
      <trkpt lat="44.35283" lon="0.57078">
        <ele>195.28</ele>
        <time>2023-05-29T07:28:33Z</time>
      </trkpt>
      <trkpt lat="44.35274" lon="0.57073">
        <ele>194.8</ele>
        <time>2023-05-29T07:28:40Z</time>
      </trkpt>
      <trkpt lat="44.35265" lon="0.57067">
        <ele>194.32</ele>
        <time>2023-05-29T07:28:47Z</time>
      </trkpt>
      <trkpt lat="44.35256" lon="0.57061">
        <ele>193.36</ele>
        <time>2023-05-29T07:28:54Z</time>
      </trkpt>
      <trkpt lat="44.35247" lon="0.57054">
        <ele>192.88</ele>
        <time>2023-05-29T07:29:01Z</time>
      </trkpt>
      <trkpt lat="44.35239" lon="0.57047">
        <ele>192.4</ele>
        <time>2023-05-29T07:29:07Z</time>
      </trkpt>
      <trkpt lat="44.35232" lon="0.57039">
        <ele>192.4</ele>
        <time>2023-05-29T07:29:14Z</time>
      </trkpt>
      <trkpt lat="44.35224" lon="0.57033">
        <ele>191.92</ele>
        <time>2023-05-29T07:29:21Z</time>
      </trkpt>
      <trkpt lat="44.35217" lon="0.57025">
        <ele>191.92</ele>
        <time>2023-05-29T07:29:28Z</time>
      </trkpt>
      <trkpt lat="44.35208" lon="0.57016">
        <ele>193.36</ele>
        <time>2023-05-29T07:29:45Z</time>
      </trkpt>
      <trkpt lat="44.352" lon="0.57009">
        <ele>193.84</ele>
        <time>2023-05-29T07:29:53Z</time>
      </trkpt>
      <trkpt lat="44.35192" lon="0.57002">
        <ele>194.8</ele>
        <time>2023-05-29T07:30:00Z</time>
      </trkpt>
      <trkpt lat="44.35184" lon="0.56994">
        <ele>195.28</ele>
        <time>2023-05-29T07:30:07Z</time>
      </trkpt>
      <trkpt lat="44.35176" lon="0.56985">
        <ele>195.77</ele>
        <time>2023-05-29T07:30:14Z</time>
      </trkpt>
      <trkpt lat="44.35168" lon="0.56975">
        <ele>195.77</ele>
        <time>2023-05-29T07:30:21Z</time>
      </trkpt>
      <trkpt lat="44.35161" lon="0.56966">
        <ele>196.25</ele>
        <time>2023-05-29T07:30:28Z</time>
      </trkpt>
      <trkpt lat="44.35154" lon="0.56955">
        <ele>196.25</ele>
        <time>2023-05-29T07:30:35Z</time>
      </trkpt>
      <trkpt lat="44.35148" lon="0.56943">
        <ele>196.73</ele>
        <time>2023-05-29T07:30:42Z</time>
      </trkpt>
      <trkpt lat="44.35143" lon="0.56928">
        <ele>196.25</ele>
        <time>2023-05-29T07:30:52Z</time>
      </trkpt>
      <trkpt lat="44.35139" lon="0.56915">
        <ele>195.77</ele>
        <time>2023-05-29T07:30:59Z</time>
      </trkpt>
      <trkpt lat="44.35136" lon="0.56903">
        <ele>196.25</ele>
        <time>2023-05-29T07:31:05Z</time>
      </trkpt>
      <trkpt lat="44.35133" lon="0.56889">
        <ele>195.77</ele>
        <time>2023-05-29T07:31:12Z</time>
      </trkpt>
      <trkpt lat="44.3513" lon="0.56874">
        <ele>196.25</ele>
        <time>2023-05-29T07:31:19Z</time>
      </trkpt>
      <trkpt lat="44.35127" lon="0.5686">
        <ele>195.77</ele>
        <time>2023-05-29T07:31:26Z</time>
      </trkpt>
      <trkpt lat="44.35125" lon="0.56848">
        <ele>195.77</ele>
        <time>2023-05-29T07:31:32Z</time>
      </trkpt>
      <trkpt lat="44.35123" lon="0.56835">
        <ele>195.77</ele>
        <time>2023-05-29T07:31:38Z</time>
      </trkpt>
      <trkpt lat="44.35121" lon="0.56822">
        <ele>195.77</ele>
        <time>2023-05-29T07:31:44Z</time>
      </trkpt>
      <trkpt lat="44.35119" lon="0.56806">
        <ele>194.8</ele>
        <time>2023-05-29T07:31:51Z</time>
      </trkpt>
      <trkpt lat="44.35117" lon="0.56792">
        <ele>194.8</ele>
        <time>2023-05-29T07:31:58Z</time>
      </trkpt>
      <trkpt lat="44.35115" lon="0.56779">
        <ele>194.32</ele>
        <time>2023-05-29T07:32:05Z</time>
      </trkpt>
      <trkpt lat="44.35114" lon="0.56765">
        <ele>194.32</ele>
        <time>2023-05-29T07:32:12Z</time>
      </trkpt>
      <trkpt lat="44.35113" lon="0.56751">
        <ele>194.32</ele>
        <time>2023-05-29T07:32:19Z</time>
      </trkpt>
      <trkpt lat="44.35114" lon="0.56738">
        <ele>194.8</ele>
        <time>2023-05-29T07:32:25Z</time>
      </trkpt>
      <trkpt lat="44.35115" lon="0.56724">
        <ele>194.8</ele>
        <time>2023-05-29T07:32:32Z</time>
      </trkpt>
      <trkpt lat="44.35116" lon="0.56708">
        <ele>195.28</ele>
        <time>2023-05-29T07:32:39Z</time>
      </trkpt>
      <trkpt lat="44.35118" lon="0.56694">
        <ele>195.28</ele>
        <time>2023-05-29T07:32:46Z</time>
      </trkpt>
      <trkpt lat="44.35119" lon="0.5668">
        <ele>195.28</ele>
        <time>2023-05-29T07:32:53Z</time>
      </trkpt>
      <trkpt lat="44.35112" lon="0.5667">
        <ele>195.28</ele>
        <time>2023-05-29T07:33:00Z</time>
      </trkpt>
      <trkpt lat="44.35102" lon="0.56666">
        <ele>194.32</ele>
        <time>2023-05-29T07:33:09Z</time>
      </trkpt>
      <trkpt lat="44.35092" lon="0.56661">
        <ele>193.36</ele>
        <time>2023-05-29T07:33:17Z</time>
      </trkpt>
      <trkpt lat="44.35083" lon="0.56658">
        <ele>192.4</ele>
        <time>2023-05-29T07:33:23Z</time>
      </trkpt>
      <trkpt lat="44.35074" lon="0.56654">
        <ele>191.92</ele>
        <time>2023-05-29T07:33:29Z</time>
      </trkpt>
      <trkpt lat="44.35064" lon="0.56651">
        <ele>190.48</ele>
        <time>2023-05-29T07:33:35Z</time>
      </trkpt>
      <trkpt lat="44.35055" lon="0.56646">
        <ele>189.52</ele>
        <time>2023-05-29T07:33:42Z</time>
      </trkpt>
      <trkpt lat="44.35045" lon="0.56643">
        <ele>188.56</ele>
        <time>2023-05-29T07:33:49Z</time>
      </trkpt>
      <trkpt lat="44.35036" lon="0.56639">
        <ele>188.08</ele>
        <time>2023-05-29T07:33:55Z</time>
      </trkpt>
      <trkpt lat="44.35027" lon="0.56635">
        <ele>187.59</ele>
        <time>2023-05-29T07:34:01Z</time>
      </trkpt>
      <trkpt lat="44.35018" lon="0.56631">
        <ele>186.63</ele>
        <time>2023-05-29T07:34:07Z</time>
      </trkpt>
      <trkpt lat="44.35009" lon="0.56625">
        <ele>185.19</ele>
        <time>2023-05-29T07:34:13Z</time>
      </trkpt>
      <trkpt lat="44.35001" lon="0.56618">
        <ele>184.23</ele>
        <time>2023-05-29T07:34:20Z</time>
      </trkpt>
      <trkpt lat="44.34992" lon="0.56611">
        <ele>183.27</ele>
        <time>2023-05-29T07:34:28Z</time>
      </trkpt>
      <trkpt lat="44.34983" lon="0.56602">
        <ele>182.79</ele>
        <time>2023-05-29T07:34:35Z</time>
      </trkpt>
      <trkpt lat="44.34975" lon="0.56591">
        <ele>182.31</ele>
        <time>2023-05-29T07:34:44Z</time>
      </trkpt>
      <trkpt lat="44.34951" lon="0.56575">
        <ele>178.46</ele>
        <time>2023-05-29T07:35:06Z</time>
      </trkpt>
      <trkpt lat="44.34936" lon="0.56571">
        <ele>177.02</ele>
        <time>2023-05-29T07:35:15Z</time>
      </trkpt>
      <trkpt lat="44.3488" lon="0.56512">
        <ele>171.73</ele>
        <time>2023-05-29T07:35:59Z</time>
      </trkpt>
      <trkpt lat="44.34852" lon="0.56497">
        <ele>167.41</ele>
        <time>2023-05-29T07:36:19Z</time>
      </trkpt>
      <trkpt lat="44.3483" lon="0.56476">
        <ele>160.2</ele>
        <time>2023-05-29T07:36:38Z</time>
      </trkpt>
      <trkpt lat="44.34785" lon="0.56422">
        <ele>146.26</ele>
        <time>2023-05-29T07:37:20Z</time>
      </trkpt>
      <trkpt lat="44.34747" lon="0.56346">
        <ele>131.36</ele>
        <time>2023-05-29T07:38:04Z</time>
      </trkpt>
      <trkpt lat="44.34733" lon="0.56334">
        <ele>129.92</ele>
        <time>2023-05-29T07:38:12Z</time>
      </trkpt>
      <trkpt lat="44.34721" lon="0.56331">
        <ele>129.92</ele>
        <time>2023-05-29T07:38:19Z</time>
      </trkpt>
      <trkpt lat="44.3471" lon="0.56329">
        <ele>128.95</ele>
        <time>2023-05-29T07:38:26Z</time>
      </trkpt>
      <trkpt lat="44.34697" lon="0.5633">
        <ele>128.47</ele>
        <time>2023-05-29T07:38:35Z</time>
      </trkpt>
      <trkpt lat="44.34684" lon="0.56328">
        <ele>127.99</ele>
        <time>2023-05-29T07:38:43Z</time>
      </trkpt>
      <trkpt lat="44.34671" lon="0.56327">
        <ele>128.95</ele>
        <time>2023-05-29T07:38:51Z</time>
      </trkpt>
      <trkpt lat="44.3466" lon="0.56328">
        <ele>128.95</ele>
        <time>2023-05-29T07:38:59Z</time>
      </trkpt>
      <trkpt lat="44.34649" lon="0.56329">
        <ele>127.51</ele>
        <time>2023-05-29T07:39:07Z</time>
      </trkpt>
      <trkpt lat="44.34639" lon="0.56329">
        <ele>126.07</ele>
        <time>2023-05-29T07:39:14Z</time>
      </trkpt>
      <trkpt lat="44.34629" lon="0.5633">
        <ele>125.11</ele>
        <time>2023-05-29T07:39:21Z</time>
      </trkpt>
      <trkpt lat="44.34619" lon="0.56331">
        <ele>123.19</ele>
        <time>2023-05-29T07:39:28Z</time>
      </trkpt>
      <trkpt lat="44.34609" lon="0.56332">
        <ele>121.74</ele>
        <time>2023-05-29T07:39:34Z</time>
      </trkpt>
      <trkpt lat="44.346" lon="0.56332">
        <ele>119.34</ele>
        <time>2023-05-29T07:39:41Z</time>
      </trkpt>
      <trkpt lat="44.3459" lon="0.56331">
        <ele>117.9</ele>
        <time>2023-05-29T07:39:47Z</time>
      </trkpt>
      <trkpt lat="44.3458" lon="0.56333">
        <ele>115.5</ele>
        <time>2023-05-29T07:39:54Z</time>
      </trkpt>
      <trkpt lat="44.3457" lon="0.56334">
        <ele>114.05</ele>
        <time>2023-05-29T07:40:01Z</time>
      </trkpt>
      <trkpt lat="44.3456" lon="0.56336">
        <ele>112.13</ele>
        <time>2023-05-29T07:40:08Z</time>
      </trkpt>
      <trkpt lat="44.34549" lon="0.56337">
        <ele>110.21</ele>
        <time>2023-05-29T07:40:16Z</time>
      </trkpt>
      <trkpt lat="44.34539" lon="0.56337">
        <ele>108.77</ele>
        <time>2023-05-29T07:40:23Z</time>
      </trkpt>
      <trkpt lat="44.34529" lon="0.56339">
        <ele>107.32</ele>
        <time>2023-05-29T07:40:29Z</time>
      </trkpt>
      <trkpt lat="44.34519" lon="0.56341">
        <ele>105.4</ele>
        <time>2023-05-29T07:40:36Z</time>
      </trkpt>
      <trkpt lat="44.34509" lon="0.56345">
        <ele>103.96</ele>
        <time>2023-05-29T07:40:43Z</time>
      </trkpt>
      <trkpt lat="44.34495" lon="0.56351">
        <ele>102.04</ele>
        <time>2023-05-29T07:40:51Z</time>
      </trkpt>
      <trkpt lat="44.34483" lon="0.56353">
        <ele>100.11</ele>
        <time>2023-05-29T07:40:58Z</time>
      </trkpt>
      <trkpt lat="44.34475" lon="0.56344">
        <ele>99.15</ele>
        <time>2023-05-29T07:41:09Z</time>
      </trkpt>
      <trkpt lat="44.34483" lon="0.56327">
        <ele>96.75</ele>
        <time>2023-05-29T07:41:18Z</time>
      </trkpt>
      <trkpt lat="44.34489" lon="0.56309">
        <ele>96.27</ele>
        <time>2023-05-29T07:41:27Z</time>
      </trkpt>
      <trkpt lat="44.34494" lon="0.56293">
        <ele>96.75</ele>
        <time>2023-05-29T07:41:35Z</time>
      </trkpt>
      <trkpt lat="44.34491" lon="0.56274">
        <ele>97.23</ele>
        <time>2023-05-29T07:41:46Z</time>
      </trkpt>
      <trkpt lat="44.34481" lon="0.5627">
        <ele>96.75</ele>
        <time>2023-05-29T07:41:54Z</time>
      </trkpt>
      <trkpt lat="44.3447" lon="0.56266">
        <ele>94.83</ele>
        <time>2023-05-29T07:42:01Z</time>
      </trkpt>
      <trkpt lat="44.34459" lon="0.56263">
        <ele>93.39</ele>
        <time>2023-05-29T07:42:08Z</time>
      </trkpt>
      <trkpt lat="44.3445" lon="0.56262">
        <ele>91.94</ele>
        <time>2023-05-29T07:42:14Z</time>
      </trkpt>
      <trkpt lat="44.34441" lon="0.56261">
        <ele>90.5</ele>
        <time>2023-05-29T07:42:20Z</time>
      </trkpt>
      <trkpt lat="44.34431" lon="0.56261">
        <ele>89.06</ele>
        <time>2023-05-29T07:42:26Z</time>
      </trkpt>
      <trkpt lat="44.34422" lon="0.5626">
        <ele>88.1</ele>
        <time>2023-05-29T07:42:32Z</time>
      </trkpt>
      <trkpt lat="44.34413" lon="0.56255">
        <ele>86.18</ele>
        <time>2023-05-29T07:42:39Z</time>
      </trkpt>
      <trkpt lat="44.34411" lon="0.56242">
        <ele>85.21</ele>
        <time>2023-05-29T07:42:46Z</time>
      </trkpt>
      <trkpt lat="44.34413" lon="0.56227">
        <ele>84.73</ele>
        <time>2023-05-29T07:42:53Z</time>
      </trkpt>
      <trkpt lat="44.34414" lon="0.56212">
        <ele>85.21</ele>
        <time>2023-05-29T07:42:59Z</time>
      </trkpt>
      <trkpt lat="44.34416" lon="0.56196">
        <ele>85.69</ele>
        <time>2023-05-29T07:43:03Z</time>
      </trkpt>
      <trkpt lat="44.34417" lon="0.5618">
        <ele>86.66</ele>
        <time>2023-05-29T07:43:06Z</time>
      </trkpt>
      <trkpt lat="44.3442" lon="0.5616">
        <ele>87.14</ele>
        <time>2023-05-29T07:43:09Z</time>
      </trkpt>
      <trkpt lat="44.34423" lon="0.56147">
        <ele>87.62</ele>
        <time>2023-05-29T07:43:11Z</time>
      </trkpt>
      <trkpt lat="44.34426" lon="0.56133">
        <ele>87.62</ele>
        <time>2023-05-29T07:43:13Z</time>
      </trkpt>
      <trkpt lat="44.34429" lon="0.56121">
        <ele>87.62</ele>
        <time>2023-05-29T07:43:15Z</time>
      </trkpt>
      <trkpt lat="44.34432" lon="0.56108">
        <ele>87.62</ele>
        <time>2023-05-29T07:43:17Z</time>
      </trkpt>
      <trkpt lat="44.34435" lon="0.56095">
        <ele>87.62</ele>
        <time>2023-05-29T07:43:19Z</time>
      </trkpt>
      <trkpt lat="44.34438" lon="0.56082">
        <ele>87.62</ele>
        <time>2023-05-29T07:43:21Z</time>
      </trkpt>
      <trkpt lat="44.34441" lon="0.56069">
        <ele>88.1</ele>
        <time>2023-05-29T07:43:23Z</time>
      </trkpt>
      <trkpt lat="44.34444" lon="0.56055">
        <ele>88.1</ele>
        <time>2023-05-29T07:43:25Z</time>
      </trkpt>
      <trkpt lat="44.34447" lon="0.56041">
        <ele>88.58</ele>
        <time>2023-05-29T07:43:27Z</time>
      </trkpt>
      <trkpt lat="44.3445" lon="0.56028">
        <ele>88.58</ele>
        <time>2023-05-29T07:43:29Z</time>
      </trkpt>
      <trkpt lat="44.34453" lon="0.56015">
        <ele>88.58</ele>
        <time>2023-05-29T07:43:31Z</time>
      </trkpt>
      <trkpt lat="44.34456" lon="0.56001">
        <ele>88.58</ele>
        <time>2023-05-29T07:43:33Z</time>
      </trkpt>
      <trkpt lat="44.34459" lon="0.55989">
        <ele>89.06</ele>
        <time>2023-05-29T07:43:35Z</time>
      </trkpt>
      <trkpt lat="44.34463" lon="0.55971">
        <ele>89.54</ele>
        <time>2023-05-29T07:43:38Z</time>
      </trkpt>
      <trkpt lat="44.34466" lon="0.55958">
        <ele>89.54</ele>
        <time>2023-05-29T07:43:41Z</time>
      </trkpt>
      <trkpt lat="44.3447" lon="0.55945">
        <ele>90.02</ele>
        <time>2023-05-29T07:43:48Z</time>
      </trkpt>
      <trkpt lat="44.34473" lon="0.5593">
        <ele>90.02</ele>
        <time>2023-05-29T07:43:55Z</time>
      </trkpt>
      <trkpt lat="44.34477" lon="0.55916">
        <ele>89.54</ele>
        <time>2023-05-29T07:44:02Z</time>
      </trkpt>
      <trkpt lat="44.34482" lon="0.559">
        <ele>89.06</ele>
        <time>2023-05-29T07:44:11Z</time>
      </trkpt>
      <trkpt lat="44.34487" lon="0.55885">
        <ele>88.1</ele>
        <time>2023-05-29T07:44:18Z</time>
      </trkpt>
      <trkpt lat="44.34492" lon="0.55872">
        <ele>87.62</ele>
        <time>2023-05-29T07:44:25Z</time>
      </trkpt>
      <trkpt lat="44.34497" lon="0.55859">
        <ele>86.66</ele>
        <time>2023-05-29T07:44:32Z</time>
      </trkpt>
      <trkpt lat="44.34503" lon="0.55844">
        <ele>85.21</ele>
        <time>2023-05-29T07:44:40Z</time>
      </trkpt>
      <trkpt lat="44.3451" lon="0.5583">
        <ele>83.77</ele>
        <time>2023-05-29T07:44:49Z</time>
      </trkpt>
      <trkpt lat="44.34516" lon="0.55814">
        <ele>82.33</ele>
        <time>2023-05-29T07:44:57Z</time>
      </trkpt>
      <trkpt lat="44.34521" lon="0.55798">
        <ele>81.85</ele>
        <time>2023-05-29T07:45:04Z</time>
      </trkpt>
      <trkpt lat="44.34526" lon="0.55782">
        <ele>81.37</ele>
        <time>2023-05-29T07:45:12Z</time>
      </trkpt>
      <trkpt lat="44.34531" lon="0.55767">
        <ele>81.37</ele>
        <time>2023-05-29T07:45:21Z</time>
      </trkpt>
      <trkpt lat="44.34534" lon="0.55748">
        <ele>81.37</ele>
        <time>2023-05-29T07:45:29Z</time>
      </trkpt>
      <trkpt lat="44.34536" lon="0.55729">
        <ele>81.85</ele>
        <time>2023-05-29T07:45:39Z</time>
      </trkpt>
      <trkpt lat="44.34537" lon="0.55711">
        <ele>83.29</ele>
        <time>2023-05-29T07:45:47Z</time>
      </trkpt>
      <trkpt lat="44.34535" lon="0.5569">
        <ele>87.62</ele>
        <time>2023-05-29T07:45:54Z</time>
      </trkpt>
      <trkpt lat="44.34533" lon="0.55673">
        <ele>90.5</ele>
        <time>2023-05-29T07:46:04Z</time>
      </trkpt>
      <trkpt lat="44.34525" lon="0.55638">
        <ele>95.31</ele>
        <time>2023-05-29T07:46:23Z</time>
      </trkpt>
      <trkpt lat="44.34523" lon="0.5562">
        <ele>97.71</ele>
        <time>2023-05-29T07:46:33Z</time>
      </trkpt>
      <trkpt lat="44.34521" lon="0.55598">
        <ele>99.15</ele>
        <time>2023-05-29T07:46:43Z</time>
      </trkpt>
      <trkpt lat="44.34526" lon="0.5558">
        <ele>101.08</ele>
        <time>2023-05-29T07:46:52Z</time>
      </trkpt>
      <trkpt lat="44.34531" lon="0.55561">
        <ele>103</ele>
        <time>2023-05-29T07:47:02Z</time>
      </trkpt>
      <trkpt lat="44.34541" lon="0.55549">
        <ele>105.4</ele>
        <time>2023-05-29T07:47:11Z</time>
      </trkpt>
      <trkpt lat="44.34551" lon="0.55537">
        <ele>107.32</ele>
        <time>2023-05-29T07:47:20Z</time>
      </trkpt>
      <trkpt lat="44.34562" lon="0.55533">
        <ele>107.81</ele>
        <time>2023-05-29T07:47:28Z</time>
      </trkpt>
      <trkpt lat="44.34571" lon="0.55528">
        <ele>107.32</ele>
        <time>2023-05-29T07:47:36Z</time>
      </trkpt>
      <trkpt lat="44.3458" lon="0.55516">
        <ele>107.32</ele>
        <time>2023-05-29T07:47:44Z</time>
      </trkpt>
      <trkpt lat="44.34589" lon="0.55503">
        <ele>107.32</ele>
        <time>2023-05-29T07:47:52Z</time>
      </trkpt>
      <trkpt lat="44.34598" lon="0.55495">
        <ele>107.81</ele>
        <time>2023-05-29T07:47:59Z</time>
      </trkpt>
      <trkpt lat="44.34608" lon="0.55488">
        <ele>108.29</ele>
        <time>2023-05-29T07:48:07Z</time>
      </trkpt>
      <trkpt lat="44.34618" lon="0.55481">
        <ele>110.69</ele>
        <time>2023-05-29T07:48:15Z</time>
      </trkpt>
      <trkpt lat="44.34627" lon="0.55476">
        <ele>112.13</ele>
        <time>2023-05-29T07:48:22Z</time>
      </trkpt>
      <trkpt lat="44.34637" lon="0.55473">
        <ele>112.61</ele>
        <time>2023-05-29T07:48:28Z</time>
      </trkpt>
      <trkpt lat="44.34646" lon="0.55473">
        <ele>111.65</ele>
        <time>2023-05-29T07:48:34Z</time>
      </trkpt>
      <trkpt lat="44.34655" lon="0.55465">
        <ele>112.13</ele>
        <time>2023-05-29T07:48:41Z</time>
      </trkpt>
      <trkpt lat="44.34665" lon="0.55457">
        <ele>112.61</ele>
        <time>2023-05-29T07:48:48Z</time>
      </trkpt>
      <trkpt lat="44.34673" lon="0.5545">
        <ele>114.53</ele>
        <time>2023-05-29T07:48:54Z</time>
      </trkpt>
      <trkpt lat="44.34681" lon="0.55439">
        <ele>117.42</ele>
        <time>2023-05-29T07:49:01Z</time>
      </trkpt>
      <trkpt lat="44.34689" lon="0.55427">
        <ele>121.74</ele>
        <time>2023-05-29T07:49:09Z</time>
      </trkpt>
      <trkpt lat="44.34697" lon="0.55416">
        <ele>125.59</ele>
        <time>2023-05-29T07:49:18Z</time>
      </trkpt>
      <trkpt lat="44.34706" lon="0.55406">
        <ele>128.47</ele>
        <time>2023-05-29T07:49:28Z</time>
      </trkpt>
      <trkpt lat="44.34716" lon="0.554">
        <ele>130.88</ele>
        <time>2023-05-29T07:49:36Z</time>
      </trkpt>
      <trkpt lat="44.34725" lon="0.55395">
        <ele>134.72</ele>
        <time>2023-05-29T07:49:45Z</time>
      </trkpt>
      <trkpt lat="44.34736" lon="0.5538">
        <ele>137.61</ele>
        <time>2023-05-29T07:50:00Z</time>
      </trkpt>
      <trkpt lat="44.34731" lon="0.55355">
        <ele>139.53</ele>
        <time>2023-05-29T07:50:17Z</time>
      </trkpt>
      <trkpt lat="44.34732" lon="0.55338">
        <ele>141.45</ele>
        <time>2023-05-29T07:50:26Z</time>
      </trkpt>
      <trkpt lat="44.34731" lon="0.55324">
        <ele>143.85</ele>
        <time>2023-05-29T07:50:35Z</time>
      </trkpt>
      <trkpt lat="44.34731" lon="0.5531">
        <ele>145.78</ele>
        <time>2023-05-29T07:50:42Z</time>
      </trkpt>
      <trkpt lat="44.34729" lon="0.55243">
        <ele>144.82</ele>
        <time>2023-05-29T07:53:18Z</time>
      </trkpt>
      <trkpt lat="44.34718" lon="0.55107">
        <ele>144.34</ele>
        <time>2023-05-29T07:54:37Z</time>
      </trkpt>
      <trkpt lat="44.34706" lon="0.55094">
        <ele>146.26</ele>
        <time>2023-05-29T07:54:46Z</time>
      </trkpt>
      <trkpt lat="44.34675" lon="0.55051">
        <ele>152.51</ele>
        <time>2023-05-29T07:55:18Z</time>
      </trkpt>
      <trkpt lat="44.34658" lon="0.55011">
        <ele>155.87</ele>
        <time>2023-05-29T07:55:41Z</time>
      </trkpt>
      <trkpt lat="44.34649" lon="0.54987">
        <ele>157.31</ele>
        <time>2023-05-29T07:55:55Z</time>
      </trkpt>
      <trkpt lat="44.34639" lon="0.54956">
        <ele>159.72</ele>
        <time>2023-05-29T07:56:14Z</time>
      </trkpt>
      <trkpt lat="44.34616" lon="0.54831">
        <ele>167.89</ele>
        <time>2023-05-29T07:57:31Z</time>
      </trkpt>
      <trkpt lat="44.34618" lon="0.5481">
        <ele>168.37</ele>
        <time>2023-05-29T07:57:41Z</time>
      </trkpt>
      <trkpt lat="44.34621" lon="0.54793">
        <ele>168.85</ele>
        <time>2023-05-29T07:57:49Z</time>
      </trkpt>
      <trkpt lat="44.34625" lon="0.54773">
        <ele>168.85</ele>
        <time>2023-05-29T07:58:00Z</time>
      </trkpt>
      <trkpt lat="44.34629" lon="0.54756">
        <ele>169.33</ele>
        <time>2023-05-29T07:58:09Z</time>
      </trkpt>
      <trkpt lat="44.34631" lon="0.54734">
        <ele>168.85</ele>
        <time>2023-05-29T07:58:20Z</time>
      </trkpt>
      <trkpt lat="44.34633" lon="0.54713">
        <ele>168.37</ele>
        <time>2023-05-29T07:58:29Z</time>
      </trkpt>
      <trkpt lat="44.34633" lon="0.54695">
        <ele>167.41</ele>
        <time>2023-05-29T07:58:37Z</time>
      </trkpt>
      <trkpt lat="44.34632" lon="0.54678">
        <ele>165.96</ele>
        <time>2023-05-29T07:58:44Z</time>
      </trkpt>
      <trkpt lat="44.34633" lon="0.54662">
        <ele>165.48</ele>
        <time>2023-05-29T07:58:50Z</time>
      </trkpt>
      <trkpt lat="44.34632" lon="0.54648">
        <ele>164.04</ele>
        <time>2023-05-29T07:58:56Z</time>
      </trkpt>
      <trkpt lat="44.34632" lon="0.54634">
        <ele>163.56</ele>
        <time>2023-05-29T07:59:03Z</time>
      </trkpt>
      <trkpt lat="44.34632" lon="0.5462">
        <ele>162.12</ele>
        <time>2023-05-29T07:59:10Z</time>
      </trkpt>
      <trkpt lat="44.3463" lon="0.54606">
        <ele>161.64</ele>
        <time>2023-05-29T07:59:17Z</time>
      </trkpt>
      <trkpt lat="44.34629" lon="0.54591">
        <ele>161.64</ele>
        <time>2023-05-29T07:59:24Z</time>
      </trkpt>
      <trkpt lat="44.3462" lon="0.54584">
        <ele>161.16</ele>
        <time>2023-05-29T07:59:32Z</time>
      </trkpt>
      <trkpt lat="44.34607" lon="0.54578">
        <ele>161.16</ele>
        <time>2023-05-29T07:59:41Z</time>
      </trkpt>
      <trkpt lat="44.34612" lon="0.54568">
        <ele>160.2</ele>
        <time>2023-05-29T07:59:52Z</time>
      </trkpt>
      <trkpt lat="44.34622" lon="0.5457">
        <ele>158.75</ele>
        <time>2023-05-29T08:00:00Z</time>
      </trkpt>
      <trkpt lat="44.34632" lon="0.54572">
        <ele>156.83</ele>
        <time>2023-05-29T08:00:06Z</time>
      </trkpt>
      <trkpt lat="44.34642" lon="0.54574">
        <ele>156.35</ele>
        <time>2023-05-29T08:00:12Z</time>
      </trkpt>
      <trkpt lat="44.34652" lon="0.54576">
        <ele>155.39</ele>
        <time>2023-05-29T08:00:18Z</time>
      </trkpt>
      <trkpt lat="44.34661" lon="0.54579">
        <ele>153.95</ele>
        <time>2023-05-29T08:00:24Z</time>
      </trkpt>
      <trkpt lat="44.3467" lon="0.54581">
        <ele>152.99</ele>
        <time>2023-05-29T08:00:30Z</time>
      </trkpt>
      <trkpt lat="44.34679" lon="0.54583">
        <ele>151.54</ele>
        <time>2023-05-29T08:00:37Z</time>
      </trkpt>
      <trkpt lat="44.3469" lon="0.54581">
        <ele>149.62</ele>
        <time>2023-05-29T08:00:44Z</time>
      </trkpt>
      <trkpt lat="44.34699" lon="0.54575">
        <ele>147.7</ele>
        <time>2023-05-29T08:00:51Z</time>
      </trkpt>
      <trkpt lat="44.34707" lon="0.54565">
        <ele>146.26</ele>
        <time>2023-05-29T08:00:58Z</time>
      </trkpt>
      <trkpt lat="44.34714" lon="0.54556">
        <ele>144.82</ele>
        <time>2023-05-29T08:01:04Z</time>
      </trkpt>
      <trkpt lat="44.34722" lon="0.54547">
        <ele>143.85</ele>
        <time>2023-05-29T08:01:11Z</time>
      </trkpt>
      <trkpt lat="44.3473" lon="0.54538">
        <ele>142.89</ele>
        <time>2023-05-29T08:01:18Z</time>
      </trkpt>
      <trkpt lat="44.34739" lon="0.5453">
        <ele>142.41</ele>
        <time>2023-05-29T08:01:25Z</time>
      </trkpt>
      <trkpt lat="44.34748" lon="0.54522">
        <ele>142.41</ele>
        <time>2023-05-29T08:01:32Z</time>
      </trkpt>
      <trkpt lat="44.34758" lon="0.54517">
        <ele>141.93</ele>
        <time>2023-05-29T08:01:39Z</time>
      </trkpt>
      <trkpt lat="44.34768" lon="0.54509">
        <ele>141.93</ele>
        <time>2023-05-29T08:01:46Z</time>
      </trkpt>
      <trkpt lat="44.34776" lon="0.54502">
        <ele>142.41</ele>
        <time>2023-05-29T08:01:52Z</time>
      </trkpt>
      <trkpt lat="44.34785" lon="0.54496">
        <ele>142.41</ele>
        <time>2023-05-29T08:01:58Z</time>
      </trkpt>
      <trkpt lat="44.34794" lon="0.54487">
        <ele>142.89</ele>
        <time>2023-05-29T08:02:05Z</time>
      </trkpt>
      <trkpt lat="44.34803" lon="0.54478">
        <ele>142.41</ele>
        <time>2023-05-29T08:02:12Z</time>
      </trkpt>
      <trkpt lat="44.34812" lon="0.54468">
        <ele>142.89</ele>
        <time>2023-05-29T08:02:21Z</time>
      </trkpt>
      <trkpt lat="44.34822" lon="0.54462">
        <ele>143.85</ele>
        <time>2023-05-29T08:02:29Z</time>
      </trkpt>
      <trkpt lat="44.34833" lon="0.54456">
        <ele>144.34</ele>
        <time>2023-05-29T08:02:36Z</time>
      </trkpt>
      <trkpt lat="44.34842" lon="0.5445">
        <ele>144.34</ele>
        <time>2023-05-29T08:02:42Z</time>
      </trkpt>
      <trkpt lat="44.34851" lon="0.54444">
        <ele>144.34</ele>
        <time>2023-05-29T08:02:48Z</time>
      </trkpt>
      <trkpt lat="44.34859" lon="0.54438">
        <ele>144.34</ele>
        <time>2023-05-29T08:02:55Z</time>
      </trkpt>
      <trkpt lat="44.3487" lon="0.54431">
        <ele>144.82</ele>
        <time>2023-05-29T08:03:04Z</time>
      </trkpt>
      <trkpt lat="44.34879" lon="0.54422">
        <ele>145.3</ele>
        <time>2023-05-29T08:03:12Z</time>
      </trkpt>
      <trkpt lat="44.34889" lon="0.54414">
        <ele>144.82</ele>
        <time>2023-05-29T08:03:20Z</time>
      </trkpt>
      <trkpt lat="44.34898" lon="0.54406">
        <ele>143.85</ele>
        <time>2023-05-29T08:03:26Z</time>
      </trkpt>
      <trkpt lat="44.34907" lon="0.54398">
        <ele>143.37</ele>
        <time>2023-05-29T08:03:31Z</time>
      </trkpt>
      <trkpt lat="44.34917" lon="0.54393">
        <ele>142.89</ele>
        <time>2023-05-29T08:03:38Z</time>
      </trkpt>
      <trkpt lat="44.34928" lon="0.54387">
        <ele>142.41</ele>
        <time>2023-05-29T08:03:45Z</time>
      </trkpt>
      <trkpt lat="44.34937" lon="0.5438">
        <ele>141.93</ele>
        <time>2023-05-29T08:03:52Z</time>
      </trkpt>
      <trkpt lat="44.34948" lon="0.54375">
        <ele>140.97</ele>
        <time>2023-05-29T08:03:59Z</time>
      </trkpt>
      <trkpt lat="44.34957" lon="0.54368">
        <ele>140.01</ele>
        <time>2023-05-29T08:04:06Z</time>
      </trkpt>
      <trkpt lat="44.34967" lon="0.5436">
        <ele>139.53</ele>
        <time>2023-05-29T08:04:13Z</time>
      </trkpt>
      <trkpt lat="44.34975" lon="0.54351">
        <ele>138.57</ele>
        <time>2023-05-29T08:04:21Z</time>
      </trkpt>
      <trkpt lat="44.34984" lon="0.54341">
        <ele>138.57</ele>
        <time>2023-05-29T08:04:28Z</time>
      </trkpt>
      <trkpt lat="44.34993" lon="0.54333">
        <ele>139.05</ele>
        <time>2023-05-29T08:04:34Z</time>
      </trkpt>
      <trkpt lat="44.35002" lon="0.54321">
        <ele>139.05</ele>
        <time>2023-05-29T08:04:41Z</time>
      </trkpt>
      <trkpt lat="44.35009" lon="0.54311">
        <ele>139.05</ele>
        <time>2023-05-29T08:04:47Z</time>
      </trkpt>
      <trkpt lat="44.35016" lon="0.54301">
        <ele>138.57</ele>
        <time>2023-05-29T08:04:54Z</time>
      </trkpt>
      <trkpt lat="44.35024" lon="0.54291">
        <ele>139.05</ele>
        <time>2023-05-29T08:05:01Z</time>
      </trkpt>
      <trkpt lat="44.35032" lon="0.54281">
        <ele>139.05</ele>
        <time>2023-05-29T08:05:07Z</time>
      </trkpt>
      <trkpt lat="44.3504" lon="0.5427">
        <ele>139.05</ele>
        <time>2023-05-29T08:05:14Z</time>
      </trkpt>
      <trkpt lat="44.35048" lon="0.54259">
        <ele>139.05</ele>
        <time>2023-05-29T08:05:22Z</time>
      </trkpt>
      <trkpt lat="44.35055" lon="0.54248">
        <ele>139.53</ele>
        <time>2023-05-29T08:05:29Z</time>
      </trkpt>
      <trkpt lat="44.35064" lon="0.54235">
        <ele>139.05</ele>
        <time>2023-05-29T08:05:37Z</time>
      </trkpt>
      <trkpt lat="44.35073" lon="0.54223">
        <ele>138.57</ele>
        <time>2023-05-29T08:05:45Z</time>
      </trkpt>
      <trkpt lat="44.35083" lon="0.54209">
        <ele>138.09</ele>
        <time>2023-05-29T08:05:54Z</time>
      </trkpt>
      <trkpt lat="44.35091" lon="0.54197">
        <ele>136.64</ele>
        <time>2023-05-29T08:06:02Z</time>
      </trkpt>
      <trkpt lat="44.35101" lon="0.54181">
        <ele>134.72</ele>
        <time>2023-05-29T08:06:12Z</time>
      </trkpt>
      <trkpt lat="44.3512" lon="0.54184">
        <ele>131.84</ele>
        <time>2023-05-29T08:06:24Z</time>
      </trkpt>
      <trkpt lat="44.35128" lon="0.54196">
        <ele>129.92</ele>
        <time>2023-05-29T08:06:31Z</time>
      </trkpt>
      <trkpt lat="44.35139" lon="0.54214">
        <ele>127.99</ele>
        <time>2023-05-29T08:06:48Z</time>
      </trkpt>
      <trkpt lat="44.35152" lon="0.54225">
        <ele>125.59</ele>
        <time>2023-05-29T08:07:00Z</time>
      </trkpt>
      <trkpt lat="44.35162" lon="0.54221">
        <ele>123.67</ele>
        <time>2023-05-29T08:07:08Z</time>
      </trkpt>
      <trkpt lat="44.35173" lon="0.54213">
        <ele>121.26</ele>
        <time>2023-05-29T08:07:17Z</time>
      </trkpt>
      <trkpt lat="44.35181" lon="0.54199">
        <ele>119.34</ele>
        <time>2023-05-29T08:07:25Z</time>
      </trkpt>
      <trkpt lat="44.35187" lon="0.54184">
        <ele>118.86</ele>
        <time>2023-05-29T08:07:33Z</time>
      </trkpt>
      <trkpt lat="44.35202" lon="0.54158">
        <ele>118.86</ele>
        <time>2023-05-29T08:07:49Z</time>
      </trkpt>
      <trkpt lat="44.35214" lon="0.54142">
        <ele>118.38</ele>
        <time>2023-05-29T08:07:58Z</time>
      </trkpt>
      <trkpt lat="44.35222" lon="0.54127">
        <ele>117.9</ele>
        <time>2023-05-29T08:08:06Z</time>
      </trkpt>
      <trkpt lat="44.3523" lon="0.54111">
        <ele>114.53</ele>
        <time>2023-05-29T08:08:16Z</time>
      </trkpt>
      <trkpt lat="44.3524" lon="0.54091">
        <ele>112.61</ele>
        <time>2023-05-29T08:08:26Z</time>
      </trkpt>
      <trkpt lat="44.3525" lon="0.54071">
        <ele>110.69</ele>
        <time>2023-05-29T08:08:39Z</time>
      </trkpt>
      <trkpt lat="44.35262" lon="0.54056">
        <ele>113.57</ele>
        <time>2023-05-29T08:08:47Z</time>
      </trkpt>
      <trkpt lat="44.35271" lon="0.54046">
        <ele>115.01</ele>
        <time>2023-05-29T08:08:53Z</time>
      </trkpt>
      <trkpt lat="44.3528" lon="0.54035">
        <ele>116.46</ele>
        <time>2023-05-29T08:09:00Z</time>
      </trkpt>
      <trkpt lat="44.35289" lon="0.54026">
        <ele>116.94</ele>
        <time>2023-05-29T08:09:06Z</time>
      </trkpt>
      <trkpt lat="44.35295" lon="0.54015">
        <ele>116.94</ele>
        <time>2023-05-29T08:09:13Z</time>
      </trkpt>
      <trkpt lat="44.35298" lon="0.54003">
        <ele>116.94</ele>
        <time>2023-05-29T08:09:20Z</time>
      </trkpt>
      <trkpt lat="44.35296" lon="0.5399">
        <ele>118.38</ele>
        <time>2023-05-29T08:09:28Z</time>
      </trkpt>
      <trkpt lat="44.35292" lon="0.53977">
        <ele>117.9</ele>
        <time>2023-05-29T08:09:35Z</time>
      </trkpt>
      <trkpt lat="44.35289" lon="0.53964">
        <ele>116.94</ele>
        <time>2023-05-29T08:09:42Z</time>
      </trkpt>
      <trkpt lat="44.35285" lon="0.5395">
        <ele>116.94</ele>
        <time>2023-05-29T08:09:49Z</time>
      </trkpt>
      <trkpt lat="44.35277" lon="0.5394">
        <ele>115.98</ele>
        <time>2023-05-29T08:09:56Z</time>
      </trkpt>
      <trkpt lat="44.35268" lon="0.53935">
        <ele>115.01</ele>
        <time>2023-05-29T08:10:02Z</time>
      </trkpt>
      <trkpt lat="44.35259" lon="0.53928">
        <ele>114.05</ele>
        <time>2023-05-29T08:10:09Z</time>
      </trkpt>
      <trkpt lat="44.35251" lon="0.53915">
        <ele>113.57</ele>
        <time>2023-05-29T08:10:17Z</time>
      </trkpt>
      <trkpt lat="44.35242" lon="0.53902">
        <ele>113.09</ele>
        <time>2023-05-29T08:10:25Z</time>
      </trkpt>
      <trkpt lat="44.35235" lon="0.5389">
        <ele>112.13</ele>
        <time>2023-05-29T08:10:33Z</time>
      </trkpt>
      <trkpt lat="44.35227" lon="0.5388">
        <ele>111.65</ele>
        <time>2023-05-29T08:10:39Z</time>
      </trkpt>
      <trkpt lat="44.35219" lon="0.5387">
        <ele>111.17</ele>
        <time>2023-05-29T08:10:46Z</time>
      </trkpt>
      <trkpt lat="44.3521" lon="0.53864">
        <ele>111.17</ele>
        <time>2023-05-29T08:10:53Z</time>
      </trkpt>
      <trkpt lat="44.352" lon="0.53858">
        <ele>110.69</ele>
        <time>2023-05-29T08:11:00Z</time>
      </trkpt>
      <trkpt lat="44.35189" lon="0.53855">
        <ele>109.25</ele>
        <time>2023-05-29T08:11:07Z</time>
      </trkpt>
      <trkpt lat="44.35178" lon="0.53853">
        <ele>108.77</ele>
        <time>2023-05-29T08:11:13Z</time>
      </trkpt>
      <trkpt lat="44.35167" lon="0.53854">
        <ele>107.81</ele>
        <time>2023-05-29T08:11:20Z</time>
      </trkpt>
      <trkpt lat="44.35156" lon="0.53853">
        <ele>106.84</ele>
        <time>2023-05-29T08:11:27Z</time>
      </trkpt>
      <trkpt lat="44.35145" lon="0.53853">
        <ele>105.88</ele>
        <time>2023-05-29T08:11:34Z</time>
      </trkpt>
      <trkpt lat="44.35133" lon="0.53853">
        <ele>105.4</ele>
        <time>2023-05-29T08:11:42Z</time>
      </trkpt>
      <trkpt lat="44.35122" lon="0.53848">
        <ele>104.92</ele>
        <time>2023-05-29T08:11:47Z</time>
      </trkpt>
      <trkpt lat="44.35111" lon="0.53845">
        <ele>103</ele>
        <time>2023-05-29T08:11:53Z</time>
      </trkpt>
      <trkpt lat="44.35102" lon="0.5384">
        <ele>102.52</ele>
        <time>2023-05-29T08:11:59Z</time>
      </trkpt>
      <trkpt lat="44.35092" lon="0.53835">
        <ele>102.04</ele>
        <time>2023-05-29T08:12:05Z</time>
      </trkpt>
      <trkpt lat="44.35084" lon="0.5383">
        <ele>103</ele>
        <time>2023-05-29T08:12:11Z</time>
      </trkpt>
      <trkpt lat="44.35072" lon="0.53824">
        <ele>103.48</ele>
        <time>2023-05-29T08:12:18Z</time>
      </trkpt>
      <trkpt lat="44.35062" lon="0.53818">
        <ele>103.96</ele>
        <time>2023-05-29T08:12:24Z</time>
      </trkpt>
      <trkpt lat="44.35052" lon="0.53814">
        <ele>103.48</ele>
        <time>2023-05-29T08:12:30Z</time>
      </trkpt>
      <trkpt lat="44.35042" lon="0.53809">
        <ele>102.04</ele>
        <time>2023-05-29T08:12:36Z</time>
      </trkpt>
      <trkpt lat="44.35033" lon="0.53803">
        <ele>101.08</ele>
        <time>2023-05-29T08:12:42Z</time>
      </trkpt>
      <trkpt lat="44.35025" lon="0.53797">
        <ele>100.6</ele>
        <time>2023-05-29T08:12:48Z</time>
      </trkpt>
      <trkpt lat="44.35016" lon="0.53788">
        <ele>100.11</ele>
        <time>2023-05-29T08:12:54Z</time>
      </trkpt>
      <trkpt lat="44.35008" lon="0.53779">
        <ele>100.11</ele>
        <time>2023-05-29T08:13:01Z</time>
      </trkpt>
      <trkpt lat="44.34999" lon="0.53772">
        <ele>100.6</ele>
        <time>2023-05-29T08:13:08Z</time>
      </trkpt>
      <trkpt lat="44.34988" lon="0.53766">
        <ele>100.11</ele>
        <time>2023-05-29T08:13:16Z</time>
      </trkpt>
      <trkpt lat="44.34978" lon="0.53771">
        <ele>99.15</ele>
        <time>2023-05-29T08:15:07Z</time>
      </trkpt>
      <trkpt lat="44.34973" lon="0.53786">
        <ele>99.63</ele>
        <time>2023-05-29T08:15:16Z</time>
      </trkpt>
      <trkpt lat="44.34966" lon="0.53799">
        <ele>99.63</ele>
        <time>2023-05-29T08:15:25Z</time>
      </trkpt>
      <trkpt lat="44.3496" lon="0.53813">
        <ele>99.15</ele>
        <time>2023-05-29T08:15:33Z</time>
      </trkpt>
      <trkpt lat="44.3496" lon="0.53811">
        <ele>100.11</ele>
        <time>2023-05-29T08:16:30Z</time>
      </trkpt>
      <trkpt lat="44.34967" lon="0.53799">
        <ele>100.6</ele>
        <time>2023-05-29T08:16:37Z</time>
      </trkpt>
      <trkpt lat="44.34975" lon="0.53784">
        <ele>99.15</ele>
        <time>2023-05-29T08:16:45Z</time>
      </trkpt>
      <trkpt lat="44.34981" lon="0.53772">
        <ele>98.19</ele>
        <time>2023-05-29T08:16:52Z</time>
      </trkpt>
      <trkpt lat="44.3499" lon="0.53769">
        <ele>97.23</ele>
        <time>2023-05-29T08:17:00Z</time>
      </trkpt>
      <trkpt lat="44.35001" lon="0.53775">
        <ele>96.27</ele>
        <time>2023-05-29T08:17:11Z</time>
      </trkpt>
      <trkpt lat="44.35" lon="0.53762">
        <ele>95.79</ele>
        <time>2023-05-29T08:17:18Z</time>
      </trkpt>
      <trkpt lat="44.34994" lon="0.5375">
        <ele>95.31</ele>
        <time>2023-05-29T08:17:25Z</time>
      </trkpt>
      <trkpt lat="44.34986" lon="0.53733">
        <ele>93.87</ele>
        <time>2023-05-29T08:17:33Z</time>
      </trkpt>
      <trkpt lat="44.3498" lon="0.5372">
        <ele>94.35</ele>
        <time>2023-05-29T08:17:40Z</time>
      </trkpt>
      <trkpt lat="44.34974" lon="0.53706">
        <ele>93.39</ele>
        <time>2023-05-29T08:17:47Z</time>
      </trkpt>
      <trkpt lat="44.34968" lon="0.53695">
        <ele>92.42</ele>
        <time>2023-05-29T08:17:53Z</time>
      </trkpt>
      <trkpt lat="44.34961" lon="0.53683">
        <ele>90.98</ele>
        <time>2023-05-29T08:18:00Z</time>
      </trkpt>
      <trkpt lat="44.34955" lon="0.53671">
        <ele>90.02</ele>
        <time>2023-05-29T08:18:06Z</time>
      </trkpt>
      <trkpt lat="44.34948" lon="0.53658">
        <ele>89.54</ele>
        <time>2023-05-29T08:18:12Z</time>
      </trkpt>
      <trkpt lat="44.34943" lon="0.53647">
        <ele>89.54</ele>
        <time>2023-05-29T08:18:18Z</time>
      </trkpt>
      <trkpt lat="44.34936" lon="0.53634">
        <ele>90.02</ele>
        <time>2023-05-29T08:18:26Z</time>
      </trkpt>
      <trkpt lat="44.34931" lon="0.53623">
        <ele>90.02</ele>
        <time>2023-05-29T08:18:32Z</time>
      </trkpt>
      <trkpt lat="44.34924" lon="0.53611">
        <ele>89.54</ele>
        <time>2023-05-29T08:18:38Z</time>
      </trkpt>
      <trkpt lat="44.34919" lon="0.53599">
        <ele>90.02</ele>
        <time>2023-05-29T08:18:45Z</time>
      </trkpt>
      <trkpt lat="44.34911" lon="0.53585">
        <ele>90.98</ele>
        <time>2023-05-29T08:18:52Z</time>
      </trkpt>
      <trkpt lat="44.34905" lon="0.53574">
        <ele>91.94</ele>
        <time>2023-05-29T08:18:59Z</time>
      </trkpt>
      <trkpt lat="44.34899" lon="0.5356">
        <ele>93.39</ele>
        <time>2023-05-29T08:19:06Z</time>
      </trkpt>
      <trkpt lat="44.34894" lon="0.53549">
        <ele>93.87</ele>
        <time>2023-05-29T08:19:12Z</time>
      </trkpt>
      <trkpt lat="44.34889" lon="0.53537">
        <ele>93.87</ele>
        <time>2023-05-29T08:19:18Z</time>
      </trkpt>
      <trkpt lat="44.34883" lon="0.53525">
        <ele>93.87</ele>
        <time>2023-05-29T08:19:25Z</time>
      </trkpt>
      <trkpt lat="44.34876" lon="0.53511">
        <ele>94.35</ele>
        <time>2023-05-29T08:19:32Z</time>
      </trkpt>
      <trkpt lat="44.3487" lon="0.53498">
        <ele>94.83</ele>
        <time>2023-05-29T08:19:39Z</time>
      </trkpt>
      <trkpt lat="44.34862" lon="0.53485">
        <ele>95.31</ele>
        <time>2023-05-29T08:19:46Z</time>
      </trkpt>
      <trkpt lat="44.34853" lon="0.53472">
        <ele>95.79</ele>
        <time>2023-05-29T08:19:54Z</time>
      </trkpt>
      <trkpt lat="44.3484" lon="0.53453">
        <ele>96.27</ele>
        <time>2023-05-29T08:20:05Z</time>
      </trkpt>
      <trkpt lat="44.34832" lon="0.53439">
        <ele>96.75</ele>
        <time>2023-05-29T08:20:12Z</time>
      </trkpt>
      <trkpt lat="44.34826" lon="0.53422">
        <ele>97.23</ele>
        <time>2023-05-29T08:20:20Z</time>
      </trkpt>
      <trkpt lat="44.3482" lon="0.53407">
        <ele>97.71</ele>
        <time>2023-05-29T08:20:29Z</time>
      </trkpt>
      <trkpt lat="44.34781" lon="0.53316">
        <ele>103.48</ele>
        <time>2023-05-29T08:21:13Z</time>
      </trkpt>
      <trkpt lat="44.34762" lon="0.53294">
        <ele>104.92</ele>
        <time>2023-05-29T08:21:30Z</time>
      </trkpt>
      <trkpt lat="44.34748" lon="0.53282">
        <ele>103.96</ele>
        <time>2023-05-29T08:21:39Z</time>
      </trkpt>
      <trkpt lat="44.34734" lon="0.53274">
        <ele>101.08</ele>
        <time>2023-05-29T08:21:48Z</time>
      </trkpt>
      <trkpt lat="44.34719" lon="0.53267">
        <ele>101.56</ele>
        <time>2023-05-29T08:21:58Z</time>
      </trkpt>
      <trkpt lat="44.34705" lon="0.5326">
        <ele>103.48</ele>
        <time>2023-05-29T08:22:07Z</time>
      </trkpt>
      <trkpt lat="44.34693" lon="0.53253">
        <ele>105.88</ele>
        <time>2023-05-29T08:22:15Z</time>
      </trkpt>
      <trkpt lat="44.34681" lon="0.53245">
        <ele>105.88</ele>
        <time>2023-05-29T08:22:23Z</time>
      </trkpt>
      <trkpt lat="44.34672" lon="0.53234">
        <ele>105.88</ele>
        <time>2023-05-29T08:22:31Z</time>
      </trkpt>
      <trkpt lat="44.34669" lon="0.53218">
        <ele>106.36</ele>
        <time>2023-05-29T08:22:39Z</time>
      </trkpt>
      <trkpt lat="44.34669" lon="0.53202">
        <ele>108.29</ele>
        <time>2023-05-29T08:22:47Z</time>
      </trkpt>
      <trkpt lat="44.34676" lon="0.53186">
        <ele>109.73</ele>
        <time>2023-05-29T08:22:57Z</time>
      </trkpt>
      <trkpt lat="44.34685" lon="0.53174">
        <ele>111.65</ele>
        <time>2023-05-29T08:23:06Z</time>
      </trkpt>
      <trkpt lat="44.34693" lon="0.53164">
        <ele>113.09</ele>
        <time>2023-05-29T08:23:13Z</time>
      </trkpt>
      <trkpt lat="44.34703" lon="0.53155">
        <ele>114.05</ele>
        <time>2023-05-29T08:23:20Z</time>
      </trkpt>
      <trkpt lat="44.34712" lon="0.53146">
        <ele>114.05</ele>
        <time>2023-05-29T08:23:27Z</time>
      </trkpt>
      <trkpt lat="44.34723" lon="0.53134">
        <ele>115.01</ele>
        <time>2023-05-29T08:23:37Z</time>
      </trkpt>
      <trkpt lat="44.34733" lon="0.53121">
        <ele>116.46</ele>
        <time>2023-05-29T08:23:46Z</time>
      </trkpt>
      <trkpt lat="44.34741" lon="0.53104">
        <ele>118.38</ele>
        <time>2023-05-29T08:23:55Z</time>
      </trkpt>
      <trkpt lat="44.34744" lon="0.53079">
        <ele>118.38</ele>
        <time>2023-05-29T08:24:07Z</time>
      </trkpt>
      <trkpt lat="44.34742" lon="0.53061">
        <ele>118.38</ele>
        <time>2023-05-29T08:24:15Z</time>
      </trkpt>
      <trkpt lat="44.34739" lon="0.53041">
        <ele>118.86</ele>
        <time>2023-05-29T08:24:25Z</time>
      </trkpt>
      <trkpt lat="44.34735" lon="0.53015">
        <ele>118.86</ele>
        <time>2023-05-29T08:24:36Z</time>
      </trkpt>
      <trkpt lat="44.34731" lon="0.52999">
        <ele>118.86</ele>
        <time>2023-05-29T08:24:43Z</time>
      </trkpt>
      <trkpt lat="44.34728" lon="0.52986">
        <ele>118.86</ele>
        <time>2023-05-29T08:24:49Z</time>
      </trkpt>
      <trkpt lat="44.34725" lon="0.52972">
        <ele>118.86</ele>
        <time>2023-05-29T08:24:56Z</time>
      </trkpt>
      <trkpt lat="44.34722" lon="0.52958">
        <ele>118.86</ele>
        <time>2023-05-29T08:25:03Z</time>
      </trkpt>
      <trkpt lat="44.34718" lon="0.52943">
        <ele>119.82</ele>
        <time>2023-05-29T08:25:10Z</time>
      </trkpt>
      <trkpt lat="44.34713" lon="0.52929">
        <ele>120.3</ele>
        <time>2023-05-29T08:25:18Z</time>
      </trkpt>
      <trkpt lat="44.3471" lon="0.52912">
        <ele>120.78</ele>
        <time>2023-05-29T08:25:27Z</time>
      </trkpt>
      <trkpt lat="44.34705" lon="0.52896">
        <ele>119.34</ele>
        <time>2023-05-29T08:25:36Z</time>
      </trkpt>
      <trkpt lat="44.34698" lon="0.52883">
        <ele>119.34</ele>
        <time>2023-05-29T08:25:43Z</time>
      </trkpt>
      <trkpt lat="44.3469" lon="0.5287">
        <ele>118.38</ele>
        <time>2023-05-29T08:25:51Z</time>
      </trkpt>
      <trkpt lat="44.3467" lon="0.52835">
        <ele>121.74</ele>
        <time>2023-05-29T08:26:11Z</time>
      </trkpt>
      <trkpt lat="44.34671" lon="0.52817">
        <ele>123.67</ele>
        <time>2023-05-29T08:26:22Z</time>
      </trkpt>
      <trkpt lat="44.34678" lon="0.52798">
        <ele>124.15</ele>
        <time>2023-05-29T08:26:32Z</time>
      </trkpt>
      <trkpt lat="44.34683" lon="0.52783">
        <ele>124.63</ele>
        <time>2023-05-29T08:26:40Z</time>
      </trkpt>
      <trkpt lat="44.34691" lon="0.52766">
        <ele>124.63</ele>
        <time>2023-05-29T08:26:48Z</time>
      </trkpt>
      <trkpt lat="44.34703" lon="0.52754">
        <ele>122.71</ele>
        <time>2023-05-29T08:26:57Z</time>
      </trkpt>
      <trkpt lat="44.34694" lon="0.52733">
        <ele>113.57</ele>
        <time>2023-05-29T08:34:00Z</time>
      </trkpt>
      <trkpt lat="44.34697" lon="0.52717">
        <ele>115.5</ele>
        <time>2023-05-29T08:34:09Z</time>
      </trkpt>
      <trkpt lat="44.34714" lon="0.52675">
        <ele>121.74</ele>
        <time>2023-05-29T08:34:31Z</time>
      </trkpt>
      <trkpt lat="44.34723" lon="0.52639">
        <ele>123.19</ele>
        <time>2023-05-29T08:34:52Z</time>
      </trkpt>
      <trkpt lat="44.34714" lon="0.5259">
        <ele>130.4</ele>
        <time>2023-05-29T08:35:16Z</time>
      </trkpt>
      <trkpt lat="44.34701" lon="0.52577">
        <ele>133.28</ele>
        <time>2023-05-29T08:35:28Z</time>
      </trkpt>
      <trkpt lat="44.34689" lon="0.52569">
        <ele>136.16</ele>
        <time>2023-05-29T08:35:37Z</time>
      </trkpt>
      <trkpt lat="44.34673" lon="0.52557">
        <ele>140.49</ele>
        <time>2023-05-29T08:35:46Z</time>
      </trkpt>
      <trkpt lat="44.34662" lon="0.52547">
        <ele>145.78</ele>
        <time>2023-05-29T08:35:53Z</time>
      </trkpt>
      <trkpt lat="44.34656" lon="0.5253">
        <ele>151.54</ele>
        <time>2023-05-29T08:36:02Z</time>
      </trkpt>
      <trkpt lat="44.34642" lon="0.52486">
        <ele>160.2</ele>
        <time>2023-05-29T08:36:43Z</time>
      </trkpt>
      <trkpt lat="44.34633" lon="0.52488">
        <ele>157.79</ele>
        <time>2023-05-29T08:36:51Z</time>
      </trkpt>
      <trkpt lat="44.3463" lon="0.52477">
        <ele>154.91</ele>
        <time>2023-05-29T08:36:59Z</time>
      </trkpt>
      <trkpt lat="44.34635" lon="0.52463">
        <ele>154.43</ele>
        <time>2023-05-29T08:37:07Z</time>
      </trkpt>
      <trkpt lat="44.34639" lon="0.5245">
        <ele>153.95</ele>
        <time>2023-05-29T08:37:15Z</time>
      </trkpt>
      <trkpt lat="44.34645" lon="0.52436">
        <ele>155.39</ele>
        <time>2023-05-29T08:37:22Z</time>
      </trkpt>
      <trkpt lat="44.34651" lon="0.52424">
        <ele>157.31</ele>
        <time>2023-05-29T08:37:29Z</time>
      </trkpt>
      <trkpt lat="44.34658" lon="0.52412">
        <ele>158.75</ele>
        <time>2023-05-29T08:37:37Z</time>
      </trkpt>
      <trkpt lat="44.34664" lon="0.52399">
        <ele>160.2</ele>
        <time>2023-05-29T08:37:44Z</time>
      </trkpt>
      <trkpt lat="44.34671" lon="0.52387">
        <ele>162.6</ele>
        <time>2023-05-29T08:37:51Z</time>
      </trkpt>
      <trkpt lat="44.34678" lon="0.52378">
        <ele>163.08</ele>
        <time>2023-05-29T08:38:00Z</time>
      </trkpt>
      <trkpt lat="44.34687" lon="0.52372">
        <ele>163.56</ele>
        <time>2023-05-29T08:38:07Z</time>
      </trkpt>
      <trkpt lat="44.34697" lon="0.52367">
        <ele>164.04</ele>
        <time>2023-05-29T08:38:15Z</time>
      </trkpt>
      <trkpt lat="44.34714" lon="0.52351">
        <ele>167.89</ele>
        <time>2023-05-29T08:38:30Z</time>
      </trkpt>
      <trkpt lat="44.34725" lon="0.52342">
        <ele>169.81</ele>
        <time>2023-05-29T08:38:38Z</time>
      </trkpt>
      <trkpt lat="44.34734" lon="0.52332">
        <ele>171.73</ele>
        <time>2023-05-29T08:38:45Z</time>
      </trkpt>
      <trkpt lat="44.34741" lon="0.52321">
        <ele>172.21</ele>
        <time>2023-05-29T08:38:52Z</time>
      </trkpt>
      <trkpt lat="44.34747" lon="0.52309">
        <ele>172.21</ele>
        <time>2023-05-29T08:38:59Z</time>
      </trkpt>
      <trkpt lat="44.34755" lon="0.52299">
        <ele>172.69</ele>
        <time>2023-05-29T08:39:07Z</time>
      </trkpt>
      <trkpt lat="44.34755" lon="0.52283">
        <ele>173.66</ele>
        <time>2023-05-29T08:39:16Z</time>
      </trkpt>
      <trkpt lat="44.34755" lon="0.52263">
        <ele>172.69</ele>
        <time>2023-05-29T08:39:25Z</time>
      </trkpt>
      <trkpt lat="44.34765" lon="0.52254">
        <ele>172.69</ele>
        <time>2023-05-29T08:39:34Z</time>
      </trkpt>
      <trkpt lat="44.34771" lon="0.52242">
        <ele>173.17</ele>
        <time>2023-05-29T08:39:41Z</time>
      </trkpt>
      <trkpt lat="44.34778" lon="0.5223">
        <ele>173.17</ele>
        <time>2023-05-29T08:39:49Z</time>
      </trkpt>
      <trkpt lat="44.34787" lon="0.52222">
        <ele>172.69</ele>
        <time>2023-05-29T08:39:58Z</time>
      </trkpt>
      <trkpt lat="44.34795" lon="0.52223">
        <ele>174.14</ele>
        <time>2023-05-29T08:40:06Z</time>
      </trkpt>
      <trkpt lat="44.34805" lon="0.52221">
        <ele>176.06</ele>
        <time>2023-05-29T08:40:13Z</time>
      </trkpt>
      <trkpt lat="44.34813" lon="0.52213">
        <ele>177.02</ele>
        <time>2023-05-29T08:40:20Z</time>
      </trkpt>
      <trkpt lat="44.34819" lon="0.52203">
        <ele>177.02</ele>
        <time>2023-05-29T08:40:27Z</time>
      </trkpt>
      <trkpt lat="44.34826" lon="0.52192">
        <ele>177.02</ele>
        <time>2023-05-29T08:40:35Z</time>
      </trkpt>
      <trkpt lat="44.34834" lon="0.5218">
        <ele>177.02</ele>
        <time>2023-05-29T08:40:43Z</time>
      </trkpt>
      <trkpt lat="44.3484" lon="0.52179">
        <ele>183.75</ele>
        <time>2023-05-29T08:43:50Z</time>
      </trkpt>
      <trkpt lat="44.34832" lon="0.5219">
        <ele>183.75</ele>
        <time>2023-05-29T08:44:01Z</time>
      </trkpt>
      <trkpt lat="44.34825" lon="0.52201">
        <ele>183.27</ele>
        <time>2023-05-29T08:44:10Z</time>
      </trkpt>
      <trkpt lat="44.34816" lon="0.52213">
        <ele>181.83</ele>
        <time>2023-05-29T08:44:18Z</time>
      </trkpt>
      <trkpt lat="44.34807" lon="0.52221">
        <ele>181.35</ele>
        <time>2023-05-29T08:44:26Z</time>
      </trkpt>
      <trkpt lat="44.34794" lon="0.52218">
        <ele>180.38</ele>
        <time>2023-05-29T08:44:42Z</time>
      </trkpt>
      <trkpt lat="44.34796" lon="0.52204">
        <ele>178.94</ele>
        <time>2023-05-29T08:44:52Z</time>
      </trkpt>
      <trkpt lat="44.34802" lon="0.52187">
        <ele>178.46</ele>
        <time>2023-05-29T08:45:04Z</time>
      </trkpt>
      <trkpt lat="44.34806" lon="0.52171">
        <ele>177.5</ele>
        <time>2023-05-29T08:45:14Z</time>
      </trkpt>
      <trkpt lat="44.34808" lon="0.52151">
        <ele>174.62</ele>
        <time>2023-05-29T08:45:26Z</time>
      </trkpt>
      <trkpt lat="44.34818" lon="0.52124">
        <ele>171.25</ele>
        <time>2023-05-29T08:46:43Z</time>
      </trkpt>
      <trkpt lat="44.34826" lon="0.52115">
        <ele>170.77</ele>
        <time>2023-05-29T08:46:54Z</time>
      </trkpt>
      <trkpt lat="44.34835" lon="0.52108">
        <ele>171.73</ele>
        <time>2023-05-29T08:47:03Z</time>
      </trkpt>
      <trkpt lat="44.34846" lon="0.52102">
        <ele>171.73</ele>
        <time>2023-05-29T08:47:15Z</time>
      </trkpt>
      <trkpt lat="44.3486" lon="0.52098">
        <ele>171.73</ele>
        <time>2023-05-29T08:47:29Z</time>
      </trkpt>
      <trkpt lat="44.34871" lon="0.52094">
        <ele>171.25</ele>
        <time>2023-05-29T08:47:40Z</time>
      </trkpt>
      <trkpt lat="44.34881" lon="0.52089">
        <ele>171.73</ele>
        <time>2023-05-29T08:47:50Z</time>
      </trkpt>
      <trkpt lat="44.34891" lon="0.52089">
        <ele>172.21</ele>
        <time>2023-05-29T08:48:00Z</time>
      </trkpt>
      <trkpt lat="44.34901" lon="0.52092">
        <ele>172.69</ele>
        <time>2023-05-29T08:48:12Z</time>
      </trkpt>
      <trkpt lat="44.34909" lon="0.52097">
        <ele>173.17</ele>
        <time>2023-05-29T08:48:23Z</time>
      </trkpt>
      <trkpt lat="44.34917" lon="0.52106">
        <ele>173.17</ele>
        <time>2023-05-29T08:48:33Z</time>
      </trkpt>
      <trkpt lat="44.34921" lon="0.52118">
        <ele>174.14</ele>
        <time>2023-05-29T08:48:44Z</time>
      </trkpt>
      <trkpt lat="44.34913" lon="0.52117">
        <ele>173.66</ele>
        <time>2023-05-29T08:49:29Z</time>
      </trkpt>
      <trkpt lat="44.34904" lon="0.52113">
        <ele>173.66</ele>
        <time>2023-05-29T08:49:38Z</time>
      </trkpt>
      <trkpt lat="44.34896" lon="0.52107">
        <ele>173.66</ele>
        <time>2023-05-29T08:49:47Z</time>
      </trkpt>
      <trkpt lat="44.34886" lon="0.52103">
        <ele>173.17</ele>
        <time>2023-05-29T08:49:56Z</time>
      </trkpt>
      <trkpt lat="44.34877" lon="0.52103">
        <ele>173.66</ele>
        <time>2023-05-29T08:50:05Z</time>
      </trkpt>
      <trkpt lat="44.34867" lon="0.52105">
        <ele>173.17</ele>
        <time>2023-05-29T08:50:15Z</time>
      </trkpt>
      <trkpt lat="44.34841" lon="0.52114">
        <ele>171.25</ele>
        <time>2023-05-29T08:50:56Z</time>
      </trkpt>
      <trkpt lat="44.34826" lon="0.52128">
        <ele>169.81</ele>
        <time>2023-05-29T08:51:13Z</time>
      </trkpt>
      <trkpt lat="44.34816" lon="0.52139">
        <ele>168.37</ele>
        <time>2023-05-29T08:51:23Z</time>
      </trkpt>
      <trkpt lat="44.34809" lon="0.52158">
        <ele>167.41</ele>
        <time>2023-05-29T08:51:38Z</time>
      </trkpt>
      <trkpt lat="44.34805" lon="0.52172">
        <ele>166.45</ele>
        <time>2023-05-29T08:51:47Z</time>
      </trkpt>
      <trkpt lat="44.34797" lon="0.52197">
        <ele>165</ele>
        <time>2023-05-29T08:52:03Z</time>
      </trkpt>
      <trkpt lat="44.34788" lon="0.52214">
        <ele>169.33</ele>
        <time>2023-05-29T08:52:13Z</time>
      </trkpt>
      <trkpt lat="44.3478" lon="0.52223">
        <ele>170.77</ele>
        <time>2023-05-29T08:52:22Z</time>
      </trkpt>
      <trkpt lat="44.34775" lon="0.52235">
        <ele>169.81</ele>
        <time>2023-05-29T08:52:30Z</time>
      </trkpt>
      <trkpt lat="44.34771" lon="0.52247">
        <ele>168.85</ele>
        <time>2023-05-29T08:52:38Z</time>
      </trkpt>
      <trkpt lat="44.34762" lon="0.52254">
        <ele>168.37</ele>
        <time>2023-05-29T08:52:47Z</time>
      </trkpt>
      <trkpt lat="44.34756" lon="0.52263">
        <ele>168.37</ele>
        <time>2023-05-29T08:52:56Z</time>
      </trkpt>
      <trkpt lat="44.34757" lon="0.52283">
        <ele>167.89</ele>
        <time>2023-05-29T08:53:09Z</time>
      </trkpt>
      <trkpt lat="44.34753" lon="0.52303">
        <ele>167.41</ele>
        <time>2023-05-29T08:53:22Z</time>
      </trkpt>
      <trkpt lat="44.34745" lon="0.52319">
        <ele>165.96</ele>
        <time>2023-05-29T08:53:33Z</time>
      </trkpt>
      <trkpt lat="44.34731" lon="0.52333">
        <ele>165.96</ele>
        <time>2023-05-29T08:53:46Z</time>
      </trkpt>
      <trkpt lat="44.34722" lon="0.52342">
        <ele>166.45</ele>
        <time>2023-05-29T08:53:55Z</time>
      </trkpt>
      <trkpt lat="44.34712" lon="0.52354">
        <ele>165.96</ele>
        <time>2023-05-29T08:54:04Z</time>
      </trkpt>
      <trkpt lat="44.34701" lon="0.52364">
        <ele>166.45</ele>
        <time>2023-05-29T08:54:13Z</time>
      </trkpt>
      <trkpt lat="44.34688" lon="0.52369">
        <ele>165</ele>
        <time>2023-05-29T08:54:23Z</time>
      </trkpt>
      <trkpt lat="44.34679" lon="0.52373">
        <ele>164.04</ele>
        <time>2023-05-29T08:54:31Z</time>
      </trkpt>
      <trkpt lat="44.34671" lon="0.52383">
        <ele>162.12</ele>
        <time>2023-05-29T08:54:40Z</time>
      </trkpt>
      <trkpt lat="44.34666" lon="0.52403">
        <ele>156.35</ele>
        <time>2023-05-29T08:54:54Z</time>
      </trkpt>
      <trkpt lat="44.34655" lon="0.52418">
        <ele>155.39</ele>
        <time>2023-05-29T08:55:02Z</time>
      </trkpt>
      <trkpt lat="44.34648" lon="0.52431">
        <ele>155.87</ele>
        <time>2023-05-29T08:55:09Z</time>
      </trkpt>
      <trkpt lat="44.34643" lon="0.52443">
        <ele>153.95</ele>
        <time>2023-05-29T08:55:17Z</time>
      </trkpt>
      <trkpt lat="44.34638" lon="0.52458">
        <ele>145.3</ele>
        <time>2023-05-29T08:55:30Z</time>
      </trkpt>
      <trkpt lat="44.34625" lon="0.52481">
        <ele>142.89</ele>
        <time>2023-05-29T08:55:44Z</time>
      </trkpt>
      <trkpt lat="44.3462" lon="0.52496">
        <ele>142.41</ele>
        <time>2023-05-29T08:55:53Z</time>
      </trkpt>
      <trkpt lat="44.34615" lon="0.52511">
        <ele>144.34</ele>
        <time>2023-05-29T08:56:01Z</time>
      </trkpt>
      <trkpt lat="44.34611" lon="0.52527">
        <ele>145.78</ele>
        <time>2023-05-29T08:56:10Z</time>
      </trkpt>
      <trkpt lat="44.34609" lon="0.52543">
        <ele>146.26</ele>
        <time>2023-05-29T08:56:19Z</time>
      </trkpt>
      <trkpt lat="44.34605" lon="0.5256">
        <ele>146.74</ele>
        <time>2023-05-29T08:56:28Z</time>
      </trkpt>
      <trkpt lat="44.34602" lon="0.52579">
        <ele>146.26</ele>
        <time>2023-05-29T08:56:38Z</time>
      </trkpt>
      <trkpt lat="44.34597" lon="0.52598">
        <ele>147.7</ele>
        <time>2023-05-29T08:56:47Z</time>
      </trkpt>
      <trkpt lat="44.34591" lon="0.52613">
        <ele>148.18</ele>
        <time>2023-05-29T08:56:54Z</time>
      </trkpt>
      <trkpt lat="44.34586" lon="0.52627">
        <ele>150.1</ele>
        <time>2023-05-29T08:57:02Z</time>
      </trkpt>
      <trkpt lat="44.34584" lon="0.52642">
        <ele>150.58</ele>
        <time>2023-05-29T08:57:10Z</time>
      </trkpt>
      <trkpt lat="44.34581" lon="0.52656">
        <ele>150.1</ele>
        <time>2023-05-29T08:57:20Z</time>
      </trkpt>
      <trkpt lat="44.34578" lon="0.52677">
        <ele>151.54</ele>
        <time>2023-05-29T08:57:32Z</time>
      </trkpt>
      <trkpt lat="44.34569" lon="0.52686">
        <ele>152.51</ele>
        <time>2023-05-29T08:58:30Z</time>
      </trkpt>
      <trkpt lat="44.34559" lon="0.52689">
        <ele>153.47</ele>
        <time>2023-05-29T08:58:38Z</time>
      </trkpt>
      <trkpt lat="44.34552" lon="0.52705">
        <ele>154.91</ele>
        <time>2023-05-29T08:58:48Z</time>
      </trkpt>
      <trkpt lat="44.34549" lon="0.52719">
        <ele>155.39</ele>
        <time>2023-05-29T08:58:56Z</time>
      </trkpt>
      <trkpt lat="44.34546" lon="0.52735">
        <ele>156.83</ele>
        <time>2023-05-29T08:59:05Z</time>
      </trkpt>
      <trkpt lat="44.34532" lon="0.5274">
        <ele>159.72</ele>
        <time>2023-05-29T08:59:23Z</time>
      </trkpt>
      <trkpt lat="44.3452" lon="0.52738">
        <ele>159.72</ele>
        <time>2023-05-29T08:59:33Z</time>
      </trkpt>
      <trkpt lat="44.34506" lon="0.52745">
        <ele>160.68</ele>
        <time>2023-05-29T08:59:46Z</time>
      </trkpt>
      <trkpt lat="44.34494" lon="0.52752">
        <ele>162.6</ele>
        <time>2023-05-29T08:59:56Z</time>
      </trkpt>
      <trkpt lat="44.34475" lon="0.5276">
        <ele>165.96</ele>
        <time>2023-05-29T09:00:10Z</time>
      </trkpt>
      <trkpt lat="44.34451" lon="0.52765">
        <ele>166.93</ele>
        <time>2023-05-29T09:00:28Z</time>
      </trkpt>
      <trkpt lat="44.34437" lon="0.52765">
        <ele>166.45</ele>
        <time>2023-05-29T09:00:38Z</time>
      </trkpt>
      <trkpt lat="44.34423" lon="0.52763">
        <ele>165.96</ele>
        <time>2023-05-29T09:00:47Z</time>
      </trkpt>
      <trkpt lat="44.34409" lon="0.52757">
        <ele>167.89</ele>
        <time>2023-05-29T09:00:57Z</time>
      </trkpt>
      <trkpt lat="44.34398" lon="0.52753">
        <ele>168.85</ele>
        <time>2023-05-29T09:01:06Z</time>
      </trkpt>
      <trkpt lat="44.34388" lon="0.52754">
        <ele>169.33</ele>
        <time>2023-05-29T09:01:15Z</time>
      </trkpt>
      <trkpt lat="44.34372" lon="0.52756">
        <ele>169.33</ele>
        <time>2023-05-29T09:01:29Z</time>
      </trkpt>
      <trkpt lat="44.34346" lon="0.52756">
        <ele>168.85</ele>
        <time>2023-05-29T09:01:47Z</time>
      </trkpt>
      <trkpt lat="44.34331" lon="0.5276">
        <ele>167.41</ele>
        <time>2023-05-29T09:01:56Z</time>
      </trkpt>
      <trkpt lat="44.34318" lon="0.52762">
        <ele>167.41</ele>
        <time>2023-05-29T09:02:05Z</time>
      </trkpt>
      <trkpt lat="44.34303" lon="0.52763">
        <ele>166.93</ele>
        <time>2023-05-29T09:02:15Z</time>
      </trkpt>
      <trkpt lat="44.34286" lon="0.5276">
        <ele>167.89</ele>
        <time>2023-05-29T09:02:25Z</time>
      </trkpt>
      <trkpt lat="44.34275" lon="0.52759">
        <ele>167.41</ele>
        <time>2023-05-29T09:02:34Z</time>
      </trkpt>
      <trkpt lat="44.34262" lon="0.52757">
        <ele>165</ele>
        <time>2023-05-29T09:02:44Z</time>
      </trkpt>
      <trkpt lat="44.34245" lon="0.52754">
        <ele>161.64</ele>
        <time>2023-05-29T09:02:58Z</time>
      </trkpt>
      <trkpt lat="44.34232" lon="0.52745">
        <ele>161.64</ele>
        <time>2023-05-29T09:03:08Z</time>
      </trkpt>
      <trkpt lat="44.34221" lon="0.52741">
        <ele>161.16</ele>
        <time>2023-05-29T09:03:18Z</time>
      </trkpt>
      <trkpt lat="44.34209" lon="0.52743">
        <ele>159.24</ele>
        <time>2023-05-29T09:03:27Z</time>
      </trkpt>
      <trkpt lat="44.34199" lon="0.52752">
        <ele>156.83</ele>
        <time>2023-05-29T09:03:37Z</time>
      </trkpt>
      <trkpt lat="44.3419" lon="0.52761">
        <ele>154.91</ele>
        <time>2023-05-29T09:03:45Z</time>
      </trkpt>
      <trkpt lat="44.34183" lon="0.52774">
        <ele>150.1</ele>
        <time>2023-05-29T09:03:56Z</time>
      </trkpt>
      <trkpt lat="44.34175" lon="0.52795">
        <ele>145.3</ele>
        <time>2023-05-29T09:04:11Z</time>
      </trkpt>
      <trkpt lat="44.34159" lon="0.52831">
        <ele>137.13</ele>
        <time>2023-05-29T09:04:35Z</time>
      </trkpt>
      <trkpt lat="44.34149" lon="0.5285">
        <ele>136.64</ele>
        <time>2023-05-29T09:04:47Z</time>
      </trkpt>
      <trkpt lat="44.34137" lon="0.52874">
        <ele>139.05</ele>
        <time>2023-05-29T09:05:00Z</time>
      </trkpt>
      <trkpt lat="44.34111" lon="0.52948">
        <ele>128.47</ele>
        <time>2023-05-29T09:05:44Z</time>
      </trkpt>
      <trkpt lat="44.34101" lon="0.52961">
        <ele>128.47</ele>
        <time>2023-05-29T09:05:51Z</time>
      </trkpt>
      <trkpt lat="44.3409" lon="0.52972">
        <ele>130.4</ele>
        <time>2023-05-29T09:05:58Z</time>
      </trkpt>
      <trkpt lat="44.3408" lon="0.52982">
        <ele>131.36</ele>
        <time>2023-05-29T09:06:05Z</time>
      </trkpt>
      <trkpt lat="44.34068" lon="0.52989">
        <ele>131.84</ele>
        <time>2023-05-29T09:06:13Z</time>
      </trkpt>
      <trkpt lat="44.34016" lon="0.52987">
        <ele>120.78</ele>
        <time>2023-05-29T09:07:26Z</time>
      </trkpt>
      <trkpt lat="44.33993" lon="0.5299">
        <ele>115.98</ele>
        <time>2023-05-29T09:07:49Z</time>
      </trkpt>
      <trkpt lat="44.33981" lon="0.5299">
        <ele>116.46</ele>
        <time>2023-05-29T09:07:58Z</time>
      </trkpt>
      <trkpt lat="44.33972" lon="0.52995">
        <ele>115.01</ele>
        <time>2023-05-29T09:08:07Z</time>
      </trkpt>
      <trkpt lat="44.33963" lon="0.53">
        <ele>114.53</ele>
        <time>2023-05-29T09:08:16Z</time>
      </trkpt>
      <trkpt lat="44.33955" lon="0.53007">
        <ele>113.09</ele>
        <time>2023-05-29T09:08:25Z</time>
      </trkpt>
      <trkpt lat="44.33944" lon="0.53008">
        <ele>111.65</ele>
        <time>2023-05-29T09:08:36Z</time>
      </trkpt>
      <trkpt lat="44.33932" lon="0.53002">
        <ele>110.21</ele>
        <time>2023-05-29T09:08:48Z</time>
      </trkpt>
      <trkpt lat="44.33913" lon="0.52989">
        <ele>104.44</ele>
        <time>2023-05-29T09:09:09Z</time>
      </trkpt>
      <trkpt lat="44.33891" lon="0.52972">
        <ele>99.63</ele>
        <time>2023-05-29T09:09:32Z</time>
      </trkpt>
      <trkpt lat="44.33876" lon="0.52958">
        <ele>96.75</ele>
        <time>2023-05-29T09:09:46Z</time>
      </trkpt>
      <trkpt lat="44.33866" lon="0.5295">
        <ele>94.83</ele>
        <time>2023-05-29T09:09:57Z</time>
      </trkpt>
      <trkpt lat="44.33855" lon="0.52937">
        <ele>94.83</ele>
        <time>2023-05-29T09:10:08Z</time>
      </trkpt>
      <trkpt lat="44.33845" lon="0.52928">
        <ele>95.79</ele>
        <time>2023-05-29T09:10:17Z</time>
      </trkpt>
      <trkpt lat="44.33835" lon="0.5292">
        <ele>97.23</ele>
        <time>2023-05-29T09:10:29Z</time>
      </trkpt>
      <trkpt lat="44.33828" lon="0.52909">
        <ele>99.63</ele>
        <time>2023-05-29T09:11:32Z</time>
      </trkpt>
      <trkpt lat="44.33818" lon="0.52911">
        <ele>100.11</ele>
        <time>2023-05-29T09:11:39Z</time>
      </trkpt>
      <trkpt lat="44.33808" lon="0.52915">
        <ele>100.11</ele>
        <time>2023-05-29T09:11:46Z</time>
      </trkpt>
      <trkpt lat="44.33799" lon="0.52919">
        <ele>99.63</ele>
        <time>2023-05-29T09:11:53Z</time>
      </trkpt>
      <trkpt lat="44.33789" lon="0.52924">
        <ele>98.67</ele>
        <time>2023-05-29T09:12:00Z</time>
      </trkpt>
      <trkpt lat="44.3378" lon="0.52928">
        <ele>98.19</ele>
        <time>2023-05-29T09:12:06Z</time>
      </trkpt>
      <trkpt lat="44.3377" lon="0.52928">
        <ele>98.19</ele>
        <time>2023-05-29T09:12:13Z</time>
      </trkpt>
      <trkpt lat="44.3376" lon="0.52925">
        <ele>98.19</ele>
        <time>2023-05-29T09:12:20Z</time>
      </trkpt>
      <trkpt lat="44.3375" lon="0.52923">
        <ele>98.19</ele>
        <time>2023-05-29T09:12:27Z</time>
      </trkpt>
      <trkpt lat="44.33741" lon="0.52921">
        <ele>98.19</ele>
        <time>2023-05-29T09:12:33Z</time>
      </trkpt>
      <trkpt lat="44.33733" lon="0.52916">
        <ele>98.67</ele>
        <time>2023-05-29T09:12:39Z</time>
      </trkpt>
      <trkpt lat="44.33724" lon="0.52911">
        <ele>98.67</ele>
        <time>2023-05-29T09:12:45Z</time>
      </trkpt>
      <trkpt lat="44.33716" lon="0.52906">
        <ele>98.67</ele>
        <time>2023-05-29T09:12:51Z</time>
      </trkpt>
      <trkpt lat="44.33707" lon="0.529">
        <ele>99.63</ele>
        <time>2023-05-29T09:12:58Z</time>
      </trkpt>
      <trkpt lat="44.33698" lon="0.52894">
        <ele>100.11</ele>
        <time>2023-05-29T09:13:05Z</time>
      </trkpt>
      <trkpt lat="44.33689" lon="0.52889">
        <ele>101.08</ele>
        <time>2023-05-29T09:13:12Z</time>
      </trkpt>
      <trkpt lat="44.33679" lon="0.52886">
        <ele>102.52</ele>
        <time>2023-05-29T09:13:19Z</time>
      </trkpt>
      <trkpt lat="44.33671" lon="0.52882">
        <ele>103.96</ele>
        <time>2023-05-29T09:13:25Z</time>
      </trkpt>
      <trkpt lat="44.33661" lon="0.52877">
        <ele>105.4</ele>
        <time>2023-05-29T09:13:32Z</time>
      </trkpt>
      <trkpt lat="44.33653" lon="0.52873">
        <ele>105.88</ele>
        <time>2023-05-29T09:13:38Z</time>
      </trkpt>
      <trkpt lat="44.33644" lon="0.52868">
        <ele>105.4</ele>
        <time>2023-05-29T09:13:45Z</time>
      </trkpt>
      <trkpt lat="44.33634" lon="0.52864">
        <ele>104.92</ele>
        <time>2023-05-29T09:13:51Z</time>
      </trkpt>
      <trkpt lat="44.33624" lon="0.5286">
        <ele>103.48</ele>
        <time>2023-05-29T09:13:58Z</time>
      </trkpt>
      <trkpt lat="44.33615" lon="0.52858">
        <ele>102.52</ele>
        <time>2023-05-29T09:14:04Z</time>
      </trkpt>
      <trkpt lat="44.33604" lon="0.52857">
        <ele>101.08</ele>
        <time>2023-05-29T09:14:11Z</time>
      </trkpt>
      <trkpt lat="44.33595" lon="0.52855">
        <ele>100.11</ele>
        <time>2023-05-29T09:14:17Z</time>
      </trkpt>
      <trkpt lat="44.33586" lon="0.52853">
        <ele>99.63</ele>
        <time>2023-05-29T09:14:23Z</time>
      </trkpt>
      <trkpt lat="44.33576" lon="0.52851">
        <ele>99.15</ele>
        <time>2023-05-29T09:14:29Z</time>
      </trkpt>
      <trkpt lat="44.33567" lon="0.52849">
        <ele>98.19</ele>
        <time>2023-05-29T09:14:35Z</time>
      </trkpt>
      <trkpt lat="44.33557" lon="0.52846">
        <ele>97.23</ele>
        <time>2023-05-29T09:14:42Z</time>
      </trkpt>
      <trkpt lat="44.33547" lon="0.52845">
        <ele>96.27</ele>
        <time>2023-05-29T09:14:49Z</time>
      </trkpt>
      <trkpt lat="44.33537" lon="0.52843">
        <ele>95.79</ele>
        <time>2023-05-29T09:14:56Z</time>
      </trkpt>
      <trkpt lat="44.33532" lon="0.52841">
        <ele>95.79</ele>
        <time>2023-05-29T09:16:36Z</time>
      </trkpt>
      <trkpt lat="44.33516" lon="0.52835">
        <ele>96.27</ele>
        <time>2023-05-29T09:17:22Z</time>
      </trkpt>
      <trkpt lat="44.33505" lon="0.52835">
        <ele>94.35</ele>
        <time>2023-05-29T09:17:33Z</time>
      </trkpt>
      <trkpt lat="44.33494" lon="0.52835">
        <ele>92.42</ele>
        <time>2023-05-29T09:17:42Z</time>
      </trkpt>
      <trkpt lat="44.33483" lon="0.52834">
        <ele>90.98</ele>
        <time>2023-05-29T09:17:51Z</time>
      </trkpt>
      <trkpt lat="44.33473" lon="0.52833">
        <ele>89.06</ele>
        <time>2023-05-29T09:17:59Z</time>
      </trkpt>
      <trkpt lat="44.33462" lon="0.52829">
        <ele>85.69</ele>
        <time>2023-05-29T09:18:08Z</time>
      </trkpt>
      <trkpt lat="44.33452" lon="0.52823">
        <ele>84.73</ele>
        <time>2023-05-29T09:18:14Z</time>
      </trkpt>
      <trkpt lat="44.33443" lon="0.52817">
        <ele>84.25</ele>
        <time>2023-05-29T09:18:20Z</time>
      </trkpt>
      <trkpt lat="44.33434" lon="0.5281">
        <ele>83.77</ele>
        <time>2023-05-29T09:18:26Z</time>
      </trkpt>
      <trkpt lat="44.33424" lon="0.52805">
        <ele>82.81</ele>
        <time>2023-05-29T09:18:33Z</time>
      </trkpt>
      <trkpt lat="44.33414" lon="0.52798">
        <ele>81.85</ele>
        <time>2023-05-29T09:18:40Z</time>
      </trkpt>
      <trkpt lat="44.33406" lon="0.52792">
        <ele>81.37</ele>
        <time>2023-05-29T09:18:46Z</time>
      </trkpt>
      <trkpt lat="44.33395" lon="0.5279">
        <ele>80.41</ele>
        <time>2023-05-29T09:18:53Z</time>
      </trkpt>
      <trkpt lat="44.33384" lon="0.52788">
        <ele>79.45</ele>
        <time>2023-05-29T09:18:59Z</time>
      </trkpt>
      <trkpt lat="44.33373" lon="0.52787">
        <ele>78</ele>
        <time>2023-05-29T09:19:05Z</time>
      </trkpt>
      <trkpt lat="44.33363" lon="0.52786">
        <ele>77.52</ele>
        <time>2023-05-29T09:19:11Z</time>
      </trkpt>
      <trkpt lat="44.33352" lon="0.52785">
        <ele>77.04</ele>
        <time>2023-05-29T09:19:17Z</time>
      </trkpt>
      <trkpt lat="44.33342" lon="0.52785">
        <ele>75.12</ele>
        <time>2023-05-29T09:19:23Z</time>
      </trkpt>
      <trkpt lat="44.33333" lon="0.52785">
        <ele>73.2</ele>
        <time>2023-05-29T09:19:29Z</time>
      </trkpt>
      <trkpt lat="44.33323" lon="0.52782">
        <ele>70.79</ele>
        <time>2023-05-29T09:19:36Z</time>
      </trkpt>
      <trkpt lat="44.33312" lon="0.52778">
        <ele>69.83</ele>
        <time>2023-05-29T09:19:43Z</time>
      </trkpt>
      <trkpt lat="44.33301" lon="0.52773">
        <ele>68.39</ele>
        <time>2023-05-29T09:19:49Z</time>
      </trkpt>
      <trkpt lat="44.33292" lon="0.52771">
        <ele>67.91</ele>
        <time>2023-05-29T09:19:55Z</time>
      </trkpt>
      <trkpt lat="44.33281" lon="0.52768">
        <ele>67.43</ele>
        <time>2023-05-29T09:20:02Z</time>
      </trkpt>
      <trkpt lat="44.33269" lon="0.52764">
        <ele>65.99</ele>
        <time>2023-05-29T09:20:09Z</time>
      </trkpt>
      <trkpt lat="44.33259" lon="0.52762">
        <ele>65.03</ele>
        <time>2023-05-29T09:20:15Z</time>
      </trkpt>
      <trkpt lat="44.33248" lon="0.52763">
        <ele>64.55</ele>
        <time>2023-05-29T09:20:22Z</time>
      </trkpt>
      <trkpt lat="44.33244" lon="0.52775">
        <ele>62.14</ele>
        <time>2023-05-29T09:20:30Z</time>
      </trkpt>
      <trkpt lat="44.33243" lon="0.5279">
        <ele>59.74</ele>
        <time>2023-05-29T09:20:38Z</time>
      </trkpt>
      <trkpt lat="44.33243" lon="0.52807">
        <ele>57.34</ele>
        <time>2023-05-29T09:20:47Z</time>
      </trkpt>
      <trkpt lat="44.33242" lon="0.52824">
        <ele>57.34</ele>
        <time>2023-05-29T09:20:56Z</time>
      </trkpt>
      <trkpt lat="44.3324" lon="0.52843">
        <ele>57.82</ele>
        <time>2023-05-29T09:21:04Z</time>
      </trkpt>
      <trkpt lat="44.33237" lon="0.52862">
        <ele>57.34</ele>
        <time>2023-05-29T09:21:11Z</time>
      </trkpt>
      <trkpt lat="44.33234" lon="0.52881">
        <ele>57.34</ele>
        <time>2023-05-29T09:21:19Z</time>
      </trkpt>
      <trkpt lat="44.33232" lon="0.52896">
        <ele>56.86</ele>
        <time>2023-05-29T09:21:25Z</time>
      </trkpt>
      <trkpt lat="44.33231" lon="0.52914">
        <ele>57.82</ele>
        <time>2023-05-29T09:21:32Z</time>
      </trkpt>
      <trkpt lat="44.33228" lon="0.52932">
        <ele>58.78</ele>
        <time>2023-05-29T09:21:39Z</time>
      </trkpt>
      <trkpt lat="44.33227" lon="0.52949">
        <ele>58.78</ele>
        <time>2023-05-29T09:21:45Z</time>
      </trkpt>
      <trkpt lat="44.33228" lon="0.52966">
        <ele>58.78</ele>
        <time>2023-05-29T09:21:51Z</time>
      </trkpt>
      <trkpt lat="44.33231" lon="0.52981">
        <ele>58.78</ele>
        <time>2023-05-29T09:21:58Z</time>
      </trkpt>
      <trkpt lat="44.33236" lon="0.52996">
        <ele>60.22</ele>
        <time>2023-05-29T09:22:05Z</time>
      </trkpt>
      <trkpt lat="44.33235" lon="0.53011">
        <ele>61.18</ele>
        <time>2023-05-29T09:22:13Z</time>
      </trkpt>
      <trkpt lat="44.33228" lon="0.53021">
        <ele>61.66</ele>
        <time>2023-05-29T09:22:20Z</time>
      </trkpt>
      <trkpt lat="44.33218" lon="0.53034">
        <ele>61.66</ele>
        <time>2023-05-29T09:22:24Z</time>
      </trkpt>
      <trkpt lat="44.3321" lon="0.53044">
        <ele>62.14</ele>
        <time>2023-05-29T09:22:26Z</time>
      </trkpt>
      <trkpt lat="44.33202" lon="0.53056">
        <ele>62.14</ele>
        <time>2023-05-29T09:22:28Z</time>
      </trkpt>
      <trkpt lat="44.33194" lon="0.53068">
        <ele>62.62</ele>
        <time>2023-05-29T09:22:30Z</time>
      </trkpt>
      <trkpt lat="44.33186" lon="0.53081">
        <ele>62.62</ele>
        <time>2023-05-29T09:22:32Z</time>
      </trkpt>
      <trkpt lat="44.33179" lon="0.53095">
        <ele>62.62</ele>
        <time>2023-05-29T09:22:34Z</time>
      </trkpt>
      <trkpt lat="44.33174" lon="0.53109">
        <ele>62.62</ele>
        <time>2023-05-29T09:22:36Z</time>
      </trkpt>
      <trkpt lat="44.3317" lon="0.53124">
        <ele>62.62</ele>
        <time>2023-05-29T09:22:38Z</time>
      </trkpt>
      <trkpt lat="44.33166" lon="0.5314">
        <ele>62.14</ele>
        <time>2023-05-29T09:22:40Z</time>
      </trkpt>
      <trkpt lat="44.33162" lon="0.53156">
        <ele>62.14</ele>
        <time>2023-05-29T09:22:42Z</time>
      </trkpt>
      <trkpt lat="44.33156" lon="0.53172">
        <ele>62.14</ele>
        <time>2023-05-29T09:22:44Z</time>
      </trkpt>
      <trkpt lat="44.33151" lon="0.53187">
        <ele>62.14</ele>
        <time>2023-05-29T09:22:46Z</time>
      </trkpt>
      <trkpt lat="44.33144" lon="0.53202">
        <ele>62.14</ele>
        <time>2023-05-29T09:22:48Z</time>
      </trkpt>
      <trkpt lat="44.33137" lon="0.53217">
        <ele>62.14</ele>
        <time>2023-05-29T09:22:50Z</time>
      </trkpt>
      <trkpt lat="44.33131" lon="0.53231">
        <ele>62.14</ele>
        <time>2023-05-29T09:22:52Z</time>
      </trkpt>
      <trkpt lat="44.33124" lon="0.53244">
        <ele>62.14</ele>
        <time>2023-05-29T09:22:54Z</time>
      </trkpt>
      <trkpt lat="44.33117" lon="0.53257">
        <ele>62.14</ele>
        <time>2023-05-29T09:22:56Z</time>
      </trkpt>
      <trkpt lat="44.3311" lon="0.5327">
        <ele>62.62</ele>
        <time>2023-05-29T09:22:58Z</time>
      </trkpt>
      <trkpt lat="44.33104" lon="0.53282">
        <ele>62.14</ele>
        <time>2023-05-29T09:23:00Z</time>
      </trkpt>
      <trkpt lat="44.33097" lon="0.53291">
        <ele>62.14</ele>
        <time>2023-05-29T09:23:02Z</time>
      </trkpt>
      <trkpt lat="44.33088" lon="0.533">
        <ele>61.66</ele>
        <time>2023-05-29T09:23:05Z</time>
      </trkpt>
      <trkpt lat="44.33079" lon="0.533">
        <ele>60.7</ele>
        <time>2023-05-29T09:23:11Z</time>
      </trkpt>
      <trkpt lat="44.33069" lon="0.533">
        <ele>60.7</ele>
        <time>2023-05-29T09:23:19Z</time>
      </trkpt>
      <trkpt lat="44.33059" lon="0.53299">
        <ele>63.1</ele>
        <time>2023-05-29T09:23:39Z</time>
      </trkpt>
      <trkpt lat="44.33048" lon="0.533">
        <ele>62.62</ele>
        <time>2023-05-29T09:23:42Z</time>
      </trkpt>
      <trkpt lat="44.33035" lon="0.533">
        <ele>62.62</ele>
        <time>2023-05-29T09:23:45Z</time>
      </trkpt>
      <trkpt lat="44.33025" lon="0.533">
        <ele>62.62</ele>
        <time>2023-05-29T09:23:47Z</time>
      </trkpt>
      <trkpt lat="44.33016" lon="0.53299">
        <ele>62.62</ele>
        <time>2023-05-29T09:23:49Z</time>
      </trkpt>
      <trkpt lat="44.33006" lon="0.53298">
        <ele>63.1</ele>
        <time>2023-05-29T09:23:51Z</time>
      </trkpt>
      <trkpt lat="44.32997" lon="0.53298">
        <ele>63.1</ele>
        <time>2023-05-29T09:23:54Z</time>
      </trkpt>
      <trkpt lat="44.32992" lon="0.53296">
        <ele>65.03</ele>
        <time>2023-05-29T09:24:07Z</time>
      </trkpt>
      <trkpt lat="44.32994" lon="0.53282">
        <ele>64.55</ele>
        <time>2023-05-29T09:24:15Z</time>
      </trkpt>
      <trkpt lat="44.32992" lon="0.53267">
        <ele>63.58</ele>
        <time>2023-05-29T09:24:22Z</time>
      </trkpt>
      <trkpt lat="44.32988" lon="0.53251">
        <ele>63.58</ele>
        <time>2023-05-29T09:24:30Z</time>
      </trkpt>
      <trkpt lat="44.32986" lon="0.53236">
        <ele>63.1</ele>
        <time>2023-05-29T09:24:37Z</time>
      </trkpt>
      <trkpt lat="44.32984" lon="0.53222">
        <ele>62.62</ele>
        <time>2023-05-29T09:24:44Z</time>
      </trkpt>
      <trkpt lat="44.32982" lon="0.53207">
        <ele>62.14</ele>
        <time>2023-05-29T09:24:50Z</time>
      </trkpt>
      <trkpt lat="44.32982" lon="0.53192">
        <ele>61.66</ele>
        <time>2023-05-29T09:24:54Z</time>
      </trkpt>
      <trkpt lat="44.32982" lon="0.53174">
        <ele>61.18</ele>
        <time>2023-05-29T09:24:57Z</time>
      </trkpt>
      <trkpt lat="44.32981" lon="0.53159">
        <ele>61.18</ele>
        <time>2023-05-29T09:24:59Z</time>
      </trkpt>
      <trkpt lat="44.32981" lon="0.53143">
        <ele>61.18</ele>
        <time>2023-05-29T09:25:01Z</time>
      </trkpt>
      <trkpt lat="44.32981" lon="0.53127">
        <ele>60.7</ele>
        <time>2023-05-29T09:25:03Z</time>
      </trkpt>
      <trkpt lat="44.32981" lon="0.53111">
        <ele>60.7</ele>
        <time>2023-05-29T09:25:05Z</time>
      </trkpt>
      <trkpt lat="44.32981" lon="0.53095">
        <ele>60.7</ele>
        <time>2023-05-29T09:25:07Z</time>
      </trkpt>
      <trkpt lat="44.32981" lon="0.5308">
        <ele>60.7</ele>
        <time>2023-05-29T09:25:09Z</time>
      </trkpt>
      <trkpt lat="44.32981" lon="0.53064">
        <ele>60.7</ele>
        <time>2023-05-29T09:25:11Z</time>
      </trkpt>
      <trkpt lat="44.3298" lon="0.53048">
        <ele>60.7</ele>
        <time>2023-05-29T09:25:13Z</time>
      </trkpt>
      <trkpt lat="44.32979" lon="0.53031">
        <ele>60.22</ele>
        <time>2023-05-29T09:25:15Z</time>
      </trkpt>
      <trkpt lat="44.32979" lon="0.53015">
        <ele>59.74</ele>
        <time>2023-05-29T09:25:17Z</time>
      </trkpt>
      <trkpt lat="44.32978" lon="0.53">
        <ele>59.74</ele>
        <time>2023-05-29T09:25:19Z</time>
      </trkpt>
      <trkpt lat="44.32977" lon="0.52984">
        <ele>59.74</ele>
        <time>2023-05-29T09:25:21Z</time>
      </trkpt>
      <trkpt lat="44.32976" lon="0.52969">
        <ele>59.74</ele>
        <time>2023-05-29T09:25:23Z</time>
      </trkpt>
      <trkpt lat="44.32974" lon="0.52954">
        <ele>59.74</ele>
        <time>2023-05-29T09:25:25Z</time>
      </trkpt>
      <trkpt lat="44.32973" lon="0.52939">
        <ele>59.74</ele>
        <time>2023-05-29T09:25:27Z</time>
      </trkpt>
      <trkpt lat="44.32973" lon="0.52924">
        <ele>59.74</ele>
        <time>2023-05-29T09:25:29Z</time>
      </trkpt>
      <trkpt lat="44.32971" lon="0.52908">
        <ele>60.22</ele>
        <time>2023-05-29T09:25:31Z</time>
      </trkpt>
      <trkpt lat="44.3297" lon="0.52895">
        <ele>60.7</ele>
        <time>2023-05-29T09:25:33Z</time>
      </trkpt>
      <trkpt lat="44.3297" lon="0.52879">
        <ele>60.22</ele>
        <time>2023-05-29T09:25:36Z</time>
      </trkpt>
      <trkpt lat="44.32967" lon="0.5286">
        <ele>59.74</ele>
        <time>2023-05-29T09:25:39Z</time>
      </trkpt>
      <trkpt lat="44.32965" lon="0.52844">
        <ele>59.74</ele>
        <time>2023-05-29T09:25:41Z</time>
      </trkpt>
      <trkpt lat="44.32962" lon="0.52829">
        <ele>59.26</ele>
        <time>2023-05-29T09:25:43Z</time>
      </trkpt>
      <trkpt lat="44.32961" lon="0.52812">
        <ele>59.74</ele>
        <time>2023-05-29T09:25:45Z</time>
      </trkpt>
      <trkpt lat="44.3296" lon="0.52795">
        <ele>60.22</ele>
        <time>2023-05-29T09:25:47Z</time>
      </trkpt>
      <trkpt lat="44.32959" lon="0.52778">
        <ele>60.22</ele>
        <time>2023-05-29T09:25:49Z</time>
      </trkpt>
      <trkpt lat="44.32959" lon="0.52762">
        <ele>60.22</ele>
        <time>2023-05-29T09:25:51Z</time>
      </trkpt>
      <trkpt lat="44.32958" lon="0.52746">
        <ele>60.7</ele>
        <time>2023-05-29T09:25:53Z</time>
      </trkpt>
      <trkpt lat="44.32958" lon="0.52732">
        <ele>61.18</ele>
        <time>2023-05-29T09:25:55Z</time>
      </trkpt>
      <trkpt lat="44.3296" lon="0.52717">
        <ele>61.66</ele>
        <time>2023-05-29T09:25:58Z</time>
      </trkpt>
      <trkpt lat="44.32963" lon="0.52704">
        <ele>62.14</ele>
        <time>2023-05-29T09:26:01Z</time>
      </trkpt>
      <trkpt lat="44.32967" lon="0.52688">
        <ele>62.62</ele>
        <time>2023-05-29T09:26:04Z</time>
      </trkpt>
      <trkpt lat="44.32971" lon="0.52674">
        <ele>62.62</ele>
        <time>2023-05-29T09:26:06Z</time>
      </trkpt>
      <trkpt lat="44.32974" lon="0.5266">
        <ele>63.1</ele>
        <time>2023-05-29T09:26:08Z</time>
      </trkpt>
      <trkpt lat="44.32977" lon="0.52645">
        <ele>63.1</ele>
        <time>2023-05-29T09:26:10Z</time>
      </trkpt>
      <trkpt lat="44.3298" lon="0.52629">
        <ele>63.1</ele>
        <time>2023-05-29T09:26:12Z</time>
      </trkpt>
      <trkpt lat="44.32983" lon="0.52614">
        <ele>63.58</ele>
        <time>2023-05-29T09:26:14Z</time>
      </trkpt>
      <trkpt lat="44.32987" lon="0.526">
        <ele>64.07</ele>
        <time>2023-05-29T09:26:16Z</time>
      </trkpt>
      <trkpt lat="44.32992" lon="0.52585">
        <ele>64.55</ele>
        <time>2023-05-29T09:26:18Z</time>
      </trkpt>
      <trkpt lat="44.32997" lon="0.52569">
        <ele>64.55</ele>
        <time>2023-05-29T09:26:20Z</time>
      </trkpt>
      <trkpt lat="44.33" lon="0.52552">
        <ele>65.03</ele>
        <time>2023-05-29T09:26:22Z</time>
      </trkpt>
      <trkpt lat="44.33001" lon="0.52536">
        <ele>65.51</ele>
        <time>2023-05-29T09:26:24Z</time>
      </trkpt>
      <trkpt lat="44.33002" lon="0.5252">
        <ele>65.51</ele>
        <time>2023-05-29T09:26:26Z</time>
      </trkpt>
      <trkpt lat="44.33003" lon="0.52503">
        <ele>65.99</ele>
        <time>2023-05-29T09:26:28Z</time>
      </trkpt>
      <trkpt lat="44.33002" lon="0.52486">
        <ele>65.99</ele>
        <time>2023-05-29T09:26:30Z</time>
      </trkpt>
      <trkpt lat="44.33002" lon="0.52471">
        <ele>66.47</ele>
        <time>2023-05-29T09:26:32Z</time>
      </trkpt>
      <trkpt lat="44.33002" lon="0.52456">
        <ele>66.47</ele>
        <time>2023-05-29T09:26:34Z</time>
      </trkpt>
      <trkpt lat="44.33003" lon="0.5244">
        <ele>66.47</ele>
        <time>2023-05-29T09:26:36Z</time>
      </trkpt>
      <trkpt lat="44.33006" lon="0.52424">
        <ele>66.95</ele>
        <time>2023-05-29T09:26:38Z</time>
      </trkpt>
      <trkpt lat="44.3301" lon="0.52411">
        <ele>66.95</ele>
        <time>2023-05-29T09:26:40Z</time>
      </trkpt>
      <trkpt lat="44.33017" lon="0.52399">
        <ele>66.47</ele>
        <time>2023-05-29T09:26:42Z</time>
      </trkpt>
      <trkpt lat="44.33023" lon="0.52388">
        <ele>66.47</ele>
        <time>2023-05-29T09:26:44Z</time>
      </trkpt>
      <trkpt lat="44.3303" lon="0.52376">
        <ele>66.47</ele>
        <time>2023-05-29T09:26:46Z</time>
      </trkpt>
      <trkpt lat="44.33036" lon="0.52362">
        <ele>66.47</ele>
        <time>2023-05-29T09:26:48Z</time>
      </trkpt>
      <trkpt lat="44.33042" lon="0.52349">
        <ele>66.47</ele>
        <time>2023-05-29T09:26:50Z</time>
      </trkpt>
      <trkpt lat="44.33048" lon="0.52337">
        <ele>66.47</ele>
        <time>2023-05-29T09:26:53Z</time>
      </trkpt>
      <trkpt lat="44.33043" lon="0.52331">
        <ele>65.99</ele>
        <time>2023-05-29T09:27:01Z</time>
      </trkpt>
      <trkpt lat="44.33032" lon="0.52332">
        <ele>65.51</ele>
        <time>2023-05-29T09:27:09Z</time>
      </trkpt>
      <trkpt lat="44.33021" lon="0.52328">
        <ele>65.03</ele>
        <time>2023-05-29T09:27:16Z</time>
      </trkpt>
      <trkpt lat="44.33009" lon="0.52325">
        <ele>65.03</ele>
        <time>2023-05-29T09:27:23Z</time>
      </trkpt>
      <trkpt lat="44.32997" lon="0.52322">
        <ele>65.03</ele>
        <time>2023-05-29T09:27:31Z</time>
      </trkpt>
      <trkpt lat="44.32985" lon="0.52317">
        <ele>65.03</ele>
        <time>2023-05-29T09:27:39Z</time>
      </trkpt>
      <trkpt lat="44.32974" lon="0.52314">
        <ele>65.51</ele>
        <time>2023-05-29T09:27:47Z</time>
      </trkpt>
      <trkpt lat="44.32962" lon="0.52311">
        <ele>65.51</ele>
        <time>2023-05-29T09:27:55Z</time>
      </trkpt>
      <trkpt lat="44.3295" lon="0.52307">
        <ele>65.03</ele>
        <time>2023-05-29T09:28:03Z</time>
      </trkpt>
      <trkpt lat="44.32939" lon="0.52304">
        <ele>65.03</ele>
        <time>2023-05-29T09:28:11Z</time>
      </trkpt>
      <trkpt lat="44.32926" lon="0.523">
        <ele>65.03</ele>
        <time>2023-05-29T09:28:19Z</time>
      </trkpt>
      <trkpt lat="44.32912" lon="0.52295">
        <ele>66.47</ele>
        <time>2023-05-29T09:28:27Z</time>
      </trkpt>
      <trkpt lat="44.32895" lon="0.52289">
        <ele>67.91</ele>
        <time>2023-05-29T09:28:37Z</time>
      </trkpt>
      <trkpt lat="44.32883" lon="0.52284">
        <ele>69.35</ele>
        <time>2023-05-29T09:28:43Z</time>
      </trkpt>
      <trkpt lat="44.32873" lon="0.5228">
        <ele>70.31</ele>
        <time>2023-05-29T09:28:49Z</time>
      </trkpt>
      <trkpt lat="44.32863" lon="0.52277">
        <ele>70.31</ele>
        <time>2023-05-29T09:28:55Z</time>
      </trkpt>
      <trkpt lat="44.32853" lon="0.52274">
        <ele>70.31</ele>
        <time>2023-05-29T09:29:02Z</time>
      </trkpt>
      <trkpt lat="44.32844" lon="0.5227">
        <ele>70.31</ele>
        <time>2023-05-29T09:29:08Z</time>
      </trkpt>
      <trkpt lat="44.32833" lon="0.52267">
        <ele>70.31</ele>
        <time>2023-05-29T09:29:15Z</time>
      </trkpt>
      <trkpt lat="44.32822" lon="0.52264">
        <ele>70.31</ele>
        <time>2023-05-29T09:29:22Z</time>
      </trkpt>
      <trkpt lat="44.32811" lon="0.5226">
        <ele>70.31</ele>
        <time>2023-05-29T09:29:28Z</time>
      </trkpt>
      <trkpt lat="44.32801" lon="0.52256">
        <ele>71.27</ele>
        <time>2023-05-29T09:29:34Z</time>
      </trkpt>
      <trkpt lat="44.32791" lon="0.52253">
        <ele>72.24</ele>
        <time>2023-05-29T09:29:40Z</time>
      </trkpt>
      <trkpt lat="44.32782" lon="0.52249">
        <ele>72.72</ele>
        <time>2023-05-29T09:29:46Z</time>
      </trkpt>
      <trkpt lat="44.32771" lon="0.52245">
        <ele>73.2</ele>
        <time>2023-05-29T09:29:53Z</time>
      </trkpt>
      <trkpt lat="44.32761" lon="0.52241">
        <ele>74.16</ele>
        <time>2023-05-29T09:30:00Z</time>
      </trkpt>
      <trkpt lat="44.32749" lon="0.52237">
        <ele>75.12</ele>
        <time>2023-05-29T09:30:07Z</time>
      </trkpt>
      <trkpt lat="44.32738" lon="0.52234">
        <ele>75.12</ele>
        <time>2023-05-29T09:30:14Z</time>
      </trkpt>
      <trkpt lat="44.32723" lon="0.52227">
        <ele>74.64</ele>
        <time>2023-05-29T09:30:26Z</time>
      </trkpt>
      <trkpt lat="44.32711" lon="0.52222">
        <ele>74.16</ele>
        <time>2023-05-29T09:30:34Z</time>
      </trkpt>
      <trkpt lat="44.327" lon="0.52218">
        <ele>74.64</ele>
        <time>2023-05-29T09:30:41Z</time>
      </trkpt>
      <trkpt lat="44.32688" lon="0.52213">
        <ele>75.6</ele>
        <time>2023-05-29T09:30:49Z</time>
      </trkpt>
      <trkpt lat="44.32677" lon="0.52209">
        <ele>76.56</ele>
        <time>2023-05-29T09:30:58Z</time>
      </trkpt>
      <trkpt lat="44.32666" lon="0.52204">
        <ele>77.04</ele>
        <time>2023-05-29T09:31:07Z</time>
      </trkpt>
      <trkpt lat="44.32653" lon="0.52199">
        <ele>77.52</ele>
        <time>2023-05-29T09:31:15Z</time>
      </trkpt>
      <trkpt lat="44.32639" lon="0.52195">
        <ele>78.48</ele>
        <time>2023-05-29T09:31:23Z</time>
      </trkpt>
      <trkpt lat="44.32627" lon="0.52189">
        <ele>79.93</ele>
        <time>2023-05-29T09:31:31Z</time>
      </trkpt>
      <trkpt lat="44.32613" lon="0.52179">
        <ele>80.41</ele>
        <time>2023-05-29T09:31:38Z</time>
      </trkpt>
      <trkpt lat="44.326" lon="0.52173">
        <ele>81.85</ele>
        <time>2023-05-29T09:31:45Z</time>
      </trkpt>
      <trkpt lat="44.32579" lon="0.52162">
        <ele>86.18</ele>
        <time>2023-05-29T09:32:05Z</time>
      </trkpt>
      <trkpt lat="44.32568" lon="0.52157">
        <ele>86.66</ele>
        <time>2023-05-29T09:32:14Z</time>
      </trkpt>
      <trkpt lat="44.3255" lon="0.52151">
        <ele>86.66</ele>
        <time>2023-05-29T09:32:26Z</time>
      </trkpt>
      <trkpt lat="44.32535" lon="0.52145">
        <ele>86.18</ele>
        <time>2023-05-29T09:32:34Z</time>
      </trkpt>
      <trkpt lat="44.32523" lon="0.52141">
        <ele>87.14</ele>
        <time>2023-05-29T09:32:43Z</time>
      </trkpt>
      <trkpt lat="44.3251" lon="0.52135">
        <ele>87.62</ele>
        <time>2023-05-29T09:32:51Z</time>
      </trkpt>
      <trkpt lat="44.32499" lon="0.5213">
        <ele>88.58</ele>
        <time>2023-05-29T09:32:58Z</time>
      </trkpt>
      <trkpt lat="44.32488" lon="0.52123">
        <ele>88.58</ele>
        <time>2023-05-29T09:33:05Z</time>
      </trkpt>
      <trkpt lat="44.32477" lon="0.52117">
        <ele>89.54</ele>
        <time>2023-05-29T09:33:13Z</time>
      </trkpt>
      <trkpt lat="44.32464" lon="0.52109">
        <ele>90.02</ele>
        <time>2023-05-29T09:33:20Z</time>
      </trkpt>
      <trkpt lat="44.32453" lon="0.52103">
        <ele>91.46</ele>
        <time>2023-05-29T09:33:28Z</time>
      </trkpt>
      <trkpt lat="44.32443" lon="0.52098">
        <ele>91.46</ele>
        <time>2023-05-29T09:33:35Z</time>
      </trkpt>
      <trkpt lat="44.32426" lon="0.52088">
        <ele>92.9</ele>
        <time>2023-05-29T09:33:46Z</time>
      </trkpt>
      <trkpt lat="44.32413" lon="0.52082">
        <ele>92.9</ele>
        <time>2023-05-29T09:33:55Z</time>
      </trkpt>
      <trkpt lat="44.32402" lon="0.52077">
        <ele>92.9</ele>
        <time>2023-05-29T09:34:03Z</time>
      </trkpt>
      <trkpt lat="44.3239" lon="0.5207">
        <ele>93.39</ele>
        <time>2023-05-29T09:34:11Z</time>
      </trkpt>
      <trkpt lat="44.32377" lon="0.52064">
        <ele>93.87</ele>
        <time>2023-05-29T09:34:20Z</time>
      </trkpt>
      <trkpt lat="44.32364" lon="0.52058">
        <ele>95.31</ele>
        <time>2023-05-29T09:34:28Z</time>
      </trkpt>
      <trkpt lat="44.32352" lon="0.5205">
        <ele>95.79</ele>
        <time>2023-05-29T09:34:37Z</time>
      </trkpt>
      <trkpt lat="44.32337" lon="0.52043">
        <ele>97.23</ele>
        <time>2023-05-29T09:34:48Z</time>
      </trkpt>
      <trkpt lat="44.32326" lon="0.5204">
        <ele>98.67</ele>
        <time>2023-05-29T09:34:56Z</time>
      </trkpt>
      <trkpt lat="44.32323" lon="0.52054">
        <ele>99.15</ele>
        <time>2023-05-29T09:35:03Z</time>
      </trkpt>
      <trkpt lat="44.32322" lon="0.52069">
        <ele>99.15</ele>
        <time>2023-05-29T09:35:11Z</time>
      </trkpt>
      <trkpt lat="44.3232" lon="0.52084">
        <ele>99.15</ele>
        <time>2023-05-29T09:35:18Z</time>
      </trkpt>
      <trkpt lat="44.32317" lon="0.52099">
        <ele>99.63</ele>
        <time>2023-05-29T09:35:24Z</time>
      </trkpt>
      <trkpt lat="44.32314" lon="0.52112">
        <ele>100.11</ele>
        <time>2023-05-29T09:35:30Z</time>
      </trkpt>
      <trkpt lat="44.3231" lon="0.52124">
        <ele>100.11</ele>
        <time>2023-05-29T09:35:36Z</time>
      </trkpt>
      <trkpt lat="44.32307" lon="0.52139">
        <ele>99.63</ele>
        <time>2023-05-29T09:35:43Z</time>
      </trkpt>
      <trkpt lat="44.32305" lon="0.52152">
        <ele>100.11</ele>
        <time>2023-05-29T09:35:50Z</time>
      </trkpt>
      <trkpt lat="44.323" lon="0.52167">
        <ele>100.11</ele>
        <time>2023-05-29T09:35:57Z</time>
      </trkpt>
      <trkpt lat="44.32296" lon="0.5218">
        <ele>100.11</ele>
        <time>2023-05-29T09:36:03Z</time>
      </trkpt>
      <trkpt lat="44.32293" lon="0.52195">
        <ele>100.11</ele>
        <time>2023-05-29T09:36:09Z</time>
      </trkpt>
      <trkpt lat="44.32289" lon="0.5221">
        <ele>100.11</ele>
        <time>2023-05-29T09:36:16Z</time>
      </trkpt>
      <trkpt lat="44.32285" lon="0.52225">
        <ele>100.11</ele>
        <time>2023-05-29T09:36:22Z</time>
      </trkpt>
      <trkpt lat="44.32282" lon="0.52238">
        <ele>99.63</ele>
        <time>2023-05-29T09:36:28Z</time>
      </trkpt>
      <trkpt lat="44.32278" lon="0.52251">
        <ele>98.67</ele>
        <time>2023-05-29T09:36:34Z</time>
      </trkpt>
      <trkpt lat="44.32274" lon="0.52265">
        <ele>98.67</ele>
        <time>2023-05-29T09:36:40Z</time>
      </trkpt>
      <trkpt lat="44.32272" lon="0.52279">
        <ele>98.67</ele>
        <time>2023-05-29T09:36:46Z</time>
      </trkpt>
      <trkpt lat="44.32268" lon="0.52293">
        <ele>98.67</ele>
        <time>2023-05-29T09:36:52Z</time>
      </trkpt>
      <trkpt lat="44.32265" lon="0.52307">
        <ele>98.67</ele>
        <time>2023-05-29T09:36:58Z</time>
      </trkpt>
      <trkpt lat="44.32265" lon="0.52321">
        <ele>98.19</ele>
        <time>2023-05-29T09:37:05Z</time>
      </trkpt>
      <trkpt lat="44.32262" lon="0.52335">
        <ele>97.71</ele>
        <time>2023-05-29T09:37:11Z</time>
      </trkpt>
      <trkpt lat="44.32258" lon="0.52349">
        <ele>97.71</ele>
        <time>2023-05-29T09:37:17Z</time>
      </trkpt>
      <trkpt lat="44.32255" lon="0.52362">
        <ele>97.71</ele>
        <time>2023-05-29T09:37:23Z</time>
      </trkpt>
      <trkpt lat="44.32253" lon="0.52375">
        <ele>97.71</ele>
        <time>2023-05-29T09:37:29Z</time>
      </trkpt>
      <trkpt lat="44.32249" lon="0.52388">
        <ele>97.23</ele>
        <time>2023-05-29T09:37:35Z</time>
      </trkpt>
      <trkpt lat="44.32246" lon="0.52402">
        <ele>97.71</ele>
        <time>2023-05-29T09:37:41Z</time>
      </trkpt>
      <trkpt lat="44.32242" lon="0.52415">
        <ele>98.19</ele>
        <time>2023-05-29T09:37:47Z</time>
      </trkpt>
      <trkpt lat="44.32239" lon="0.52429">
        <ele>97.71</ele>
        <time>2023-05-29T09:37:53Z</time>
      </trkpt>
      <trkpt lat="44.32234" lon="0.52441">
        <ele>97.71</ele>
        <time>2023-05-29T09:37:59Z</time>
      </trkpt>
      <trkpt lat="44.32233" lon="0.52455">
        <ele>96.75</ele>
        <time>2023-05-29T09:38:05Z</time>
      </trkpt>
      <trkpt lat="44.32233" lon="0.52469">
        <ele>96.27</ele>
        <time>2023-05-29T09:38:12Z</time>
      </trkpt>
      <trkpt lat="44.32231" lon="0.52483">
        <ele>96.75</ele>
        <time>2023-05-29T09:38:18Z</time>
      </trkpt>
      <trkpt lat="44.32229" lon="0.52497">
        <ele>97.71</ele>
        <time>2023-05-29T09:38:24Z</time>
      </trkpt>
      <trkpt lat="44.32226" lon="0.52511">
        <ele>98.19</ele>
        <time>2023-05-29T09:38:30Z</time>
      </trkpt>
      <trkpt lat="44.32224" lon="0.52525">
        <ele>98.67</ele>
        <time>2023-05-29T09:38:36Z</time>
      </trkpt>
      <trkpt lat="44.32223" lon="0.52539">
        <ele>99.15</ele>
        <time>2023-05-29T09:38:42Z</time>
      </trkpt>
      <trkpt lat="44.32221" lon="0.52554">
        <ele>100.6</ele>
        <time>2023-05-29T09:38:49Z</time>
      </trkpt>
      <trkpt lat="44.3222" lon="0.52568">
        <ele>102.04</ele>
        <time>2023-05-29T09:38:55Z</time>
      </trkpt>
      <trkpt lat="44.32217" lon="0.5258">
        <ele>103.48</ele>
        <time>2023-05-29T09:39:01Z</time>
      </trkpt>
      <trkpt lat="44.3222" lon="0.52594">
        <ele>104.92</ele>
        <time>2023-05-29T09:39:08Z</time>
      </trkpt>
      <trkpt lat="44.3222" lon="0.52606">
        <ele>105.88</ele>
        <time>2023-05-29T09:39:16Z</time>
      </trkpt>
      <trkpt lat="44.32211" lon="0.52601">
        <ele>105.4</ele>
        <time>2023-05-29T09:39:22Z</time>
      </trkpt>
      <trkpt lat="44.32201" lon="0.52594">
        <ele>105.4</ele>
        <time>2023-05-29T09:39:28Z</time>
      </trkpt>
      <trkpt lat="44.32193" lon="0.52587">
        <ele>104.92</ele>
        <time>2023-05-29T09:39:34Z</time>
      </trkpt>
      <trkpt lat="44.32184" lon="0.52579">
        <ele>103.48</ele>
        <time>2023-05-29T09:39:41Z</time>
      </trkpt>
      <trkpt lat="44.32173" lon="0.52572">
        <ele>103</ele>
        <time>2023-05-29T09:39:49Z</time>
      </trkpt>
      <trkpt lat="44.32163" lon="0.52563">
        <ele>103.48</ele>
        <time>2023-05-29T09:39:56Z</time>
      </trkpt>
      <trkpt lat="44.32152" lon="0.52553">
        <ele>104.44</ele>
        <time>2023-05-29T09:40:03Z</time>
      </trkpt>
      <trkpt lat="44.32143" lon="0.52545">
        <ele>104.92</ele>
        <time>2023-05-29T09:40:10Z</time>
      </trkpt>
      <trkpt lat="44.32133" lon="0.52537">
        <ele>105.4</ele>
        <time>2023-05-29T09:40:17Z</time>
      </trkpt>
      <trkpt lat="44.32124" lon="0.52528">
        <ele>105.88</ele>
        <time>2023-05-29T09:40:24Z</time>
      </trkpt>
      <trkpt lat="44.32115" lon="0.52521">
        <ele>105.88</ele>
        <time>2023-05-29T09:40:31Z</time>
      </trkpt>
      <trkpt lat="44.32106" lon="0.52513">
        <ele>106.36</ele>
        <time>2023-05-29T09:40:38Z</time>
      </trkpt>
      <trkpt lat="44.32097" lon="0.52505">
        <ele>108.29</ele>
        <time>2023-05-29T09:40:45Z</time>
      </trkpt>
      <trkpt lat="44.32087" lon="0.52496">
        <ele>109.73</ele>
        <time>2023-05-29T09:40:52Z</time>
      </trkpt>
      <trkpt lat="44.32077" lon="0.52487">
        <ele>111.17</ele>
        <time>2023-05-29T09:41:00Z</time>
      </trkpt>
      <trkpt lat="44.3207" lon="0.52477">
        <ele>111.17</ele>
        <time>2023-05-29T09:41:06Z</time>
      </trkpt>
      <trkpt lat="44.32062" lon="0.52468">
        <ele>111.65</ele>
        <time>2023-05-29T09:41:14Z</time>
      </trkpt>
      <trkpt lat="44.32051" lon="0.52456">
        <ele>112.13</ele>
        <time>2023-05-29T09:41:26Z</time>
      </trkpt>
      <trkpt lat="44.32036" lon="0.52435">
        <ele>112.61</ele>
        <time>2023-05-29T09:41:38Z</time>
      </trkpt>
      <trkpt lat="44.32028" lon="0.52423">
        <ele>112.61</ele>
        <time>2023-05-29T09:41:47Z</time>
      </trkpt>
      <trkpt lat="44.3202" lon="0.52406">
        <ele>112.61</ele>
        <time>2023-05-29T09:41:58Z</time>
      </trkpt>
      <trkpt lat="44.32009" lon="0.52387">
        <ele>112.61</ele>
        <time>2023-05-29T09:42:09Z</time>
      </trkpt>
      <trkpt lat="44.31998" lon="0.52369">
        <ele>113.57</ele>
        <time>2023-05-29T09:42:21Z</time>
      </trkpt>
      <trkpt lat="44.31992" lon="0.52354">
        <ele>113.57</ele>
        <time>2023-05-29T09:42:30Z</time>
      </trkpt>
      <trkpt lat="44.31981" lon="0.52337">
        <ele>116.94</ele>
        <time>2023-05-29T09:42:38Z</time>
      </trkpt>
      <trkpt lat="44.3196" lon="0.523">
        <ele>127.51</ele>
        <time>2023-05-29T09:43:00Z</time>
      </trkpt>
      <trkpt lat="44.31959" lon="0.52279">
        <ele>127.99</ele>
        <time>2023-05-29T09:43:10Z</time>
      </trkpt>
      <trkpt lat="44.31954" lon="0.52214">
        <ele>128.95</ele>
        <time>2023-05-29T09:43:43Z</time>
      </trkpt>
      <trkpt lat="44.31945" lon="0.52172">
        <ele>129.92</ele>
        <time>2023-05-29T09:44:08Z</time>
      </trkpt>
      <trkpt lat="44.3194" lon="0.52154">
        <ele>132.8</ele>
        <time>2023-05-29T09:44:15Z</time>
      </trkpt>
      <trkpt lat="44.31936" lon="0.52138">
        <ele>135.2</ele>
        <time>2023-05-29T09:44:23Z</time>
      </trkpt>
      <trkpt lat="44.31931" lon="0.52121">
        <ele>136.64</ele>
        <time>2023-05-29T09:44:31Z</time>
      </trkpt>
      <trkpt lat="44.31926" lon="0.52104">
        <ele>138.57</ele>
        <time>2023-05-29T09:44:39Z</time>
      </trkpt>
      <trkpt lat="44.31923" lon="0.5209">
        <ele>137.61</ele>
        <time>2023-05-29T09:44:46Z</time>
      </trkpt>
      <trkpt lat="44.3192" lon="0.52078">
        <ele>137.13</ele>
        <time>2023-05-29T09:44:54Z</time>
      </trkpt>
      <trkpt lat="44.31918" lon="0.5206">
        <ele>139.53</ele>
        <time>2023-05-29T09:45:04Z</time>
      </trkpt>
      <trkpt lat="44.31923" lon="0.52046">
        <ele>143.85</ele>
        <time>2023-05-29T09:45:12Z</time>
      </trkpt>
      <trkpt lat="44.31918" lon="0.52042">
        <ele>146.74</ele>
        <time>2023-05-29T09:45:20Z</time>
      </trkpt>
      <trkpt lat="44.31909" lon="0.52039">
        <ele>149.62</ele>
        <time>2023-05-29T09:45:27Z</time>
      </trkpt>
      <trkpt lat="44.31904" lon="0.52028">
        <ele>152.51</ele>
        <time>2023-05-29T09:45:35Z</time>
      </trkpt>
      <trkpt lat="44.31902" lon="0.52015">
        <ele>154.43</ele>
        <time>2023-05-29T09:45:43Z</time>
      </trkpt>
      <trkpt lat="44.319" lon="0.52001">
        <ele>156.35</ele>
        <time>2023-05-29T09:45:52Z</time>
      </trkpt>
      <trkpt lat="44.31895" lon="0.51988">
        <ele>158.27</ele>
        <time>2023-05-29T09:46:01Z</time>
      </trkpt>
      <trkpt lat="44.31892" lon="0.51973">
        <ele>160.2</ele>
        <time>2023-05-29T09:46:10Z</time>
      </trkpt>
      <trkpt lat="44.31892" lon="0.51957">
        <ele>161.16</ele>
        <time>2023-05-29T09:46:19Z</time>
      </trkpt>
      <trkpt lat="44.31893" lon="0.51941">
        <ele>162.12</ele>
        <time>2023-05-29T09:46:28Z</time>
      </trkpt>
      <trkpt lat="44.31891" lon="0.51925">
        <ele>163.08</ele>
        <time>2023-05-29T09:46:36Z</time>
      </trkpt>
      <trkpt lat="44.31887" lon="0.51909">
        <ele>164.04</ele>
        <time>2023-05-29T09:46:45Z</time>
      </trkpt>
      <trkpt lat="44.31879" lon="0.51898">
        <ele>165</ele>
        <time>2023-05-29T09:46:53Z</time>
      </trkpt>
      <trkpt lat="44.31869" lon="0.51892">
        <ele>166.45</ele>
        <time>2023-05-29T09:47:00Z</time>
      </trkpt>
      <trkpt lat="44.31858" lon="0.51887">
        <ele>166.93</ele>
        <time>2023-05-29T09:47:07Z</time>
      </trkpt>
      <trkpt lat="44.31849" lon="0.5188">
        <ele>167.89</ele>
        <time>2023-05-29T09:47:13Z</time>
      </trkpt>
      <trkpt lat="44.3184" lon="0.51876">
        <ele>168.37</ele>
        <time>2023-05-29T09:47:19Z</time>
      </trkpt>
      <trkpt lat="44.31831" lon="0.51871">
        <ele>168.85</ele>
        <time>2023-05-29T09:47:25Z</time>
      </trkpt>
      <trkpt lat="44.31822" lon="0.51866">
        <ele>169.33</ele>
        <time>2023-05-29T09:47:31Z</time>
      </trkpt>
      <trkpt lat="44.31812" lon="0.51861">
        <ele>169.81</ele>
        <time>2023-05-29T09:47:37Z</time>
      </trkpt>
      <trkpt lat="44.31802" lon="0.51856">
        <ele>169.81</ele>
        <time>2023-05-29T09:47:44Z</time>
      </trkpt>
      <trkpt lat="44.31793" lon="0.51852">
        <ele>170.77</ele>
        <time>2023-05-29T09:47:50Z</time>
      </trkpt>
      <trkpt lat="44.31781" lon="0.51849">
        <ele>171.25</ele>
        <time>2023-05-29T09:47:57Z</time>
      </trkpt>
      <trkpt lat="44.31772" lon="0.51847">
        <ele>171.73</ele>
        <time>2023-05-29T09:48:03Z</time>
      </trkpt>
      <trkpt lat="44.31761" lon="0.51845">
        <ele>171.73</ele>
        <time>2023-05-29T09:48:10Z</time>
      </trkpt>
      <trkpt lat="44.31751" lon="0.51844">
        <ele>172.21</ele>
        <time>2023-05-29T09:48:17Z</time>
      </trkpt>
      <trkpt lat="44.31742" lon="0.51843">
        <ele>172.69</ele>
        <time>2023-05-29T09:48:23Z</time>
      </trkpt>
      <trkpt lat="44.31731" lon="0.51842">
        <ele>172.69</ele>
        <time>2023-05-29T09:48:30Z</time>
      </trkpt>
      <trkpt lat="44.31722" lon="0.51841">
        <ele>172.69</ele>
        <time>2023-05-29T09:48:36Z</time>
      </trkpt>
      <trkpt lat="44.31713" lon="0.51839">
        <ele>172.69</ele>
        <time>2023-05-29T09:48:42Z</time>
      </trkpt>
      <trkpt lat="44.31703" lon="0.51839">
        <ele>173.17</ele>
        <time>2023-05-29T09:48:48Z</time>
      </trkpt>
      <trkpt lat="44.31694" lon="0.51844">
        <ele>174.14</ele>
        <time>2023-05-29T09:48:54Z</time>
      </trkpt>
      <trkpt lat="44.31684" lon="0.51848">
        <ele>173.66</ele>
        <time>2023-05-29T09:49:00Z</time>
      </trkpt>
      <trkpt lat="44.31674" lon="0.51854">
        <ele>173.17</ele>
        <time>2023-05-29T09:49:05Z</time>
      </trkpt>
      <trkpt lat="44.31663" lon="0.51861">
        <ele>172.69</ele>
        <time>2023-05-29T09:49:08Z</time>
      </trkpt>
      <trkpt lat="44.31653" lon="0.51866">
        <ele>172.21</ele>
        <time>2023-05-29T09:49:10Z</time>
      </trkpt>
      <trkpt lat="44.31643" lon="0.51872">
        <ele>172.21</ele>
        <time>2023-05-29T09:49:12Z</time>
      </trkpt>
      <trkpt lat="44.31633" lon="0.51877">
        <ele>172.21</ele>
        <time>2023-05-29T09:49:14Z</time>
      </trkpt>
      <trkpt lat="44.31623" lon="0.51883">
        <ele>172.21</ele>
        <time>2023-05-29T09:49:16Z</time>
      </trkpt>
      <trkpt lat="44.31612" lon="0.5189">
        <ele>172.21</ele>
        <time>2023-05-29T09:49:18Z</time>
      </trkpt>
      <trkpt lat="44.31601" lon="0.51897">
        <ele>172.21</ele>
        <time>2023-05-29T09:49:20Z</time>
      </trkpt>
      <trkpt lat="44.31591" lon="0.51905">
        <ele>172.69</ele>
        <time>2023-05-29T09:49:22Z</time>
      </trkpt>
      <trkpt lat="44.31581" lon="0.51914">
        <ele>172.69</ele>
        <time>2023-05-29T09:49:24Z</time>
      </trkpt>
      <trkpt lat="44.31572" lon="0.51923">
        <ele>173.17</ele>
        <time>2023-05-29T09:49:26Z</time>
      </trkpt>
      <trkpt lat="44.31564" lon="0.51934">
        <ele>173.66</ele>
        <time>2023-05-29T09:49:28Z</time>
      </trkpt>
      <trkpt lat="44.31556" lon="0.51947">
        <ele>173.66</ele>
        <time>2023-05-29T09:49:30Z</time>
      </trkpt>
      <trkpt lat="44.31549" lon="0.51961">
        <ele>174.14</ele>
        <time>2023-05-29T09:49:32Z</time>
      </trkpt>
      <trkpt lat="44.31544" lon="0.51977">
        <ele>174.62</ele>
        <time>2023-05-29T09:49:34Z</time>
      </trkpt>
      <trkpt lat="44.3154" lon="0.51993">
        <ele>174.62</ele>
        <time>2023-05-29T09:49:36Z</time>
      </trkpt>
      <trkpt lat="44.31536" lon="0.52008">
        <ele>175.1</ele>
        <time>2023-05-29T09:49:38Z</time>
      </trkpt>
      <trkpt lat="44.31529" lon="0.52019">
        <ele>175.58</ele>
        <time>2023-05-29T09:49:40Z</time>
      </trkpt>
      <trkpt lat="44.31519" lon="0.52028">
        <ele>176.54</ele>
        <time>2023-05-29T09:49:42Z</time>
      </trkpt>
      <trkpt lat="44.31509" lon="0.52031">
        <ele>177.02</ele>
        <time>2023-05-29T09:49:44Z</time>
      </trkpt>
      <trkpt lat="44.31497" lon="0.52032">
        <ele>177.5</ele>
        <time>2023-05-29T09:49:47Z</time>
      </trkpt>
      <trkpt lat="44.31485" lon="0.52033">
        <ele>177.5</ele>
        <time>2023-05-29T09:49:51Z</time>
      </trkpt>
      <trkpt lat="44.31473" lon="0.52035">
        <ele>178.94</ele>
        <time>2023-05-29T09:49:57Z</time>
      </trkpt>
      <trkpt lat="44.31462" lon="0.52035">
        <ele>180.87</ele>
        <time>2023-05-29T09:50:04Z</time>
      </trkpt>
      <trkpt lat="44.31451" lon="0.52037">
        <ele>182.79</ele>
        <time>2023-05-29T09:50:11Z</time>
      </trkpt>
      <trkpt lat="44.31441" lon="0.52043">
        <ele>182.79</ele>
        <time>2023-05-29T09:50:17Z</time>
      </trkpt>
      <trkpt lat="44.31432" lon="0.5205">
        <ele>182.31</ele>
        <time>2023-05-29T09:50:24Z</time>
      </trkpt>
      <trkpt lat="44.3142" lon="0.52058">
        <ele>180.87</ele>
        <time>2023-05-29T09:50:31Z</time>
      </trkpt>
      <trkpt lat="44.31409" lon="0.5206">
        <ele>179.42</ele>
        <time>2023-05-29T09:50:38Z</time>
      </trkpt>
      <trkpt lat="44.31397" lon="0.52055">
        <ele>178.46</ele>
        <time>2023-05-29T09:50:45Z</time>
      </trkpt>
      <trkpt lat="44.31387" lon="0.52048">
        <ele>177.5</ele>
        <time>2023-05-29T09:50:51Z</time>
      </trkpt>
      <trkpt lat="44.31378" lon="0.52042">
        <ele>177.02</ele>
        <time>2023-05-29T09:50:57Z</time>
      </trkpt>
      <trkpt lat="44.31368" lon="0.52037">
        <ele>177.02</ele>
        <time>2023-05-29T09:51:03Z</time>
      </trkpt>
      <trkpt lat="44.31359" lon="0.52031">
        <ele>176.06</ele>
        <time>2023-05-29T09:51:09Z</time>
      </trkpt>
      <trkpt lat="44.31351" lon="0.52025">
        <ele>175.58</ele>
        <time>2023-05-29T09:51:15Z</time>
      </trkpt>
      <trkpt lat="44.31342" lon="0.52018">
        <ele>175.58</ele>
        <time>2023-05-29T09:51:21Z</time>
      </trkpt>
      <trkpt lat="44.31333" lon="0.52008">
        <ele>175.1</ele>
        <time>2023-05-29T09:51:29Z</time>
      </trkpt>
      <trkpt lat="44.3133" lon="0.51994">
        <ele>174.62</ele>
        <time>2023-05-29T09:51:37Z</time>
      </trkpt>
      <trkpt lat="44.31327" lon="0.51973">
        <ele>175.1</ele>
        <time>2023-05-29T09:51:46Z</time>
      </trkpt>
      <trkpt lat="44.31321" lon="0.51956">
        <ele>176.06</ele>
        <time>2023-05-29T09:51:53Z</time>
      </trkpt>
      <trkpt lat="44.31316" lon="0.51943">
        <ele>177.5</ele>
        <time>2023-05-29T09:52:00Z</time>
      </trkpt>
      <trkpt lat="44.31312" lon="0.51931">
        <ele>177.02</ele>
        <time>2023-05-29T09:52:07Z</time>
      </trkpt>
      <trkpt lat="44.31307" lon="0.51917">
        <ele>177.02</ele>
        <time>2023-05-29T09:52:14Z</time>
      </trkpt>
      <trkpt lat="44.31303" lon="0.51904">
        <ele>177.02</ele>
        <time>2023-05-29T09:52:21Z</time>
      </trkpt>
      <trkpt lat="44.313" lon="0.51889">
        <ele>177.02</ele>
        <time>2023-05-29T09:52:28Z</time>
      </trkpt>
      <trkpt lat="44.31298" lon="0.51875">
        <ele>177.02</ele>
        <time>2023-05-29T09:52:35Z</time>
      </trkpt>
      <trkpt lat="44.31296" lon="0.51859">
        <ele>176.54</ele>
        <time>2023-05-29T09:52:42Z</time>
      </trkpt>
      <trkpt lat="44.31296" lon="0.51844">
        <ele>176.06</ele>
        <time>2023-05-29T09:52:49Z</time>
      </trkpt>
      <trkpt lat="44.313" lon="0.51831">
        <ele>175.1</ele>
        <time>2023-05-29T09:52:56Z</time>
      </trkpt>
      <trkpt lat="44.31307" lon="0.51817">
        <ele>175.58</ele>
        <time>2023-05-29T09:53:03Z</time>
      </trkpt>
      <trkpt lat="44.31316" lon="0.51808">
        <ele>178.46</ele>
        <time>2023-05-29T09:53:10Z</time>
      </trkpt>
      <trkpt lat="44.31324" lon="0.51798">
        <ele>178.94</ele>
        <time>2023-05-29T09:53:16Z</time>
      </trkpt>
      <trkpt lat="44.3133" lon="0.51787">
        <ele>179.9</ele>
        <time>2023-05-29T09:53:22Z</time>
      </trkpt>
      <trkpt lat="44.31335" lon="0.51775">
        <ele>180.38</ele>
        <time>2023-05-29T09:53:28Z</time>
      </trkpt>
      <trkpt lat="44.31339" lon="0.51762">
        <ele>179.9</ele>
        <time>2023-05-29T09:53:34Z</time>
      </trkpt>
      <trkpt lat="44.31343" lon="0.51749">
        <ele>178.94</ele>
        <time>2023-05-29T09:53:40Z</time>
      </trkpt>
      <trkpt lat="44.31346" lon="0.51737">
        <ele>178.46</ele>
        <time>2023-05-29T09:53:46Z</time>
      </trkpt>
      <trkpt lat="44.3135" lon="0.51724">
        <ele>177.98</ele>
        <time>2023-05-29T09:53:52Z</time>
      </trkpt>
      <trkpt lat="44.31352" lon="0.51711">
        <ele>177.98</ele>
        <time>2023-05-29T09:53:58Z</time>
      </trkpt>
      <trkpt lat="44.31347" lon="0.51701">
        <ele>177.98</ele>
        <time>2023-05-29T09:54:04Z</time>
      </trkpt>
      <trkpt lat="44.31338" lon="0.51695">
        <ele>177.98</ele>
        <time>2023-05-29T09:54:10Z</time>
      </trkpt>
      <trkpt lat="44.31329" lon="0.5169">
        <ele>177.98</ele>
        <time>2023-05-29T09:54:16Z</time>
      </trkpt>
      <trkpt lat="44.3132" lon="0.51684">
        <ele>177.98</ele>
        <time>2023-05-29T09:54:22Z</time>
      </trkpt>
      <trkpt lat="44.31312" lon="0.51678">
        <ele>178.46</ele>
        <time>2023-05-29T09:54:28Z</time>
      </trkpt>
      <trkpt lat="44.31304" lon="0.51671">
        <ele>178.46</ele>
        <time>2023-05-29T09:54:34Z</time>
      </trkpt>
      <trkpt lat="44.31295" lon="0.51663">
        <ele>178.94</ele>
        <time>2023-05-29T09:54:40Z</time>
      </trkpt>
      <trkpt lat="44.31286" lon="0.51656">
        <ele>178.94</ele>
        <time>2023-05-29T09:54:46Z</time>
      </trkpt>
      <trkpt lat="44.31279" lon="0.51648">
        <ele>180.38</ele>
        <time>2023-05-29T09:54:52Z</time>
      </trkpt>
      <trkpt lat="44.31271" lon="0.5164">
        <ele>181.35</ele>
        <time>2023-05-29T09:54:58Z</time>
      </trkpt>
      <trkpt lat="44.31263" lon="0.51631">
        <ele>181.35</ele>
        <time>2023-05-29T09:55:04Z</time>
      </trkpt>
      <trkpt lat="44.31256" lon="0.51621">
        <ele>181.35</ele>
        <time>2023-05-29T09:55:11Z</time>
      </trkpt>
      <trkpt lat="44.3125" lon="0.5161">
        <ele>180.87</ele>
        <time>2023-05-29T09:55:17Z</time>
      </trkpt>
      <trkpt lat="44.31244" lon="0.516">
        <ele>180.38</ele>
        <time>2023-05-29T09:55:23Z</time>
      </trkpt>
      <trkpt lat="44.31239" lon="0.51587">
        <ele>180.38</ele>
        <time>2023-05-29T09:55:29Z</time>
      </trkpt>
      <trkpt lat="44.31234" lon="0.51575">
        <ele>180.38</ele>
        <time>2023-05-29T09:55:35Z</time>
      </trkpt>
      <trkpt lat="44.31229" lon="0.51563">
        <ele>180.38</ele>
        <time>2023-05-29T09:55:41Z</time>
      </trkpt>
      <trkpt lat="44.31225" lon="0.51549">
        <ele>179.9</ele>
        <time>2023-05-29T09:55:47Z</time>
      </trkpt>
      <trkpt lat="44.31221" lon="0.51536">
        <ele>180.38</ele>
        <time>2023-05-29T09:55:53Z</time>
      </trkpt>
      <trkpt lat="44.31214" lon="0.51526">
        <ele>180.38</ele>
        <time>2023-05-29T09:56:00Z</time>
      </trkpt>
      <trkpt lat="44.31206" lon="0.51518">
        <ele>180.38</ele>
        <time>2023-05-29T09:56:07Z</time>
      </trkpt>
      <trkpt lat="44.31199" lon="0.5151">
        <ele>179.9</ele>
        <time>2023-05-29T09:56:14Z</time>
      </trkpt>
      <trkpt lat="44.31191" lon="0.51497">
        <ele>178.46</ele>
        <time>2023-05-29T09:56:22Z</time>
      </trkpt>
      <trkpt lat="44.31185" lon="0.51483">
        <ele>178.46</ele>
        <time>2023-05-29T09:56:31Z</time>
      </trkpt>
      <trkpt lat="44.31178" lon="0.5147">
        <ele>178.94</ele>
        <time>2023-05-29T09:56:39Z</time>
      </trkpt>
      <trkpt lat="44.31167" lon="0.51453">
        <ele>178.94</ele>
        <time>2023-05-29T09:56:51Z</time>
      </trkpt>
      <trkpt lat="44.31155" lon="0.51437">
        <ele>178.94</ele>
        <time>2023-05-29T09:57:01Z</time>
      </trkpt>
      <trkpt lat="44.31143" lon="0.51427">
        <ele>179.9</ele>
        <time>2023-05-29T09:57:10Z</time>
      </trkpt>
      <trkpt lat="44.31129" lon="0.51411">
        <ele>181.83</ele>
        <time>2023-05-29T09:57:22Z</time>
      </trkpt>
      <trkpt lat="44.31114" lon="0.51392">
        <ele>181.35</ele>
        <time>2023-05-29T09:57:38Z</time>
      </trkpt>
      <trkpt lat="44.31099" lon="0.51375">
        <ele>183.75</ele>
        <time>2023-05-29T09:57:49Z</time>
      </trkpt>
      <trkpt lat="44.31089" lon="0.51363">
        <ele>185.19</ele>
        <time>2023-05-29T09:57:59Z</time>
      </trkpt>
      <trkpt lat="44.31081" lon="0.51349">
        <ele>186.15</ele>
        <time>2023-05-29T09:58:08Z</time>
      </trkpt>
      <trkpt lat="44.31068" lon="0.51324">
        <ele>190.48</ele>
        <time>2023-05-29T09:58:18Z</time>
      </trkpt>
      <trkpt lat="44.31057" lon="0.51304">
        <ele>191.92</ele>
        <time>2023-05-29T09:58:28Z</time>
      </trkpt>
      <trkpt lat="44.31044" lon="0.51286">
        <ele>192.4</ele>
        <time>2023-05-29T09:58:40Z</time>
      </trkpt>
      <trkpt lat="44.31034" lon="0.51276">
        <ele>190.96</ele>
        <time>2023-05-29T09:58:48Z</time>
      </trkpt>
      <trkpt lat="44.31023" lon="0.51269">
        <ele>188.08</ele>
        <time>2023-05-29T09:58:59Z</time>
      </trkpt>
      <trkpt lat="44.31011" lon="0.51259">
        <ele>185.67</ele>
        <time>2023-05-29T09:59:07Z</time>
      </trkpt>
      <trkpt lat="44.31001" lon="0.51248">
        <ele>183.27</ele>
        <time>2023-05-29T09:59:15Z</time>
      </trkpt>
      <trkpt lat="44.30989" lon="0.5124">
        <ele>181.35</ele>
        <time>2023-05-29T09:59:23Z</time>
      </trkpt>
      <trkpt lat="44.30974" lon="0.51229">
        <ele>180.38</ele>
        <time>2023-05-29T09:59:32Z</time>
      </trkpt>
      <trkpt lat="44.30962" lon="0.5121">
        <ele>178.94</ele>
        <time>2023-05-29T09:59:42Z</time>
      </trkpt>
      <trkpt lat="44.30943" lon="0.51163">
        <ele>173.17</ele>
        <time>2023-05-29T10:00:06Z</time>
      </trkpt>
      <trkpt lat="44.3093" lon="0.51143">
        <ele>170.29</ele>
        <time>2023-05-29T10:00:17Z</time>
      </trkpt>
      <trkpt lat="44.30911" lon="0.51118">
        <ele>168.37</ele>
        <time>2023-05-29T10:00:30Z</time>
      </trkpt>
      <trkpt lat="44.30899" lon="0.51104">
        <ele>166.93</ele>
        <time>2023-05-29T10:00:41Z</time>
      </trkpt>
      <trkpt lat="44.30885" lon="0.51083">
        <ele>168.37</ele>
        <time>2023-05-29T10:00:52Z</time>
      </trkpt>
      <trkpt lat="44.30869" lon="0.51056">
        <ele>169.33</ele>
        <time>2023-05-29T10:01:08Z</time>
      </trkpt>
      <trkpt lat="44.30856" lon="0.51031">
        <ele>169.81</ele>
        <time>2023-05-29T10:01:19Z</time>
      </trkpt>
      <trkpt lat="44.3083" lon="0.50987">
        <ele>169.81</ele>
        <time>2023-05-29T10:01:44Z</time>
      </trkpt>
      <trkpt lat="44.30809" lon="0.50945">
        <ele>167.89</ele>
        <time>2023-05-29T10:02:04Z</time>
      </trkpt>
      <trkpt lat="44.30798" lon="0.50927">
        <ele>169.33</ele>
        <time>2023-05-29T10:02:14Z</time>
      </trkpt>
      <trkpt lat="44.30772" lon="0.50893">
        <ele>170.77</ele>
        <time>2023-05-29T10:02:33Z</time>
      </trkpt>
      <trkpt lat="44.3075" lon="0.50859">
        <ele>169.33</ele>
        <time>2023-05-29T10:02:52Z</time>
      </trkpt>
      <trkpt lat="44.30729" lon="0.50807">
        <ele>167.89</ele>
        <time>2023-05-29T10:03:22Z</time>
      </trkpt>
      <trkpt lat="44.3072" lon="0.50788">
        <ele>168.37</ele>
        <time>2023-05-29T10:03:27Z</time>
      </trkpt>
      <trkpt lat="44.30711" lon="0.50774">
        <ele>168.37</ele>
        <time>2023-05-29T10:03:31Z</time>
      </trkpt>
      <trkpt lat="44.30702" lon="0.50761">
        <ele>168.37</ele>
        <time>2023-05-29T10:03:34Z</time>
      </trkpt>
      <trkpt lat="44.30695" lon="0.50745">
        <ele>167.89</ele>
        <time>2023-05-29T10:03:38Z</time>
      </trkpt>
      <trkpt lat="44.30689" lon="0.50725">
        <ele>172.69</ele>
        <time>2023-05-29T10:03:47Z</time>
      </trkpt>
      <trkpt lat="44.30688" lon="0.50738">
        <ele>172.69</ele>
        <time>2023-05-29T10:03:52Z</time>
      </trkpt>
      <trkpt lat="44.30686" lon="0.50754">
        <ele>171.73</ele>
        <time>2023-05-29T10:03:55Z</time>
      </trkpt>
      <trkpt lat="44.30684" lon="0.50766">
        <ele>171.25</ele>
        <time>2023-05-29T10:03:57Z</time>
      </trkpt>
      <trkpt lat="44.30681" lon="0.50783">
        <ele>170.77</ele>
        <time>2023-05-29T10:04:00Z</time>
      </trkpt>
      <trkpt lat="44.30678" lon="0.50799">
        <ele>170.29</ele>
        <time>2023-05-29T10:04:03Z</time>
      </trkpt>
      <trkpt lat="44.30674" lon="0.50817">
        <ele>169.33</ele>
        <time>2023-05-29T10:04:06Z</time>
      </trkpt>
      <trkpt lat="44.3067" lon="0.50835">
        <ele>169.33</ele>
        <time>2023-05-29T10:04:09Z</time>
      </trkpt>
      <trkpt lat="44.30666" lon="0.50851">
        <ele>168.85</ele>
        <time>2023-05-29T10:04:12Z</time>
      </trkpt>
      <trkpt lat="44.30663" lon="0.5087">
        <ele>168.37</ele>
        <time>2023-05-29T10:04:15Z</time>
      </trkpt>
      <trkpt lat="44.30662" lon="0.50889">
        <ele>168.37</ele>
        <time>2023-05-29T10:04:18Z</time>
      </trkpt>
      <trkpt lat="44.30661" lon="0.50903">
        <ele>167.89</ele>
        <time>2023-05-29T10:04:21Z</time>
      </trkpt>
      <trkpt lat="44.3065" lon="0.50916">
        <ele>167.89</ele>
        <time>2023-05-29T10:04:25Z</time>
      </trkpt>
      <trkpt lat="44.30633" lon="0.50922">
        <ele>165.48</ele>
        <time>2023-05-29T10:04:28Z</time>
      </trkpt>
      <trkpt lat="44.30612" lon="0.50936">
        <ele>167.89</ele>
        <time>2023-05-29T10:04:30Z</time>
      </trkpt>
      <trkpt lat="44.30593" lon="0.50953">
        <ele>171.73</ele>
        <time>2023-05-29T10:04:32Z</time>
      </trkpt>
      <trkpt lat="44.30581" lon="0.50961">
        <ele>171.73</ele>
        <time>2023-05-29T10:04:34Z</time>
      </trkpt>
      <trkpt lat="44.30568" lon="0.5097">
        <ele>172.69</ele>
        <time>2023-05-29T10:04:37Z</time>
      </trkpt>
      <trkpt lat="44.30557" lon="0.50975">
        <ele>172.69</ele>
        <time>2023-05-29T10:04:40Z</time>
      </trkpt>
      <trkpt lat="44.30546" lon="0.50976">
        <ele>172.21</ele>
        <time>2023-05-29T10:04:43Z</time>
      </trkpt>
      <trkpt lat="44.30535" lon="0.50974">
        <ele>172.21</ele>
        <time>2023-05-29T10:04:46Z</time>
      </trkpt>
      <trkpt lat="44.30521" lon="0.50973">
        <ele>173.17</ele>
        <time>2023-05-29T10:04:50Z</time>
      </trkpt>
      <trkpt lat="44.30509" lon="0.5097">
        <ele>175.1</ele>
        <time>2023-05-29T10:04:55Z</time>
      </trkpt>
      <trkpt lat="44.30497" lon="0.50968">
        <ele>176.06</ele>
        <time>2023-05-29T10:05:02Z</time>
      </trkpt>
      <trkpt lat="44.30487" lon="0.50969">
        <ele>177.02</ele>
        <time>2023-05-29T10:05:08Z</time>
      </trkpt>
      <trkpt lat="44.30477" lon="0.50971">
        <ele>178.46</ele>
        <time>2023-05-29T10:05:14Z</time>
      </trkpt>
      <trkpt lat="44.30467" lon="0.50973">
        <ele>180.38</ele>
        <time>2023-05-29T10:05:20Z</time>
      </trkpt>
      <trkpt lat="44.30456" lon="0.50976">
        <ele>181.83</ele>
        <time>2023-05-29T10:05:26Z</time>
      </trkpt>
      <trkpt lat="44.30447" lon="0.50979">
        <ele>182.31</ele>
        <time>2023-05-29T10:05:31Z</time>
      </trkpt>
      <trkpt lat="44.30438" lon="0.50983">
        <ele>183.27</ele>
        <time>2023-05-29T10:05:37Z</time>
      </trkpt>
      <trkpt lat="44.30429" lon="0.50987">
        <ele>183.75</ele>
        <time>2023-05-29T10:05:42Z</time>
      </trkpt>
      <trkpt lat="44.3042" lon="0.50992">
        <ele>184.23</ele>
        <time>2023-05-29T10:05:47Z</time>
      </trkpt>
      <trkpt lat="44.30418" lon="0.51009">
        <ele>184.71</ele>
        <time>2023-05-29T10:05:51Z</time>
      </trkpt>
      <trkpt lat="44.30417" lon="0.51028">
        <ele>185.19</ele>
        <time>2023-05-29T10:05:54Z</time>
      </trkpt>
      <trkpt lat="44.30415" lon="0.51046">
        <ele>185.67</ele>
        <time>2023-05-29T10:05:57Z</time>
      </trkpt>
      <trkpt lat="44.30414" lon="0.5106">
        <ele>186.15</ele>
        <time>2023-05-29T10:05:59Z</time>
      </trkpt>
      <trkpt lat="44.30411" lon="0.51073">
        <ele>186.63</ele>
        <time>2023-05-29T10:06:01Z</time>
      </trkpt>
      <trkpt lat="44.30409" lon="0.51086">
        <ele>187.59</ele>
        <time>2023-05-29T10:06:03Z</time>
      </trkpt>
      <trkpt lat="44.30408" lon="0.511">
        <ele>188.08</ele>
        <time>2023-05-29T10:06:05Z</time>
      </trkpt>
      <trkpt lat="44.30406" lon="0.51112">
        <ele>188.56</ele>
        <time>2023-05-29T10:06:07Z</time>
      </trkpt>
      <trkpt lat="44.30402" lon="0.51124">
        <ele>189.04</ele>
        <time>2023-05-29T10:06:09Z</time>
      </trkpt>
      <trkpt lat="44.30397" lon="0.51135">
        <ele>189.04</ele>
        <time>2023-05-29T10:06:11Z</time>
      </trkpt>
      <trkpt lat="44.30391" lon="0.51146">
        <ele>189.52</ele>
        <time>2023-05-29T10:06:13Z</time>
      </trkpt>
      <trkpt lat="44.30384" lon="0.51157">
        <ele>190</ele>
        <time>2023-05-29T10:06:15Z</time>
      </trkpt>
      <trkpt lat="44.30378" lon="0.51168">
        <ele>190</ele>
        <time>2023-05-29T10:06:17Z</time>
      </trkpt>
      <trkpt lat="44.30373" lon="0.51179">
        <ele>190.48</ele>
        <time>2023-05-29T10:06:19Z</time>
      </trkpt>
      <trkpt lat="44.30368" lon="0.5119">
        <ele>190</ele>
        <time>2023-05-29T10:06:21Z</time>
      </trkpt>
      <trkpt lat="44.30363" lon="0.51201">
        <ele>190</ele>
        <time>2023-05-29T10:06:23Z</time>
      </trkpt>
      <trkpt lat="44.30357" lon="0.51216">
        <ele>189.52</ele>
        <time>2023-05-29T10:06:26Z</time>
      </trkpt>
      <trkpt lat="44.30349" lon="0.51227">
        <ele>189.04</ele>
        <time>2023-05-29T10:06:29Z</time>
      </trkpt>
      <trkpt lat="44.3034" lon="0.51232">
        <ele>188.56</ele>
        <time>2023-05-29T10:06:34Z</time>
      </trkpt>
      <trkpt lat="44.30329" lon="0.51233">
        <ele>188.08</ele>
        <time>2023-05-29T10:06:41Z</time>
      </trkpt>
      <trkpt lat="44.30319" lon="0.51227">
        <ele>186.63</ele>
        <time>2023-05-29T10:06:48Z</time>
      </trkpt>
      <trkpt lat="44.3031" lon="0.51223">
        <ele>185.19</ele>
        <time>2023-05-29T10:06:54Z</time>
      </trkpt>
      <trkpt lat="44.30301" lon="0.51217">
        <ele>184.23</ele>
        <time>2023-05-29T10:07:01Z</time>
      </trkpt>
      <trkpt lat="44.30292" lon="0.51211">
        <ele>183.27</ele>
        <time>2023-05-29T10:07:07Z</time>
      </trkpt>
      <trkpt lat="44.30283" lon="0.51204">
        <ele>181.83</ele>
        <time>2023-05-29T10:07:13Z</time>
      </trkpt>
      <trkpt lat="44.30275" lon="0.51197">
        <ele>180.38</ele>
        <time>2023-05-29T10:07:20Z</time>
      </trkpt>
      <trkpt lat="44.30265" lon="0.51192">
        <ele>178.94</ele>
        <time>2023-05-29T10:07:26Z</time>
      </trkpt>
      <trkpt lat="44.30254" lon="0.51189">
        <ele>178.46</ele>
        <time>2023-05-29T10:07:32Z</time>
      </trkpt>
      <trkpt lat="44.30243" lon="0.51188">
        <ele>178.94</ele>
        <time>2023-05-29T10:07:38Z</time>
      </trkpt>
      <trkpt lat="44.30233" lon="0.51188">
        <ele>178.94</ele>
        <time>2023-05-29T10:07:43Z</time>
      </trkpt>
      <trkpt lat="44.30223" lon="0.51188">
        <ele>178.94</ele>
        <time>2023-05-29T10:07:48Z</time>
      </trkpt>
      <trkpt lat="44.30213" lon="0.51188">
        <ele>178.46</ele>
        <time>2023-05-29T10:07:54Z</time>
      </trkpt>
      <trkpt lat="44.30202" lon="0.51187">
        <ele>177.5</ele>
        <time>2023-05-29T10:08:00Z</time>
      </trkpt>
      <trkpt lat="44.30193" lon="0.51185">
        <ele>177.02</ele>
        <time>2023-05-29T10:08:06Z</time>
      </trkpt>
      <trkpt lat="44.30182" lon="0.51182">
        <ele>176.06</ele>
        <time>2023-05-29T10:08:13Z</time>
      </trkpt>
      <trkpt lat="44.30171" lon="0.51177">
        <ele>175.58</ele>
        <time>2023-05-29T10:08:19Z</time>
      </trkpt>
      <trkpt lat="44.30162" lon="0.51172">
        <ele>175.1</ele>
        <time>2023-05-29T10:08:24Z</time>
      </trkpt>
      <trkpt lat="44.30152" lon="0.51167">
        <ele>174.62</ele>
        <time>2023-05-29T10:08:29Z</time>
      </trkpt>
      <trkpt lat="44.30143" lon="0.51162">
        <ele>173.66</ele>
        <time>2023-05-29T10:08:34Z</time>
      </trkpt>
      <trkpt lat="44.30133" lon="0.51157">
        <ele>172.21</ele>
        <time>2023-05-29T10:08:40Z</time>
      </trkpt>
      <trkpt lat="44.30124" lon="0.51154">
        <ele>171.73</ele>
        <time>2023-05-29T10:08:45Z</time>
      </trkpt>
      <trkpt lat="44.30115" lon="0.51151">
        <ele>171.25</ele>
        <time>2023-05-29T10:08:50Z</time>
      </trkpt>
      <trkpt lat="44.30105" lon="0.51148">
        <ele>171.25</ele>
        <time>2023-05-29T10:08:56Z</time>
      </trkpt>
      <trkpt lat="44.30095" lon="0.51147">
        <ele>171.73</ele>
        <time>2023-05-29T10:09:03Z</time>
      </trkpt>
      <trkpt lat="44.30085" lon="0.51148">
        <ele>172.21</ele>
        <time>2023-05-29T10:09:10Z</time>
      </trkpt>
      <trkpt lat="44.30075" lon="0.51152">
        <ele>172.69</ele>
        <time>2023-05-29T10:09:16Z</time>
      </trkpt>
      <trkpt lat="44.30065" lon="0.51158">
        <ele>172.69</ele>
        <time>2023-05-29T10:09:22Z</time>
      </trkpt>
      <trkpt lat="44.30055" lon="0.51164">
        <ele>173.66</ele>
        <time>2023-05-29T10:09:29Z</time>
      </trkpt>
      <trkpt lat="44.30044" lon="0.51171">
        <ele>175.1</ele>
        <time>2023-05-29T10:09:36Z</time>
      </trkpt>
      <trkpt lat="44.30035" lon="0.51177">
        <ele>175.58</ele>
        <time>2023-05-29T10:09:42Z</time>
      </trkpt>
      <trkpt lat="44.30025" lon="0.51184">
        <ele>176.06</ele>
        <time>2023-05-29T10:09:48Z</time>
      </trkpt>
      <trkpt lat="44.30015" lon="0.51192">
        <ele>176.06</ele>
        <time>2023-05-29T10:09:55Z</time>
      </trkpt>
      <trkpt lat="44.30007" lon="0.51202">
        <ele>175.58</ele>
        <time>2023-05-29T10:10:02Z</time>
      </trkpt>
      <trkpt lat="44.29997" lon="0.5121">
        <ele>173.66</ele>
        <time>2023-05-29T10:10:09Z</time>
      </trkpt>
      <trkpt lat="44.29986" lon="0.51219">
        <ele>172.21</ele>
        <time>2023-05-29T10:10:16Z</time>
      </trkpt>
      <trkpt lat="44.29973" lon="0.5123">
        <ele>168.37</ele>
        <time>2023-05-29T10:10:24Z</time>
      </trkpt>
      <trkpt lat="44.2996" lon="0.51233">
        <ele>165</ele>
        <time>2023-05-29T10:10:31Z</time>
      </trkpt>
      <trkpt lat="44.29949" lon="0.51233">
        <ele>161.64</ele>
        <time>2023-05-29T10:10:37Z</time>
      </trkpt>
      <trkpt lat="44.29938" lon="0.5123">
        <ele>159.24</ele>
        <time>2023-05-29T10:10:42Z</time>
      </trkpt>
      <trkpt lat="44.29929" lon="0.51227">
        <ele>157.31</ele>
        <time>2023-05-29T10:10:47Z</time>
      </trkpt>
      <trkpt lat="44.2992" lon="0.51223">
        <ele>154.91</ele>
        <time>2023-05-29T10:10:53Z</time>
      </trkpt>
      <trkpt lat="44.29911" lon="0.5122">
        <ele>152.99</ele>
        <time>2023-05-29T10:10:58Z</time>
      </trkpt>
      <trkpt lat="44.29901" lon="0.51216">
        <ele>151.06</ele>
        <time>2023-05-29T10:11:03Z</time>
      </trkpt>
      <trkpt lat="44.29892" lon="0.51213">
        <ele>149.14</ele>
        <time>2023-05-29T10:11:08Z</time>
      </trkpt>
      <trkpt lat="44.29882" lon="0.51209">
        <ele>147.7</ele>
        <time>2023-05-29T10:11:14Z</time>
      </trkpt>
      <trkpt lat="44.29873" lon="0.51206">
        <ele>145.78</ele>
        <time>2023-05-29T10:11:19Z</time>
      </trkpt>
      <trkpt lat="44.29863" lon="0.51204">
        <ele>144.82</ele>
        <time>2023-05-29T10:11:25Z</time>
      </trkpt>
      <trkpt lat="44.29854" lon="0.51202">
        <ele>144.34</ele>
        <time>2023-05-29T10:11:30Z</time>
      </trkpt>
      <trkpt lat="44.29844" lon="0.51201">
        <ele>143.37</ele>
        <time>2023-05-29T10:11:35Z</time>
      </trkpt>
      <trkpt lat="44.29834" lon="0.512">
        <ele>142.41</ele>
        <time>2023-05-29T10:11:41Z</time>
      </trkpt>
      <trkpt lat="44.29825" lon="0.512">
        <ele>141.45</ele>
        <time>2023-05-29T10:11:47Z</time>
      </trkpt>
      <trkpt lat="44.29815" lon="0.51201">
        <ele>140.49</ele>
        <time>2023-05-29T10:11:53Z</time>
      </trkpt>
      <trkpt lat="44.29804" lon="0.51199">
        <ele>139.53</ele>
        <time>2023-05-29T10:11:59Z</time>
      </trkpt>
      <trkpt lat="44.29794" lon="0.51198">
        <ele>139.05</ele>
        <time>2023-05-29T10:12:05Z</time>
      </trkpt>
      <trkpt lat="44.29783" lon="0.51196">
        <ele>138.57</ele>
        <time>2023-05-29T10:12:11Z</time>
      </trkpt>
      <trkpt lat="44.29773" lon="0.51192">
        <ele>138.57</ele>
        <time>2023-05-29T10:12:17Z</time>
      </trkpt>
      <trkpt lat="44.29762" lon="0.51188">
        <ele>137.61</ele>
        <time>2023-05-29T10:12:24Z</time>
      </trkpt>
      <trkpt lat="44.2975" lon="0.51185">
        <ele>137.13</ele>
        <time>2023-05-29T10:12:30Z</time>
      </trkpt>
      <trkpt lat="44.29739" lon="0.51187">
        <ele>137.61</ele>
        <time>2023-05-29T10:12:36Z</time>
      </trkpt>
      <trkpt lat="44.29728" lon="0.51192">
        <ele>137.13</ele>
        <time>2023-05-29T10:12:42Z</time>
      </trkpt>
      <trkpt lat="44.29719" lon="0.51198">
        <ele>137.13</ele>
        <time>2023-05-29T10:12:48Z</time>
      </trkpt>
      <trkpt lat="44.29709" lon="0.51205">
        <ele>136.64</ele>
        <time>2023-05-29T10:12:57Z</time>
      </trkpt>
      <trkpt lat="44.29699" lon="0.51212">
        <ele>136.64</ele>
        <time>2023-05-29T10:13:04Z</time>
      </trkpt>
      <trkpt lat="44.29689" lon="0.51219">
        <ele>137.13</ele>
        <time>2023-05-29T10:13:11Z</time>
      </trkpt>
      <trkpt lat="44.29679" lon="0.51227">
        <ele>138.09</ele>
        <time>2023-05-29T10:13:19Z</time>
      </trkpt>
      <trkpt lat="44.29662" lon="0.51231">
        <ele>138.57</ele>
        <time>2023-05-29T10:13:30Z</time>
      </trkpt>
      <trkpt lat="44.29649" lon="0.51236">
        <ele>139.53</ele>
        <time>2023-05-29T10:13:39Z</time>
      </trkpt>
      <trkpt lat="44.29646" lon="0.51248">
        <ele>139.53</ele>
        <time>2023-05-29T10:13:47Z</time>
      </trkpt>
      <trkpt lat="44.29651" lon="0.51259">
        <ele>139.05</ele>
        <time>2023-05-29T10:13:55Z</time>
      </trkpt>
      <trkpt lat="44.29658" lon="0.51268">
        <ele>138.09</ele>
        <time>2023-05-29T10:14:02Z</time>
      </trkpt>
      <trkpt lat="44.29663" lon="0.51284">
        <ele>137.61</ele>
        <time>2023-05-29T10:14:08Z</time>
      </trkpt>
      <trkpt lat="44.29658" lon="0.51302">
        <ele>138.09</ele>
        <time>2023-05-29T10:14:15Z</time>
      </trkpt>
      <trkpt lat="44.29649" lon="0.51314">
        <ele>139.05</ele>
        <time>2023-05-29T10:14:22Z</time>
      </trkpt>
      <trkpt lat="44.29642" lon="0.51325">
        <ele>140.01</ele>
        <time>2023-05-29T10:14:28Z</time>
      </trkpt>
      <trkpt lat="44.29634" lon="0.51336">
        <ele>140.97</ele>
        <time>2023-05-29T10:14:35Z</time>
      </trkpt>
      <trkpt lat="44.29624" lon="0.51348">
        <ele>142.89</ele>
        <time>2023-05-29T10:14:42Z</time>
      </trkpt>
      <trkpt lat="44.29616" lon="0.5136">
        <ele>144.34</ele>
        <time>2023-05-29T10:14:49Z</time>
      </trkpt>
      <trkpt lat="44.29608" lon="0.5137">
        <ele>146.26</ele>
        <time>2023-05-29T10:14:56Z</time>
      </trkpt>
      <trkpt lat="44.29601" lon="0.5138">
        <ele>148.18</ele>
        <time>2023-05-29T10:15:04Z</time>
      </trkpt>
      <trkpt lat="44.29595" lon="0.51391">
        <ele>150.1</ele>
        <time>2023-05-29T10:15:11Z</time>
      </trkpt>
      <trkpt lat="44.2959" lon="0.51405">
        <ele>150.58</ele>
        <time>2023-05-29T10:15:18Z</time>
      </trkpt>
      <trkpt lat="44.29587" lon="0.5142">
        <ele>150.58</ele>
        <time>2023-05-29T10:15:26Z</time>
      </trkpt>
      <trkpt lat="44.29582" lon="0.51436">
        <ele>150.58</ele>
        <time>2023-05-29T10:15:34Z</time>
      </trkpt>
      <trkpt lat="44.29577" lon="0.51451">
        <ele>151.06</ele>
        <time>2023-05-29T10:15:39Z</time>
      </trkpt>
      <trkpt lat="44.29572" lon="0.51466">
        <ele>150.58</ele>
        <time>2023-05-29T10:15:43Z</time>
      </trkpt>
      <trkpt lat="44.29568" lon="0.51479">
        <ele>151.06</ele>
        <time>2023-05-29T10:15:48Z</time>
      </trkpt>
      <trkpt lat="44.29565" lon="0.51493">
        <ele>151.54</ele>
        <time>2023-05-29T10:15:54Z</time>
      </trkpt>
      <trkpt lat="44.29559" lon="0.5151">
        <ele>152.51</ele>
        <time>2023-05-29T10:16:01Z</time>
      </trkpt>
      <trkpt lat="44.29553" lon="0.51527">
        <ele>153.95</ele>
        <time>2023-05-29T10:16:08Z</time>
      </trkpt>
      <trkpt lat="44.29546" lon="0.51543">
        <ele>156.35</ele>
        <time>2023-05-29T10:16:15Z</time>
      </trkpt>
      <trkpt lat="44.29541" lon="0.51557">
        <ele>157.31</ele>
        <time>2023-05-29T10:16:22Z</time>
      </trkpt>
      <trkpt lat="44.29536" lon="0.5157">
        <ele>157.79</ele>
        <time>2023-05-29T10:16:29Z</time>
      </trkpt>
      <trkpt lat="44.29531" lon="0.51584">
        <ele>159.24</ele>
        <time>2023-05-29T10:16:37Z</time>
      </trkpt>
      <trkpt lat="44.29523" lon="0.51595">
        <ele>161.16</ele>
        <time>2023-05-29T10:16:45Z</time>
      </trkpt>
      <trkpt lat="44.2951" lon="0.5159">
        <ele>163.08</ele>
        <time>2023-05-29T10:16:54Z</time>
      </trkpt>
      <trkpt lat="44.295" lon="0.51582">
        <ele>165.48</ele>
        <time>2023-05-29T10:17:01Z</time>
      </trkpt>
      <trkpt lat="44.29492" lon="0.51572">
        <ele>166.93</ele>
        <time>2023-05-29T10:17:07Z</time>
      </trkpt>
      <trkpt lat="44.29485" lon="0.51559">
        <ele>167.89</ele>
        <time>2023-05-29T10:17:14Z</time>
      </trkpt>
      <trkpt lat="44.29477" lon="0.51546">
        <ele>168.37</ele>
        <time>2023-05-29T10:17:21Z</time>
      </trkpt>
      <trkpt lat="44.2947" lon="0.51534">
        <ele>167.89</ele>
        <time>2023-05-29T10:17:27Z</time>
      </trkpt>
      <trkpt lat="44.29464" lon="0.51519">
        <ele>168.37</ele>
        <time>2023-05-29T10:17:34Z</time>
      </trkpt>
      <trkpt lat="44.2946" lon="0.51505">
        <ele>168.37</ele>
        <time>2023-05-29T10:17:42Z</time>
      </trkpt>
      <trkpt lat="44.29456" lon="0.51492">
        <ele>168.37</ele>
        <time>2023-05-29T10:17:50Z</time>
      </trkpt>
      <trkpt lat="44.29451" lon="0.51478">
        <ele>167.89</ele>
        <time>2023-05-29T10:17:59Z</time>
      </trkpt>
      <trkpt lat="44.29447" lon="0.51464">
        <ele>166.93</ele>
        <time>2023-05-29T10:18:07Z</time>
      </trkpt>
      <trkpt lat="44.29441" lon="0.51447">
        <ele>165.48</ele>
        <time>2023-05-29T10:18:16Z</time>
      </trkpt>
      <trkpt lat="44.29429" lon="0.5143">
        <ele>166.93</ele>
        <time>2023-05-29T10:18:23Z</time>
      </trkpt>
      <trkpt lat="44.29423" lon="0.51419">
        <ele>166.93</ele>
        <time>2023-05-29T10:18:29Z</time>
      </trkpt>
      <trkpt lat="44.29417" lon="0.51408">
        <ele>165.96</ele>
        <time>2023-05-29T10:18:36Z</time>
      </trkpt>
      <trkpt lat="44.29414" lon="0.51392">
        <ele>164.04</ele>
        <time>2023-05-29T10:18:45Z</time>
      </trkpt>
      <trkpt lat="44.29407" lon="0.51377">
        <ele>164.04</ele>
        <time>2023-05-29T10:18:53Z</time>
      </trkpt>
      <trkpt lat="44.29396" lon="0.51364">
        <ele>166.45</ele>
        <time>2023-05-29T10:19:00Z</time>
      </trkpt>
      <trkpt lat="44.29388" lon="0.51353">
        <ele>167.89</ele>
        <time>2023-05-29T10:19:07Z</time>
      </trkpt>
      <trkpt lat="44.29381" lon="0.51343">
        <ele>168.85</ele>
        <time>2023-05-29T10:19:14Z</time>
      </trkpt>
      <trkpt lat="44.29372" lon="0.5133">
        <ele>169.81</ele>
        <time>2023-05-29T10:19:21Z</time>
      </trkpt>
      <trkpt lat="44.29365" lon="0.51318">
        <ele>170.29</ele>
        <time>2023-05-29T10:19:28Z</time>
      </trkpt>
      <trkpt lat="44.29357" lon="0.51306">
        <ele>170.77</ele>
        <time>2023-05-29T10:19:35Z</time>
      </trkpt>
      <trkpt lat="44.29348" lon="0.51297">
        <ele>173.17</ele>
        <time>2023-05-29T10:19:41Z</time>
      </trkpt>
      <trkpt lat="44.29342" lon="0.51286">
        <ele>174.14</ele>
        <time>2023-05-29T10:19:47Z</time>
      </trkpt>
      <trkpt lat="44.29337" lon="0.51276">
        <ele>174.62</ele>
        <time>2023-05-29T10:19:53Z</time>
      </trkpt>
      <trkpt lat="44.29331" lon="0.51265">
        <ele>175.1</ele>
        <time>2023-05-29T10:19:59Z</time>
      </trkpt>
      <trkpt lat="44.29326" lon="0.51252">
        <ele>175.1</ele>
        <time>2023-05-29T10:20:05Z</time>
      </trkpt>
      <trkpt lat="44.2932" lon="0.51241">
        <ele>175.1</ele>
        <time>2023-05-29T10:20:11Z</time>
      </trkpt>
      <trkpt lat="44.29314" lon="0.5123">
        <ele>175.58</ele>
        <time>2023-05-29T10:20:17Z</time>
      </trkpt>
      <trkpt lat="44.29306" lon="0.51219">
        <ele>175.58</ele>
        <time>2023-05-29T10:20:23Z</time>
      </trkpt>
      <trkpt lat="44.293" lon="0.51211">
        <ele>176.06</ele>
        <time>2023-05-29T10:20:28Z</time>
      </trkpt>
      <trkpt lat="44.29293" lon="0.51203">
        <ele>176.54</ele>
        <time>2023-05-29T10:20:33Z</time>
      </trkpt>
      <trkpt lat="44.29284" lon="0.51195">
        <ele>176.54</ele>
        <time>2023-05-29T10:20:39Z</time>
      </trkpt>
      <trkpt lat="44.29275" lon="0.51193">
        <ele>176.54</ele>
        <time>2023-05-29T10:20:45Z</time>
      </trkpt>
      <trkpt lat="44.29266" lon="0.51195">
        <ele>176.54</ele>
        <time>2023-05-29T10:20:51Z</time>
      </trkpt>
      <trkpt lat="44.29256" lon="0.51199">
        <ele>176.54</ele>
        <time>2023-05-29T10:20:57Z</time>
      </trkpt>
      <trkpt lat="44.29247" lon="0.512">
        <ele>177.02</ele>
        <time>2023-05-29T10:21:03Z</time>
      </trkpt>
      <trkpt lat="44.29237" lon="0.51197">
        <ele>176.54</ele>
        <time>2023-05-29T10:21:10Z</time>
      </trkpt>
      <trkpt lat="44.29227" lon="0.51191">
        <ele>175.58</ele>
        <time>2023-05-29T10:21:17Z</time>
      </trkpt>
      <trkpt lat="44.29217" lon="0.51185">
        <ele>175.1</ele>
        <time>2023-05-29T10:21:24Z</time>
      </trkpt>
      <trkpt lat="44.29205" lon="0.51184">
        <ele>174.14</ele>
        <time>2023-05-29T10:21:31Z</time>
      </trkpt>
      <trkpt lat="44.29194" lon="0.51183">
        <ele>173.17</ele>
        <time>2023-05-29T10:21:39Z</time>
      </trkpt>
      <trkpt lat="44.29182" lon="0.51182">
        <ele>172.69</ele>
        <time>2023-05-29T10:21:45Z</time>
      </trkpt>
      <trkpt lat="44.29171" lon="0.51181">
        <ele>172.21</ele>
        <time>2023-05-29T10:21:51Z</time>
      </trkpt>
      <trkpt lat="44.29161" lon="0.51178">
        <ele>171.73</ele>
        <time>2023-05-29T10:21:57Z</time>
      </trkpt>
      <trkpt lat="44.29151" lon="0.51171">
        <ele>171.73</ele>
        <time>2023-05-29T10:22:03Z</time>
      </trkpt>
      <trkpt lat="44.29143" lon="0.51163">
        <ele>171.25</ele>
        <time>2023-05-29T10:22:09Z</time>
      </trkpt>
      <trkpt lat="44.29133" lon="0.51158">
        <ele>171.25</ele>
        <time>2023-05-29T10:22:15Z</time>
      </trkpt>
      <trkpt lat="44.29123" lon="0.51154">
        <ele>171.25</ele>
        <time>2023-05-29T10:22:21Z</time>
      </trkpt>
      <trkpt lat="44.29114" lon="0.51151">
        <ele>170.77</ele>
        <time>2023-05-29T10:22:27Z</time>
      </trkpt>
      <trkpt lat="44.29103" lon="0.51152">
        <ele>170.77</ele>
        <time>2023-05-29T10:22:33Z</time>
      </trkpt>
      <trkpt lat="44.29092" lon="0.51154">
        <ele>171.73</ele>
        <time>2023-05-29T10:22:39Z</time>
      </trkpt>
      <trkpt lat="44.29082" lon="0.51159">
        <ele>172.21</ele>
        <time>2023-05-29T10:22:45Z</time>
      </trkpt>
      <trkpt lat="44.29073" lon="0.51164">
        <ele>172.21</ele>
        <time>2023-05-29T10:22:51Z</time>
      </trkpt>
      <trkpt lat="44.29065" lon="0.5117">
        <ele>171.73</ele>
        <time>2023-05-29T10:22:58Z</time>
      </trkpt>
      <trkpt lat="44.29059" lon="0.51185">
        <ele>171.25</ele>
        <time>2023-05-29T10:23:05Z</time>
      </trkpt>
      <trkpt lat="44.29056" lon="0.51199">
        <ele>171.25</ele>
        <time>2023-05-29T10:23:12Z</time>
      </trkpt>
      <trkpt lat="44.29047" lon="0.51202">
        <ele>171.73</ele>
        <time>2023-05-29T10:23:33Z</time>
      </trkpt>
      <trkpt lat="44.29038" lon="0.51193">
        <ele>171.73</ele>
        <time>2023-05-29T10:23:40Z</time>
      </trkpt>
      <trkpt lat="44.29029" lon="0.51185">
        <ele>171.25</ele>
        <time>2023-05-29T10:23:47Z</time>
      </trkpt>
      <trkpt lat="44.29021" lon="0.51177">
        <ele>171.25</ele>
        <time>2023-05-29T10:23:54Z</time>
      </trkpt>
      <trkpt lat="44.29013" lon="0.51169">
        <ele>171.25</ele>
        <time>2023-05-29T10:24:00Z</time>
      </trkpt>
      <trkpt lat="44.29004" lon="0.51161">
        <ele>171.73</ele>
        <time>2023-05-29T10:24:07Z</time>
      </trkpt>
      <trkpt lat="44.28998" lon="0.51167">
        <ele>170.77</ele>
        <time>2023-05-29T10:24:14Z</time>
      </trkpt>
      <trkpt lat="44.29001" lon="0.51183">
        <ele>169.33</ele>
        <time>2023-05-29T10:24:22Z</time>
      </trkpt>
      <trkpt lat="44.29003" lon="0.51198">
        <ele>168.85</ele>
        <time>2023-05-29T10:24:29Z</time>
      </trkpt>
      <trkpt lat="44.29005" lon="0.51212">
        <ele>168.37</ele>
        <time>2023-05-29T10:24:36Z</time>
      </trkpt>
      <trkpt lat="44.29007" lon="0.51225">
        <ele>167.41</ele>
        <time>2023-05-29T10:24:43Z</time>
      </trkpt>
      <trkpt lat="44.29007" lon="0.51241">
        <ele>166.93</ele>
        <time>2023-05-29T10:24:50Z</time>
      </trkpt>
      <trkpt lat="44.29008" lon="0.51258">
        <ele>166.93</ele>
        <time>2023-05-29T10:24:57Z</time>
      </trkpt>
      <trkpt lat="44.29008" lon="0.51272">
        <ele>166.93</ele>
        <time>2023-05-29T10:25:04Z</time>
      </trkpt>
      <trkpt lat="44.29008" lon="0.51286">
        <ele>166.45</ele>
        <time>2023-05-29T10:25:11Z</time>
      </trkpt>
      <trkpt lat="44.29006" lon="0.513">
        <ele>166.93</ele>
        <time>2023-05-29T10:25:17Z</time>
      </trkpt>
      <trkpt lat="44.29005" lon="0.51314">
        <ele>167.89</ele>
        <time>2023-05-29T10:25:23Z</time>
      </trkpt>
      <trkpt lat="44.29003" lon="0.51327">
        <ele>168.37</ele>
        <time>2023-05-29T10:25:29Z</time>
      </trkpt>
      <trkpt lat="44.29001" lon="0.51341">
        <ele>168.85</ele>
        <time>2023-05-29T10:25:36Z</time>
      </trkpt>
      <trkpt lat="44.28998" lon="0.51356">
        <ele>168.85</ele>
        <time>2023-05-29T10:25:43Z</time>
      </trkpt>
      <trkpt lat="44.28996" lon="0.51371">
        <ele>170.29</ele>
        <time>2023-05-29T10:25:50Z</time>
      </trkpt>
      <trkpt lat="44.28994" lon="0.51385">
        <ele>170.29</ele>
        <time>2023-05-29T10:25:57Z</time>
      </trkpt>
      <trkpt lat="44.28993" lon="0.51401">
        <ele>169.81</ele>
        <time>2023-05-29T10:26:04Z</time>
      </trkpt>
      <trkpt lat="44.28996" lon="0.51416">
        <ele>169.81</ele>
        <time>2023-05-29T10:26:12Z</time>
      </trkpt>
      <trkpt lat="44.28999" lon="0.5143">
        <ele>169.33</ele>
        <time>2023-05-29T10:26:19Z</time>
      </trkpt>
      <trkpt lat="44.29005" lon="0.51442">
        <ele>168.85</ele>
        <time>2023-05-29T10:26:26Z</time>
      </trkpt>
      <trkpt lat="44.29014" lon="0.5145">
        <ele>167.89</ele>
        <time>2023-05-29T10:26:33Z</time>
      </trkpt>
      <trkpt lat="44.29022" lon="0.51461">
        <ele>167.41</ele>
        <time>2023-05-29T10:26:40Z</time>
      </trkpt>
      <trkpt lat="44.2903" lon="0.51471">
        <ele>168.37</ele>
        <time>2023-05-29T10:26:47Z</time>
      </trkpt>
      <trkpt lat="44.29039" lon="0.51479">
        <ele>168.85</ele>
        <time>2023-05-29T10:26:54Z</time>
      </trkpt>
      <trkpt lat="44.29048" lon="0.51487">
        <ele>169.81</ele>
        <time>2023-05-29T10:27:01Z</time>
      </trkpt>
      <trkpt lat="44.29056" lon="0.51498">
        <ele>171.25</ele>
        <time>2023-05-29T10:27:09Z</time>
      </trkpt>
      <trkpt lat="44.29065" lon="0.51509">
        <ele>170.77</ele>
        <time>2023-05-29T10:27:17Z</time>
      </trkpt>
      <trkpt lat="44.29069" lon="0.51523">
        <ele>170.29</ele>
        <time>2023-05-29T10:27:25Z</time>
      </trkpt>
      <trkpt lat="44.2907" lon="0.51542">
        <ele>166.45</ele>
        <time>2023-05-29T10:27:36Z</time>
      </trkpt>
      <trkpt lat="44.29082" lon="0.51564">
        <ele>158.75</ele>
        <time>2023-05-29T10:27:54Z</time>
      </trkpt>
      <trkpt lat="44.29092" lon="0.51578">
        <ele>154.91</ele>
        <time>2023-05-29T10:28:03Z</time>
      </trkpt>
      <trkpt lat="44.29102" lon="0.51589">
        <ele>151.06</ele>
        <time>2023-05-29T10:28:12Z</time>
      </trkpt>
      <trkpt lat="44.29117" lon="0.5159">
        <ele>146.74</ele>
        <time>2023-05-29T10:28:24Z</time>
      </trkpt>
      <trkpt lat="44.29132" lon="0.5159">
        <ele>144.82</ele>
        <time>2023-05-29T10:28:32Z</time>
      </trkpt>
      <trkpt lat="44.29146" lon="0.5159">
        <ele>143.37</ele>
        <time>2023-05-29T10:28:39Z</time>
      </trkpt>
      <trkpt lat="44.29165" lon="0.51592">
        <ele>141.45</ele>
        <time>2023-05-29T10:28:53Z</time>
      </trkpt>
      <trkpt lat="44.29179" lon="0.51598">
        <ele>140.97</ele>
        <time>2023-05-29T10:29:01Z</time>
      </trkpt>
      <trkpt lat="44.29205" lon="0.51627">
        <ele>152.03</ele>
        <time>2023-05-29T10:30:09Z</time>
      </trkpt>
      <trkpt lat="44.29213" lon="0.51638">
        <ele>152.99</ele>
        <time>2023-05-29T10:30:18Z</time>
      </trkpt>
      <trkpt lat="44.29227" lon="0.51664">
        <ele>155.87</ele>
        <time>2023-05-29T10:30:34Z</time>
      </trkpt>
      <trkpt lat="44.29235" lon="0.51678">
        <ele>156.35</ele>
        <time>2023-05-29T10:30:43Z</time>
      </trkpt>
      <trkpt lat="44.29245" lon="0.51694">
        <ele>158.27</ele>
        <time>2023-05-29T10:30:53Z</time>
      </trkpt>
      <trkpt lat="44.29252" lon="0.51708">
        <ele>157.79</ele>
        <time>2023-05-29T10:31:02Z</time>
      </trkpt>
      <trkpt lat="44.29263" lon="0.51716">
        <ele>155.87</ele>
        <time>2023-05-29T10:31:10Z</time>
      </trkpt>
      <trkpt lat="44.29272" lon="0.51732">
        <ele>154.43</ele>
        <time>2023-05-29T10:31:18Z</time>
      </trkpt>
      <trkpt lat="44.29279" lon="0.51746">
        <ele>154.43</ele>
        <time>2023-05-29T10:31:25Z</time>
      </trkpt>
      <trkpt lat="44.29288" lon="0.51757">
        <ele>153.95</ele>
        <time>2023-05-29T10:31:32Z</time>
      </trkpt>
      <trkpt lat="44.29297" lon="0.51772">
        <ele>154.91</ele>
        <time>2023-05-29T10:31:41Z</time>
      </trkpt>
      <trkpt lat="44.29308" lon="0.51787">
        <ele>156.35</ele>
        <time>2023-05-29T10:31:50Z</time>
      </trkpt>
      <trkpt lat="44.29318" lon="0.518">
        <ele>155.87</ele>
        <time>2023-05-29T10:31:58Z</time>
      </trkpt>
      <trkpt lat="44.29326" lon="0.51812">
        <ele>155.87</ele>
        <time>2023-05-29T10:32:06Z</time>
      </trkpt>
      <trkpt lat="44.29335" lon="0.51823">
        <ele>156.35</ele>
        <time>2023-05-29T10:32:13Z</time>
      </trkpt>
      <trkpt lat="44.29344" lon="0.51832">
        <ele>156.35</ele>
        <time>2023-05-29T10:32:20Z</time>
      </trkpt>
      <trkpt lat="44.29353" lon="0.51842">
        <ele>156.83</ele>
        <time>2023-05-29T10:32:27Z</time>
      </trkpt>
      <trkpt lat="44.2936" lon="0.51855">
        <ele>156.83</ele>
        <time>2023-05-29T10:32:34Z</time>
      </trkpt>
      <trkpt lat="44.29365" lon="0.51869">
        <ele>157.31</ele>
        <time>2023-05-29T10:32:40Z</time>
      </trkpt>
      <trkpt lat="44.29369" lon="0.51884">
        <ele>157.31</ele>
        <time>2023-05-29T10:32:47Z</time>
      </trkpt>
      <trkpt lat="44.29374" lon="0.51898">
        <ele>157.31</ele>
        <time>2023-05-29T10:32:55Z</time>
      </trkpt>
      <trkpt lat="44.29383" lon="0.5195">
        <ele>161.16</ele>
        <time>2023-05-29T10:33:21Z</time>
      </trkpt>
      <trkpt lat="44.29385" lon="0.51976">
        <ele>164.52</ele>
        <time>2023-05-29T10:33:35Z</time>
      </trkpt>
      <trkpt lat="44.29384" lon="0.51999">
        <ele>165</ele>
        <time>2023-05-29T10:33:45Z</time>
      </trkpt>
      <trkpt lat="44.29386" lon="0.52015">
        <ele>166.93</ele>
        <time>2023-05-29T10:33:53Z</time>
      </trkpt>
      <trkpt lat="44.29392" lon="0.52027">
        <ele>168.85</ele>
        <time>2023-05-29T10:34:00Z</time>
      </trkpt>
      <trkpt lat="44.29398" lon="0.52039">
        <ele>170.29</ele>
        <time>2023-05-29T10:34:07Z</time>
      </trkpt>
      <trkpt lat="44.29403" lon="0.52051">
        <ele>170.77</ele>
        <time>2023-05-29T10:34:14Z</time>
      </trkpt>
      <trkpt lat="44.29409" lon="0.52065">
        <ele>171.25</ele>
        <time>2023-05-29T10:34:21Z</time>
      </trkpt>
      <trkpt lat="44.29417" lon="0.52076">
        <ele>170.77</ele>
        <time>2023-05-29T10:34:28Z</time>
      </trkpt>
      <trkpt lat="44.29422" lon="0.52087">
        <ele>170.77</ele>
        <time>2023-05-29T10:34:35Z</time>
      </trkpt>
      <trkpt lat="44.29429" lon="0.52102">
        <ele>170.77</ele>
        <time>2023-05-29T10:34:43Z</time>
      </trkpt>
      <trkpt lat="44.29433" lon="0.52117">
        <ele>170.77</ele>
        <time>2023-05-29T10:34:50Z</time>
      </trkpt>
      <trkpt lat="44.29431" lon="0.52131">
        <ele>171.25</ele>
        <time>2023-05-29T10:34:56Z</time>
      </trkpt>
      <trkpt lat="44.29428" lon="0.52146">
        <ele>171.73</ele>
        <time>2023-05-29T10:35:02Z</time>
      </trkpt>
      <trkpt lat="44.29425" lon="0.52159">
        <ele>171.73</ele>
        <time>2023-05-29T10:35:08Z</time>
      </trkpt>
      <trkpt lat="44.29423" lon="0.52171">
        <ele>172.21</ele>
        <time>2023-05-29T10:35:14Z</time>
      </trkpt>
      <trkpt lat="44.29419" lon="0.52186">
        <ele>172.69</ele>
        <time>2023-05-29T10:35:20Z</time>
      </trkpt>
      <trkpt lat="44.29416" lon="0.52199">
        <ele>173.66</ele>
        <time>2023-05-29T10:35:26Z</time>
      </trkpt>
      <trkpt lat="44.29413" lon="0.52212">
        <ele>174.14</ele>
        <time>2023-05-29T10:35:33Z</time>
      </trkpt>
      <trkpt lat="44.29411" lon="0.52227">
        <ele>176.54</ele>
        <time>2023-05-29T10:36:01Z</time>
      </trkpt>
      <trkpt lat="44.29411" lon="0.5224">
        <ele>177.02</ele>
        <time>2023-05-29T10:36:07Z</time>
      </trkpt>
      <trkpt lat="44.29412" lon="0.52254">
        <ele>177.02</ele>
        <time>2023-05-29T10:36:14Z</time>
      </trkpt>
      <trkpt lat="44.29413" lon="0.52268">
        <ele>177.02</ele>
        <time>2023-05-29T10:36:20Z</time>
      </trkpt>
      <trkpt lat="44.29415" lon="0.52281">
        <ele>175.58</ele>
        <time>2023-05-29T10:36:26Z</time>
      </trkpt>
      <trkpt lat="44.29415" lon="0.52295">
        <ele>174.62</ele>
        <time>2023-05-29T10:36:32Z</time>
      </trkpt>
      <trkpt lat="44.29416" lon="0.52309">
        <ele>173.66</ele>
        <time>2023-05-29T10:36:38Z</time>
      </trkpt>
      <trkpt lat="44.29417" lon="0.52322">
        <ele>172.69</ele>
        <time>2023-05-29T10:36:44Z</time>
      </trkpt>
      <trkpt lat="44.29417" lon="0.52336">
        <ele>173.17</ele>
        <time>2023-05-29T10:36:51Z</time>
      </trkpt>
      <trkpt lat="44.29416" lon="0.52349">
        <ele>172.69</ele>
        <time>2023-05-29T10:36:57Z</time>
      </trkpt>
      <trkpt lat="44.29417" lon="0.52364">
        <ele>171.73</ele>
        <time>2023-05-29T10:37:03Z</time>
      </trkpt>
      <trkpt lat="44.29416" lon="0.52378">
        <ele>170.77</ele>
        <time>2023-05-29T10:37:09Z</time>
      </trkpt>
      <trkpt lat="44.29416" lon="0.52392">
        <ele>170.29</ele>
        <time>2023-05-29T10:37:15Z</time>
      </trkpt>
      <trkpt lat="44.29418" lon="0.52405">
        <ele>169.81</ele>
        <time>2023-05-29T10:37:22Z</time>
      </trkpt>
      <trkpt lat="44.29416" lon="0.5242">
        <ele>169.33</ele>
        <time>2023-05-29T10:37:29Z</time>
      </trkpt>
      <trkpt lat="44.29408" lon="0.5243">
        <ele>169.33</ele>
        <time>2023-05-29T10:37:36Z</time>
      </trkpt>
      <trkpt lat="44.29399" lon="0.52436">
        <ele>169.33</ele>
        <time>2023-05-29T10:37:42Z</time>
      </trkpt>
      <trkpt lat="44.29391" lon="0.52445">
        <ele>169.81</ele>
        <time>2023-05-29T10:37:48Z</time>
      </trkpt>
      <trkpt lat="44.29384" lon="0.52453">
        <ele>169.81</ele>
        <time>2023-05-29T10:37:54Z</time>
      </trkpt>
      <trkpt lat="44.29377" lon="0.52462">
        <ele>169.33</ele>
        <time>2023-05-29T10:38:00Z</time>
      </trkpt>
      <trkpt lat="44.29371" lon="0.52472">
        <ele>169.81</ele>
        <time>2023-05-29T10:38:07Z</time>
      </trkpt>
      <trkpt lat="44.29364" lon="0.52483">
        <ele>170.29</ele>
        <time>2023-05-29T10:38:14Z</time>
      </trkpt>
      <trkpt lat="44.29358" lon="0.52495">
        <ele>170.29</ele>
        <time>2023-05-29T10:38:20Z</time>
      </trkpt>
      <trkpt lat="44.29353" lon="0.52506">
        <ele>170.29</ele>
        <time>2023-05-29T10:38:26Z</time>
      </trkpt>
      <trkpt lat="44.29348" lon="0.52519">
        <ele>168.85</ele>
        <time>2023-05-29T10:38:33Z</time>
      </trkpt>
      <trkpt lat="44.29341" lon="0.5253">
        <ele>167.41</ele>
        <time>2023-05-29T10:38:39Z</time>
      </trkpt>
      <trkpt lat="44.29335" lon="0.52541">
        <ele>166.45</ele>
        <time>2023-05-29T10:38:45Z</time>
      </trkpt>
      <trkpt lat="44.29328" lon="0.52552">
        <ele>166.45</ele>
        <time>2023-05-29T10:38:52Z</time>
      </trkpt>
      <trkpt lat="44.2932" lon="0.52562">
        <ele>167.41</ele>
        <time>2023-05-29T10:38:58Z</time>
      </trkpt>
      <trkpt lat="44.29312" lon="0.52573">
        <ele>166.93</ele>
        <time>2023-05-29T10:39:05Z</time>
      </trkpt>
      <trkpt lat="44.29305" lon="0.52583">
        <ele>167.41</ele>
        <time>2023-05-29T10:39:11Z</time>
      </trkpt>
      <trkpt lat="44.29298" lon="0.52593">
        <ele>166.45</ele>
        <time>2023-05-29T10:39:17Z</time>
      </trkpt>
      <trkpt lat="44.29291" lon="0.52604">
        <ele>166.93</ele>
        <time>2023-05-29T10:39:24Z</time>
      </trkpt>
      <trkpt lat="44.29283" lon="0.52615">
        <ele>167.41</ele>
        <time>2023-05-29T10:39:30Z</time>
      </trkpt>
      <trkpt lat="44.29277" lon="0.52623">
        <ele>167.89</ele>
        <time>2023-05-29T10:39:36Z</time>
      </trkpt>
      <trkpt lat="44.29274" lon="0.52635">
        <ele>167.89</ele>
        <time>2023-05-29T10:39:43Z</time>
      </trkpt>
      <trkpt lat="44.2928" lon="0.52649">
        <ele>171.73</ele>
        <time>2023-05-29T10:40:22Z</time>
      </trkpt>
      <trkpt lat="44.29284" lon="0.52662">
        <ele>172.21</ele>
        <time>2023-05-29T10:40:30Z</time>
      </trkpt>
      <trkpt lat="44.29288" lon="0.52677">
        <ele>173.66</ele>
        <time>2023-05-29T10:40:40Z</time>
      </trkpt>
      <trkpt lat="44.29291" lon="0.52691">
        <ele>174.62</ele>
        <time>2023-05-29T10:40:49Z</time>
      </trkpt>
      <trkpt lat="44.29295" lon="0.52704">
        <ele>175.1</ele>
        <time>2023-05-29T10:40:58Z</time>
      </trkpt>
      <trkpt lat="44.29299" lon="0.52718">
        <ele>176.06</ele>
        <time>2023-05-29T10:41:07Z</time>
      </trkpt>
      <trkpt lat="44.29303" lon="0.52732">
        <ele>176.54</ele>
        <time>2023-05-29T10:41:16Z</time>
      </trkpt>
      <trkpt lat="44.29306" lon="0.52745">
        <ele>177.98</ele>
        <time>2023-05-29T10:41:25Z</time>
      </trkpt>
      <trkpt lat="44.29309" lon="0.52759">
        <ele>179.42</ele>
        <time>2023-05-29T10:41:34Z</time>
      </trkpt>
      <trkpt lat="44.29313" lon="0.52773">
        <ele>178.94</ele>
        <time>2023-05-29T10:41:43Z</time>
      </trkpt>
      <trkpt lat="44.29318" lon="0.52785">
        <ele>178.46</ele>
        <time>2023-05-29T10:41:52Z</time>
      </trkpt>
      <trkpt lat="44.29323" lon="0.52796">
        <ele>177.98</ele>
        <time>2023-05-29T10:42:00Z</time>
      </trkpt>
      <trkpt lat="44.29329" lon="0.52807">
        <ele>177.5</ele>
        <time>2023-05-29T10:42:08Z</time>
      </trkpt>
      <trkpt lat="44.29335" lon="0.52819">
        <ele>177.02</ele>
        <time>2023-05-29T10:42:16Z</time>
      </trkpt>
      <trkpt lat="44.29341" lon="0.52831">
        <ele>176.54</ele>
        <time>2023-05-29T10:42:24Z</time>
      </trkpt>
      <trkpt lat="44.29348" lon="0.52842">
        <ele>175.58</ele>
        <time>2023-05-29T10:42:33Z</time>
      </trkpt>
      <trkpt lat="44.29355" lon="0.52854">
        <ele>174.14</ele>
        <time>2023-05-29T10:42:43Z</time>
      </trkpt>
      <trkpt lat="44.29362" lon="0.52873">
        <ele>168.85</ele>
        <time>2023-05-29T10:43:00Z</time>
      </trkpt>
      <trkpt lat="44.29359" lon="0.52889">
        <ele>171.73</ele>
        <time>2023-05-29T10:49:10Z</time>
      </trkpt>
      <trkpt lat="44.29359" lon="0.52886">
        <ele>167.41</ele>
        <time>2023-05-29T11:50:02Z</time>
      </trkpt>
      <trkpt lat="44.2942" lon="0.52854">
        <ele>156.83</ele>
        <time>2023-05-29T12:02:53Z</time>
      </trkpt>
      <trkpt lat="44.29495" lon="0.52834">
        <ele>154.91</ele>
        <time>2023-05-29T12:04:13Z</time>
      </trkpt>
      <trkpt lat="44.29527" lon="0.52824">
        <ele>165.48</ele>
        <time>2023-05-29T12:05:43Z</time>
      </trkpt>
      <trkpt lat="44.29537" lon="0.52829">
        <ele>165</ele>
        <time>2023-05-29T12:05:52Z</time>
      </trkpt>
      <trkpt lat="44.29547" lon="0.52834">
        <ele>164.52</ele>
        <time>2023-05-29T12:06:00Z</time>
      </trkpt>
      <trkpt lat="44.29559" lon="0.52841">
        <ele>165.48</ele>
        <time>2023-05-29T12:06:07Z</time>
      </trkpt>
      <trkpt lat="44.29568" lon="0.5285">
        <ele>166.45</ele>
        <time>2023-05-29T12:06:14Z</time>
      </trkpt>
      <trkpt lat="44.29575" lon="0.52859">
        <ele>166.93</ele>
        <time>2023-05-29T12:06:21Z</time>
      </trkpt>
      <trkpt lat="44.29581" lon="0.5287">
        <ele>167.41</ele>
        <time>2023-05-29T12:06:28Z</time>
      </trkpt>
      <trkpt lat="44.29587" lon="0.5288">
        <ele>168.37</ele>
        <time>2023-05-29T12:06:36Z</time>
      </trkpt>
      <trkpt lat="44.29593" lon="0.52892">
        <ele>168.37</ele>
        <time>2023-05-29T12:06:43Z</time>
      </trkpt>
      <trkpt lat="44.29598" lon="0.52904">
        <ele>168.37</ele>
        <time>2023-05-29T12:06:50Z</time>
      </trkpt>
      <trkpt lat="44.29604" lon="0.52914">
        <ele>168.37</ele>
        <time>2023-05-29T12:06:57Z</time>
      </trkpt>
      <trkpt lat="44.29612" lon="0.52924">
        <ele>168.85</ele>
        <time>2023-05-29T12:07:04Z</time>
      </trkpt>
      <trkpt lat="44.29621" lon="0.52933">
        <ele>170.29</ele>
        <time>2023-05-29T12:07:12Z</time>
      </trkpt>
      <trkpt lat="44.29629" lon="0.52941">
        <ele>171.25</ele>
        <time>2023-05-29T12:07:19Z</time>
      </trkpt>
      <trkpt lat="44.29638" lon="0.52949">
        <ele>171.73</ele>
        <time>2023-05-29T12:07:26Z</time>
      </trkpt>
      <trkpt lat="44.29647" lon="0.52957">
        <ele>172.69</ele>
        <time>2023-05-29T12:07:34Z</time>
      </trkpt>
      <trkpt lat="44.29655" lon="0.52965">
        <ele>173.66</ele>
        <time>2023-05-29T12:07:42Z</time>
      </trkpt>
      <trkpt lat="44.29664" lon="0.52974">
        <ele>174.14</ele>
        <time>2023-05-29T12:07:50Z</time>
      </trkpt>
      <trkpt lat="44.29672" lon="0.52982">
        <ele>175.1</ele>
        <time>2023-05-29T12:07:57Z</time>
      </trkpt>
      <trkpt lat="44.29681" lon="0.5299">
        <ele>176.06</ele>
        <time>2023-05-29T12:08:05Z</time>
      </trkpt>
      <trkpt lat="44.29686" lon="0.53003">
        <ele>177.02</ele>
        <time>2023-05-29T12:08:13Z</time>
      </trkpt>
      <trkpt lat="44.29691" lon="0.53016">
        <ele>177.02</ele>
        <time>2023-05-29T12:08:20Z</time>
      </trkpt>
      <trkpt lat="44.29697" lon="0.53028">
        <ele>177.5</ele>
        <time>2023-05-29T12:08:28Z</time>
      </trkpt>
      <trkpt lat="44.29702" lon="0.53041">
        <ele>177.5</ele>
        <time>2023-05-29T12:08:36Z</time>
      </trkpt>
      <trkpt lat="44.29707" lon="0.53054">
        <ele>177.98</ele>
        <time>2023-05-29T12:08:43Z</time>
      </trkpt>
      <trkpt lat="44.2971" lon="0.5307">
        <ele>177.98</ele>
        <time>2023-05-29T12:08:51Z</time>
      </trkpt>
      <trkpt lat="44.29708" lon="0.53085">
        <ele>178.46</ele>
        <time>2023-05-29T12:08:58Z</time>
      </trkpt>
      <trkpt lat="44.29704" lon="0.53099">
        <ele>177.98</ele>
        <time>2023-05-29T12:09:05Z</time>
      </trkpt>
      <trkpt lat="44.29697" lon="0.5311">
        <ele>177.98</ele>
        <time>2023-05-29T12:09:12Z</time>
      </trkpt>
      <trkpt lat="44.29686" lon="0.53117">
        <ele>177.5</ele>
        <time>2023-05-29T12:09:19Z</time>
      </trkpt>
      <trkpt lat="44.29676" lon="0.53123">
        <ele>177.02</ele>
        <time>2023-05-29T12:09:26Z</time>
      </trkpt>
      <trkpt lat="44.29666" lon="0.53127">
        <ele>176.54</ele>
        <time>2023-05-29T12:09:33Z</time>
      </trkpt>
      <trkpt lat="44.29657" lon="0.53132">
        <ele>176.06</ele>
        <time>2023-05-29T12:09:40Z</time>
      </trkpt>
      <trkpt lat="44.29648" lon="0.53137">
        <ele>176.06</ele>
        <time>2023-05-29T12:09:47Z</time>
      </trkpt>
      <trkpt lat="44.29639" lon="0.53142">
        <ele>175.58</ele>
        <time>2023-05-29T12:09:54Z</time>
      </trkpt>
      <trkpt lat="44.2963" lon="0.5315">
        <ele>175.1</ele>
        <time>2023-05-29T12:10:01Z</time>
      </trkpt>
      <trkpt lat="44.29622" lon="0.53159">
        <ele>175.1</ele>
        <time>2023-05-29T12:10:08Z</time>
      </trkpt>
      <trkpt lat="44.29615" lon="0.53168">
        <ele>175.1</ele>
        <time>2023-05-29T12:10:14Z</time>
      </trkpt>
      <trkpt lat="44.2961" lon="0.5318">
        <ele>175.1</ele>
        <time>2023-05-29T12:10:21Z</time>
      </trkpt>
      <trkpt lat="44.29607" lon="0.53193">
        <ele>175.1</ele>
        <time>2023-05-29T12:10:28Z</time>
      </trkpt>
      <trkpt lat="44.29606" lon="0.53207">
        <ele>175.1</ele>
        <time>2023-05-29T12:10:35Z</time>
      </trkpt>
      <trkpt lat="44.29607" lon="0.53221">
        <ele>174.14</ele>
        <time>2023-05-29T12:10:42Z</time>
      </trkpt>
      <trkpt lat="44.29608" lon="0.53237">
        <ele>172.69</ele>
        <time>2023-05-29T12:10:50Z</time>
      </trkpt>
      <trkpt lat="44.29606" lon="0.53252">
        <ele>171.73</ele>
        <time>2023-05-29T12:10:57Z</time>
      </trkpt>
      <trkpt lat="44.29602" lon="0.53265">
        <ele>170.77</ele>
        <time>2023-05-29T12:11:04Z</time>
      </trkpt>
      <trkpt lat="44.29596" lon="0.53278">
        <ele>170.29</ele>
        <time>2023-05-29T12:11:11Z</time>
      </trkpt>
      <trkpt lat="44.29588" lon="0.5329">
        <ele>169.81</ele>
        <time>2023-05-29T12:11:19Z</time>
      </trkpt>
      <trkpt lat="44.29579" lon="0.53301">
        <ele>170.29</ele>
        <time>2023-05-29T12:11:27Z</time>
      </trkpt>
      <trkpt lat="44.2957" lon="0.5331">
        <ele>170.77</ele>
        <time>2023-05-29T12:11:35Z</time>
      </trkpt>
      <trkpt lat="44.29559" lon="0.53313">
        <ele>171.25</ele>
        <time>2023-05-29T12:11:43Z</time>
      </trkpt>
      <trkpt lat="44.29544" lon="0.53306">
        <ele>172.21</ele>
        <time>2023-05-29T12:11:54Z</time>
      </trkpt>
      <trkpt lat="44.29531" lon="0.53297">
        <ele>175.1</ele>
        <time>2023-05-29T12:12:01Z</time>
      </trkpt>
      <trkpt lat="44.2952" lon="0.53291">
        <ele>176.54</ele>
        <time>2023-05-29T12:12:08Z</time>
      </trkpt>
      <trkpt lat="44.2951" lon="0.5329">
        <ele>176.54</ele>
        <time>2023-05-29T12:12:15Z</time>
      </trkpt>
      <trkpt lat="44.29501" lon="0.53301">
        <ele>175.1</ele>
        <time>2023-05-29T12:12:22Z</time>
      </trkpt>
      <trkpt lat="44.29495" lon="0.53312">
        <ele>174.62</ele>
        <time>2023-05-29T12:12:29Z</time>
      </trkpt>
      <trkpt lat="44.29487" lon="0.53324">
        <ele>174.62</ele>
        <time>2023-05-29T12:12:37Z</time>
      </trkpt>
      <trkpt lat="44.29481" lon="0.53336">
        <ele>174.62</ele>
        <time>2023-05-29T12:12:46Z</time>
      </trkpt>
      <trkpt lat="44.29474" lon="0.53351">
        <ele>174.62</ele>
        <time>2023-05-29T12:12:55Z</time>
      </trkpt>
      <trkpt lat="44.29467" lon="0.53368">
        <ele>175.1</ele>
        <time>2023-05-29T12:13:06Z</time>
      </trkpt>
      <trkpt lat="44.29457" lon="0.53395">
        <ele>173.66</ele>
        <time>2023-05-29T12:13:21Z</time>
      </trkpt>
      <trkpt lat="44.29451" lon="0.53414">
        <ele>173.17</ele>
        <time>2023-05-29T12:13:31Z</time>
      </trkpt>
      <trkpt lat="44.29446" lon="0.53431">
        <ele>172.69</ele>
        <time>2023-05-29T12:13:40Z</time>
      </trkpt>
      <trkpt lat="44.29429" lon="0.53461">
        <ele>169.81</ele>
        <time>2023-05-29T12:14:00Z</time>
      </trkpt>
      <trkpt lat="44.29415" lon="0.53478">
        <ele>166.45</ele>
        <time>2023-05-29T12:14:10Z</time>
      </trkpt>
      <trkpt lat="44.29406" lon="0.53493">
        <ele>163.08</ele>
        <time>2023-05-29T12:14:18Z</time>
      </trkpt>
      <trkpt lat="44.29401" lon="0.53507">
        <ele>160.2</ele>
        <time>2023-05-29T12:14:26Z</time>
      </trkpt>
      <trkpt lat="44.29394" lon="0.53525">
        <ele>157.31</ele>
        <time>2023-05-29T12:14:35Z</time>
      </trkpt>
      <trkpt lat="44.29388" lon="0.53541">
        <ele>154.43</ele>
        <time>2023-05-29T12:14:44Z</time>
      </trkpt>
      <trkpt lat="44.29381" lon="0.53556">
        <ele>152.51</ele>
        <time>2023-05-29T12:14:52Z</time>
      </trkpt>
      <trkpt lat="44.29377" lon="0.53573">
        <ele>150.58</ele>
        <time>2023-05-29T12:15:00Z</time>
      </trkpt>
      <trkpt lat="44.29376" lon="0.53589">
        <ele>149.14</ele>
        <time>2023-05-29T12:15:08Z</time>
      </trkpt>
      <trkpt lat="44.2938" lon="0.5361">
        <ele>148.18</ele>
        <time>2023-05-29T12:15:17Z</time>
      </trkpt>
      <trkpt lat="44.29382" lon="0.53627">
        <ele>146.74</ele>
        <time>2023-05-29T12:15:24Z</time>
      </trkpt>
      <trkpt lat="44.29386" lon="0.53644">
        <ele>146.26</ele>
        <time>2023-05-29T12:15:32Z</time>
      </trkpt>
      <trkpt lat="44.29389" lon="0.53663">
        <ele>143.85</ele>
        <time>2023-05-29T12:15:42Z</time>
      </trkpt>
      <trkpt lat="44.29392" lon="0.5368">
        <ele>142.41</ele>
        <time>2023-05-29T12:15:51Z</time>
      </trkpt>
      <trkpt lat="44.29396" lon="0.53704">
        <ele>140.01</ele>
        <time>2023-05-29T12:16:04Z</time>
      </trkpt>
      <trkpt lat="44.29393" lon="0.53743">
        <ele>138.09</ele>
        <time>2023-05-29T12:16:19Z</time>
      </trkpt>
      <trkpt lat="44.29381" lon="0.53761">
        <ele>136.16</ele>
        <time>2023-05-29T12:16:30Z</time>
      </trkpt>
      <trkpt lat="44.29371" lon="0.53773">
        <ele>133.76</ele>
        <time>2023-05-29T12:16:39Z</time>
      </trkpt>
      <trkpt lat="44.29362" lon="0.53794">
        <ele>132.8</ele>
        <time>2023-05-29T12:16:51Z</time>
      </trkpt>
      <trkpt lat="44.29351" lon="0.53828">
        <ele>128.95</ele>
        <time>2023-05-29T12:17:09Z</time>
      </trkpt>
      <trkpt lat="44.29356" lon="0.53845">
        <ele>126.07</ele>
        <time>2023-05-29T12:17:17Z</time>
      </trkpt>
      <trkpt lat="44.29351" lon="0.53907">
        <ele>115.5</ele>
        <time>2023-05-29T12:17:49Z</time>
      </trkpt>
      <trkpt lat="44.29366" lon="0.53919">
        <ele>112.61</ele>
        <time>2023-05-29T12:18:01Z</time>
      </trkpt>
      <trkpt lat="44.29376" lon="0.53926">
        <ele>109.73</ele>
        <time>2023-05-29T12:18:08Z</time>
      </trkpt>
      <trkpt lat="44.29386" lon="0.53939">
        <ele>105.4</ele>
        <time>2023-05-29T12:18:17Z</time>
      </trkpt>
      <trkpt lat="44.29397" lon="0.53945">
        <ele>101.56</ele>
        <time>2023-05-29T12:18:27Z</time>
      </trkpt>
      <trkpt lat="44.2941" lon="0.53954">
        <ele>98.67</ele>
        <time>2023-05-29T12:18:36Z</time>
      </trkpt>
      <trkpt lat="44.29429" lon="0.53976">
        <ele>94.83</ele>
        <time>2023-05-29T12:18:55Z</time>
      </trkpt>
      <trkpt lat="44.29421" lon="0.54004">
        <ele>89.06</ele>
        <time>2023-05-29T12:19:11Z</time>
      </trkpt>
      <trkpt lat="44.29409" lon="0.54021">
        <ele>89.06</ele>
        <time>2023-05-29T12:19:20Z</time>
      </trkpt>
      <trkpt lat="44.294" lon="0.54031">
        <ele>90.98</ele>
        <time>2023-05-29T12:19:27Z</time>
      </trkpt>
      <trkpt lat="44.2939" lon="0.54038">
        <ele>90.98</ele>
        <time>2023-05-29T12:19:33Z</time>
      </trkpt>
      <trkpt lat="44.29378" lon="0.54037">
        <ele>90.98</ele>
        <time>2023-05-29T12:19:40Z</time>
      </trkpt>
      <trkpt lat="44.29366" lon="0.54035">
        <ele>91.46</ele>
        <time>2023-05-29T12:19:47Z</time>
      </trkpt>
      <trkpt lat="44.29355" lon="0.54026">
        <ele>91.46</ele>
        <time>2023-05-29T12:19:54Z</time>
      </trkpt>
      <trkpt lat="44.29346" lon="0.54018">
        <ele>90.98</ele>
        <time>2023-05-29T12:20:00Z</time>
      </trkpt>
      <trkpt lat="44.29335" lon="0.54011">
        <ele>89.54</ele>
        <time>2023-05-29T12:20:07Z</time>
      </trkpt>
      <trkpt lat="44.29324" lon="0.54005">
        <ele>89.54</ele>
        <time>2023-05-29T12:20:14Z</time>
      </trkpt>
      <trkpt lat="44.29314" lon="0.54">
        <ele>88.58</ele>
        <time>2023-05-29T12:20:21Z</time>
      </trkpt>
      <trkpt lat="44.29304" lon="0.53995">
        <ele>88.58</ele>
        <time>2023-05-29T12:20:27Z</time>
      </trkpt>
      <trkpt lat="44.29294" lon="0.53991">
        <ele>88.1</ele>
        <time>2023-05-29T12:20:34Z</time>
      </trkpt>
      <trkpt lat="44.29284" lon="0.53988">
        <ele>87.62</ele>
        <time>2023-05-29T12:20:41Z</time>
      </trkpt>
      <trkpt lat="44.29275" lon="0.53985">
        <ele>87.62</ele>
        <time>2023-05-29T12:20:47Z</time>
      </trkpt>
      <trkpt lat="44.29265" lon="0.53983">
        <ele>87.62</ele>
        <time>2023-05-29T12:20:53Z</time>
      </trkpt>
      <trkpt lat="44.29254" lon="0.53986">
        <ele>90.02</ele>
        <time>2023-05-29T12:21:00Z</time>
      </trkpt>
      <trkpt lat="44.29244" lon="0.5399">
        <ele>90.5</ele>
        <time>2023-05-29T12:21:07Z</time>
      </trkpt>
      <trkpt lat="44.29234" lon="0.53993">
        <ele>90.02</ele>
        <time>2023-05-29T12:21:14Z</time>
      </trkpt>
      <trkpt lat="44.29227" lon="0.53998">
        <ele>89.06</ele>
        <time>2023-05-29T12:21:22Z</time>
      </trkpt>
      <trkpt lat="44.29233" lon="0.54011">
        <ele>86.66</ele>
        <time>2023-05-29T12:21:29Z</time>
      </trkpt>
      <trkpt lat="44.2924" lon="0.54022">
        <ele>85.69</ele>
        <time>2023-05-29T12:21:36Z</time>
      </trkpt>
      <trkpt lat="44.29248" lon="0.54033">
        <ele>84.25</ele>
        <time>2023-05-29T12:21:43Z</time>
      </trkpt>
      <trkpt lat="44.29257" lon="0.54044">
        <ele>82.81</ele>
        <time>2023-05-29T12:21:50Z</time>
      </trkpt>
      <trkpt lat="44.29264" lon="0.54055">
        <ele>82.81</ele>
        <time>2023-05-29T12:21:57Z</time>
      </trkpt>
      <trkpt lat="44.29271" lon="0.54064">
        <ele>83.29</ele>
        <time>2023-05-29T12:22:03Z</time>
      </trkpt>
      <trkpt lat="44.29278" lon="0.54074">
        <ele>83.29</ele>
        <time>2023-05-29T12:22:10Z</time>
      </trkpt>
      <trkpt lat="44.29286" lon="0.54085">
        <ele>83.77</ele>
        <time>2023-05-29T12:22:18Z</time>
      </trkpt>
      <trkpt lat="44.29293" lon="0.54098">
        <ele>84.73</ele>
        <time>2023-05-29T12:22:27Z</time>
      </trkpt>
      <trkpt lat="44.29302" lon="0.54109">
        <ele>84.73</ele>
        <time>2023-05-29T12:22:35Z</time>
      </trkpt>
      <trkpt lat="44.2931" lon="0.54118">
        <ele>84.73</ele>
        <time>2023-05-29T12:22:44Z</time>
      </trkpt>
      <trkpt lat="44.2932" lon="0.54131">
        <ele>86.18</ele>
        <time>2023-05-29T12:22:52Z</time>
      </trkpt>
      <trkpt lat="44.29331" lon="0.54143">
        <ele>88.1</ele>
        <time>2023-05-29T12:23:00Z</time>
      </trkpt>
      <trkpt lat="44.29342" lon="0.54154">
        <ele>87.62</ele>
        <time>2023-05-29T12:23:07Z</time>
      </trkpt>
      <trkpt lat="44.29351" lon="0.54164">
        <ele>87.14</ele>
        <time>2023-05-29T12:23:15Z</time>
      </trkpt>
      <trkpt lat="44.29359" lon="0.54174">
        <ele>84.25</ele>
        <time>2023-05-29T12:23:23Z</time>
      </trkpt>
      <trkpt lat="44.29351" lon="0.54188">
        <ele>81.85</ele>
        <time>2023-05-29T12:23:32Z</time>
      </trkpt>
      <trkpt lat="44.29342" lon="0.54197">
        <ele>81.37</ele>
        <time>2023-05-29T12:23:39Z</time>
      </trkpt>
      <trkpt lat="44.29331" lon="0.54205">
        <ele>78.97</ele>
        <time>2023-05-29T12:23:46Z</time>
      </trkpt>
      <trkpt lat="44.29322" lon="0.54213">
        <ele>77.04</ele>
        <time>2023-05-29T12:23:52Z</time>
      </trkpt>
      <trkpt lat="44.29314" lon="0.54223">
        <ele>77.52</ele>
        <time>2023-05-29T12:23:58Z</time>
      </trkpt>
      <trkpt lat="44.29306" lon="0.54233">
        <ele>77.52</ele>
        <time>2023-05-29T12:24:05Z</time>
      </trkpt>
      <trkpt lat="44.29296" lon="0.54243">
        <ele>78</ele>
        <time>2023-05-29T12:24:12Z</time>
      </trkpt>
      <trkpt lat="44.29288" lon="0.54254">
        <ele>78.97</ele>
        <time>2023-05-29T12:24:19Z</time>
      </trkpt>
      <trkpt lat="44.29281" lon="0.54261">
        <ele>78</ele>
        <time>2023-05-29T12:24:26Z</time>
      </trkpt>
      <trkpt lat="44.29272" lon="0.54271">
        <ele>78.97</ele>
        <time>2023-05-29T12:24:35Z</time>
      </trkpt>
      <trkpt lat="44.29262" lon="0.54281">
        <ele>80.89</ele>
        <time>2023-05-29T12:24:42Z</time>
      </trkpt>
      <trkpt lat="44.29252" lon="0.54291">
        <ele>81.85</ele>
        <time>2023-05-29T12:24:49Z</time>
      </trkpt>
      <trkpt lat="44.29244" lon="0.54299">
        <ele>82.81</ele>
        <time>2023-05-29T12:24:56Z</time>
      </trkpt>
      <trkpt lat="44.29236" lon="0.54309">
        <ele>82.81</ele>
        <time>2023-05-29T12:25:05Z</time>
      </trkpt>
      <trkpt lat="44.29222" lon="0.54323">
        <ele>83.29</ele>
        <time>2023-05-29T12:25:19Z</time>
      </trkpt>
      <trkpt lat="44.29201" lon="0.54344">
        <ele>84.73</ele>
        <time>2023-05-29T12:25:36Z</time>
      </trkpt>
      <trkpt lat="44.29185" lon="0.54359">
        <ele>87.14</ele>
        <time>2023-05-29T12:25:47Z</time>
      </trkpt>
      <trkpt lat="44.2917" lon="0.54372">
        <ele>89.06</ele>
        <time>2023-05-29T12:25:56Z</time>
      </trkpt>
      <trkpt lat="44.29154" lon="0.5439">
        <ele>90.98</ele>
        <time>2023-05-29T12:26:05Z</time>
      </trkpt>
      <trkpt lat="44.29143" lon="0.54398">
        <ele>90.02</ele>
        <time>2023-05-29T12:26:13Z</time>
      </trkpt>
      <trkpt lat="44.29134" lon="0.54406">
        <ele>89.54</ele>
        <time>2023-05-29T12:26:21Z</time>
      </trkpt>
      <trkpt lat="44.29124" lon="0.54417">
        <ele>90.02</ele>
        <time>2023-05-29T12:26:29Z</time>
      </trkpt>
      <trkpt lat="44.29114" lon="0.5443">
        <ele>90.5</ele>
        <time>2023-05-29T12:26:37Z</time>
      </trkpt>
      <trkpt lat="44.29105" lon="0.54444">
        <ele>90.5</ele>
        <time>2023-05-29T12:26:45Z</time>
      </trkpt>
      <trkpt lat="44.29097" lon="0.54457">
        <ele>90.5</ele>
        <time>2023-05-29T12:26:52Z</time>
      </trkpt>
      <trkpt lat="44.29093" lon="0.54472">
        <ele>90.02</ele>
        <time>2023-05-29T12:26:59Z</time>
      </trkpt>
      <trkpt lat="44.29091" lon="0.54488">
        <ele>90.98</ele>
        <time>2023-05-29T12:27:07Z</time>
      </trkpt>
      <trkpt lat="44.29088" lon="0.54507">
        <ele>92.9</ele>
        <time>2023-05-29T12:27:16Z</time>
      </trkpt>
      <trkpt lat="44.29086" lon="0.54524">
        <ele>94.83</ele>
        <time>2023-05-29T12:27:25Z</time>
      </trkpt>
      <trkpt lat="44.29085" lon="0.54546">
        <ele>97.71</ele>
        <time>2023-05-29T12:27:35Z</time>
      </trkpt>
      <trkpt lat="44.29084" lon="0.54567">
        <ele>101.08</ele>
        <time>2023-05-29T12:27:45Z</time>
      </trkpt>
      <trkpt lat="44.2907" lon="0.54623">
        <ele>103.96</ele>
        <time>2023-05-29T12:28:12Z</time>
      </trkpt>
      <trkpt lat="44.29062" lon="0.54634">
        <ele>104.92</ele>
        <time>2023-05-29T12:28:20Z</time>
      </trkpt>
      <trkpt lat="44.29053" lon="0.54647">
        <ele>106.84</ele>
        <time>2023-05-29T12:28:29Z</time>
      </trkpt>
      <trkpt lat="44.29044" lon="0.54656">
        <ele>108.29</ele>
        <time>2023-05-29T12:28:38Z</time>
      </trkpt>
      <trkpt lat="44.29032" lon="0.54664">
        <ele>109.25</ele>
        <time>2023-05-29T12:28:47Z</time>
      </trkpt>
      <trkpt lat="44.29022" lon="0.54673">
        <ele>112.13</ele>
        <time>2023-05-29T12:28:56Z</time>
      </trkpt>
      <trkpt lat="44.2901" lon="0.54679">
        <ele>114.05</ele>
        <time>2023-05-29T12:29:05Z</time>
      </trkpt>
      <trkpt lat="44.28998" lon="0.54685">
        <ele>115.01</ele>
        <time>2023-05-29T12:29:13Z</time>
      </trkpt>
      <trkpt lat="44.28986" lon="0.54692">
        <ele>116.94</ele>
        <time>2023-05-29T12:29:23Z</time>
      </trkpt>
      <trkpt lat="44.28973" lon="0.54705">
        <ele>119.82</ele>
        <time>2023-05-29T12:29:34Z</time>
      </trkpt>
      <trkpt lat="44.28963" lon="0.54717">
        <ele>121.26</ele>
        <time>2023-05-29T12:29:44Z</time>
      </trkpt>
      <trkpt lat="44.28956" lon="0.54728">
        <ele>122.71</ele>
        <time>2023-05-29T12:29:53Z</time>
      </trkpt>
      <trkpt lat="44.28941" lon="0.54744">
        <ele>125.11</ele>
        <time>2023-05-29T12:30:07Z</time>
      </trkpt>
      <trkpt lat="44.28924" lon="0.54772">
        <ele>127.51</ele>
        <time>2023-05-29T12:30:29Z</time>
      </trkpt>
      <trkpt lat="44.28915" lon="0.54806">
        <ele>129.43</ele>
        <time>2023-05-29T12:30:49Z</time>
      </trkpt>
      <trkpt lat="44.28907" lon="0.54822">
        <ele>130.88</ele>
        <time>2023-05-29T12:30:57Z</time>
      </trkpt>
      <trkpt lat="44.28899" lon="0.54838">
        <ele>132.32</ele>
        <time>2023-05-29T12:31:06Z</time>
      </trkpt>
      <trkpt lat="44.2889" lon="0.54851">
        <ele>135.2</ele>
        <time>2023-05-29T12:31:14Z</time>
      </trkpt>
      <trkpt lat="44.28881" lon="0.54859">
        <ele>137.13</ele>
        <time>2023-05-29T12:31:21Z</time>
      </trkpt>
      <trkpt lat="44.28871" lon="0.54867">
        <ele>139.05</ele>
        <time>2023-05-29T12:31:29Z</time>
      </trkpt>
      <trkpt lat="44.2886" lon="0.54875">
        <ele>140.97</ele>
        <time>2023-05-29T12:31:38Z</time>
      </trkpt>
      <trkpt lat="44.2885" lon="0.54885">
        <ele>143.37</ele>
        <time>2023-05-29T12:31:48Z</time>
      </trkpt>
      <trkpt lat="44.28837" lon="0.54896">
        <ele>145.78</ele>
        <time>2023-05-29T12:32:01Z</time>
      </trkpt>
      <trkpt lat="44.28833" lon="0.54921">
        <ele>146.74</ele>
        <time>2023-05-29T12:32:13Z</time>
      </trkpt>
      <trkpt lat="44.28831" lon="0.54936">
        <ele>147.7</ele>
        <time>2023-05-29T12:32:19Z</time>
      </trkpt>
      <trkpt lat="44.28831" lon="0.54953">
        <ele>148.66</ele>
        <time>2023-05-29T12:32:26Z</time>
      </trkpt>
      <trkpt lat="44.28831" lon="0.54968">
        <ele>149.62</ele>
        <time>2023-05-29T12:32:33Z</time>
      </trkpt>
      <trkpt lat="44.28831" lon="0.54983">
        <ele>150.1</ele>
        <time>2023-05-29T12:32:40Z</time>
      </trkpt>
      <trkpt lat="44.2883" lon="0.54997">
        <ele>150.1</ele>
        <time>2023-05-29T12:32:47Z</time>
      </trkpt>
      <trkpt lat="44.28824" lon="0.55014">
        <ele>151.06</ele>
        <time>2023-05-29T12:32:54Z</time>
      </trkpt>
      <trkpt lat="44.28818" lon="0.55026">
        <ele>152.51</ele>
        <time>2023-05-29T12:33:01Z</time>
      </trkpt>
      <trkpt lat="44.28811" lon="0.55038">
        <ele>153.95</ele>
        <time>2023-05-29T12:33:08Z</time>
      </trkpt>
      <trkpt lat="44.28805" lon="0.55051">
        <ele>154.91</ele>
        <time>2023-05-29T12:33:15Z</time>
      </trkpt>
      <trkpt lat="44.28797" lon="0.55061">
        <ele>156.35</ele>
        <time>2023-05-29T12:33:23Z</time>
      </trkpt>
      <trkpt lat="44.28787" lon="0.55065">
        <ele>157.31</ele>
        <time>2023-05-29T12:33:29Z</time>
      </trkpt>
      <trkpt lat="44.28778" lon="0.55067">
        <ele>159.24</ele>
        <time>2023-05-29T12:33:36Z</time>
      </trkpt>
      <trkpt lat="44.28769" lon="0.55071">
        <ele>161.16</ele>
        <time>2023-05-29T12:33:43Z</time>
      </trkpt>
      <trkpt lat="44.28759" lon="0.55073">
        <ele>163.08</ele>
        <time>2023-05-29T12:33:51Z</time>
      </trkpt>
      <trkpt lat="44.28748" lon="0.55075">
        <ele>165.96</ele>
        <time>2023-05-29T12:34:00Z</time>
      </trkpt>
      <trkpt lat="44.28734" lon="0.55078">
        <ele>168.37</ele>
        <time>2023-05-29T12:34:08Z</time>
      </trkpt>
      <trkpt lat="44.28724" lon="0.55083">
        <ele>171.25</ele>
        <time>2023-05-29T12:34:16Z</time>
      </trkpt>
      <trkpt lat="44.28704" lon="0.55104">
        <ele>177.98</ele>
        <time>2023-05-29T12:34:56Z</time>
      </trkpt>
      <trkpt lat="44.28712" lon="0.5511">
        <ele>177.02</ele>
        <time>2023-05-29T12:35:05Z</time>
      </trkpt>
      <trkpt lat="44.28702" lon="0.55101">
        <ele>176.06</ele>
        <time>2023-05-29T12:35:18Z</time>
      </trkpt>
      <trkpt lat="44.28692" lon="0.55106">
        <ele>176.06</ele>
        <time>2023-05-29T12:35:25Z</time>
      </trkpt>
      <trkpt lat="44.28687" lon="0.55117">
        <ele>176.06</ele>
        <time>2023-05-29T12:35:32Z</time>
      </trkpt>
      <trkpt lat="44.28684" lon="0.55129">
        <ele>176.54</ele>
        <time>2023-05-29T12:35:39Z</time>
      </trkpt>
      <trkpt lat="44.28678" lon="0.55141">
        <ele>177.02</ele>
        <time>2023-05-29T12:35:46Z</time>
      </trkpt>
      <trkpt lat="44.28672" lon="0.55152">
        <ele>176.54</ele>
        <time>2023-05-29T12:35:52Z</time>
      </trkpt>
      <trkpt lat="44.28665" lon="0.55163">
        <ele>176.06</ele>
        <time>2023-05-29T12:35:59Z</time>
      </trkpt>
      <trkpt lat="44.28659" lon="0.55173">
        <ele>176.06</ele>
        <time>2023-05-29T12:36:05Z</time>
      </trkpt>
      <trkpt lat="44.28651" lon="0.55182">
        <ele>176.06</ele>
        <time>2023-05-29T12:36:12Z</time>
      </trkpt>
      <trkpt lat="44.28644" lon="0.5519">
        <ele>176.06</ele>
        <time>2023-05-29T12:36:18Z</time>
      </trkpt>
      <trkpt lat="44.28637" lon="0.55198">
        <ele>176.06</ele>
        <time>2023-05-29T12:36:24Z</time>
      </trkpt>
      <trkpt lat="44.28628" lon="0.55207">
        <ele>176.06</ele>
        <time>2023-05-29T12:36:31Z</time>
      </trkpt>
      <trkpt lat="44.2862" lon="0.55216">
        <ele>175.58</ele>
        <time>2023-05-29T12:36:37Z</time>
      </trkpt>
      <trkpt lat="44.28613" lon="0.55224">
        <ele>175.58</ele>
        <time>2023-05-29T12:36:43Z</time>
      </trkpt>
      <trkpt lat="44.28606" lon="0.55233">
        <ele>175.58</ele>
        <time>2023-05-29T12:36:49Z</time>
      </trkpt>
      <trkpt lat="44.28599" lon="0.55244">
        <ele>176.54</ele>
        <time>2023-05-29T12:36:56Z</time>
      </trkpt>
      <trkpt lat="44.28593" lon="0.55257">
        <ele>177.5</ele>
        <time>2023-05-29T12:37:03Z</time>
      </trkpt>
      <trkpt lat="44.28588" lon="0.55269">
        <ele>178.46</ele>
        <time>2023-05-29T12:37:09Z</time>
      </trkpt>
      <trkpt lat="44.28583" lon="0.55281">
        <ele>178.94</ele>
        <time>2023-05-29T12:37:15Z</time>
      </trkpt>
      <trkpt lat="44.28577" lon="0.55291">
        <ele>178.94</ele>
        <time>2023-05-29T12:37:22Z</time>
      </trkpt>
      <trkpt lat="44.28569" lon="0.55301">
        <ele>179.9</ele>
        <time>2023-05-29T12:37:30Z</time>
      </trkpt>
      <trkpt lat="44.28561" lon="0.55309">
        <ele>179.9</ele>
        <time>2023-05-29T12:37:37Z</time>
      </trkpt>
      <trkpt lat="44.28551" lon="0.55316">
        <ele>179.42</ele>
        <time>2023-05-29T12:37:44Z</time>
      </trkpt>
      <trkpt lat="44.28542" lon="0.55322">
        <ele>178.46</ele>
        <time>2023-05-29T12:37:51Z</time>
      </trkpt>
      <trkpt lat="44.28533" lon="0.55328">
        <ele>178.46</ele>
        <time>2023-05-29T12:37:57Z</time>
      </trkpt>
      <trkpt lat="44.28524" lon="0.55333">
        <ele>177.98</ele>
        <time>2023-05-29T12:38:03Z</time>
      </trkpt>
      <trkpt lat="44.28516" lon="0.55339">
        <ele>177.98</ele>
        <time>2023-05-29T12:38:10Z</time>
      </trkpt>
      <trkpt lat="44.28506" lon="0.55345">
        <ele>177.98</ele>
        <time>2023-05-29T12:38:17Z</time>
      </trkpt>
      <trkpt lat="44.28497" lon="0.55351">
        <ele>177.5</ele>
        <time>2023-05-29T12:38:24Z</time>
      </trkpt>
      <trkpt lat="44.28487" lon="0.55358">
        <ele>177.98</ele>
        <time>2023-05-29T12:38:31Z</time>
      </trkpt>
      <trkpt lat="44.28478" lon="0.55363">
        <ele>177.5</ele>
        <time>2023-05-29T12:38:38Z</time>
      </trkpt>
      <trkpt lat="44.2847" lon="0.55368">
        <ele>177.5</ele>
        <time>2023-05-29T12:38:44Z</time>
      </trkpt>
      <trkpt lat="44.28461" lon="0.55374">
        <ele>177.5</ele>
        <time>2023-05-29T12:38:50Z</time>
      </trkpt>
      <trkpt lat="44.28452" lon="0.55381">
        <ele>177.02</ele>
        <time>2023-05-29T12:38:57Z</time>
      </trkpt>
      <trkpt lat="44.28443" lon="0.55386">
        <ele>177.02</ele>
        <time>2023-05-29T12:39:04Z</time>
      </trkpt>
      <trkpt lat="44.28433" lon="0.55392">
        <ele>177.5</ele>
        <time>2023-05-29T12:39:11Z</time>
      </trkpt>
      <trkpt lat="44.28423" lon="0.55398">
        <ele>177.02</ele>
        <time>2023-05-29T12:39:18Z</time>
      </trkpt>
      <trkpt lat="44.28414" lon="0.55404">
        <ele>177.5</ele>
        <time>2023-05-29T12:39:25Z</time>
      </trkpt>
      <trkpt lat="44.28405" lon="0.55408">
        <ele>176.54</ele>
        <time>2023-05-29T12:39:32Z</time>
      </trkpt>
      <trkpt lat="44.28395" lon="0.55414">
        <ele>176.54</ele>
        <time>2023-05-29T12:39:39Z</time>
      </trkpt>
      <trkpt lat="44.28387" lon="0.5542">
        <ele>176.54</ele>
        <time>2023-05-29T12:39:46Z</time>
      </trkpt>
      <trkpt lat="44.28378" lon="0.55426">
        <ele>177.02</ele>
        <time>2023-05-29T12:39:53Z</time>
      </trkpt>
      <trkpt lat="44.28369" lon="0.55431">
        <ele>177.5</ele>
        <time>2023-05-29T12:40:00Z</time>
      </trkpt>
      <trkpt lat="44.2836" lon="0.55436">
        <ele>176.54</ele>
        <time>2023-05-29T12:40:07Z</time>
      </trkpt>
      <trkpt lat="44.2835" lon="0.55442">
        <ele>177.02</ele>
        <time>2023-05-29T12:40:14Z</time>
      </trkpt>
      <trkpt lat="44.28339" lon="0.55449">
        <ele>176.54</ele>
        <time>2023-05-29T12:40:22Z</time>
      </trkpt>
      <trkpt lat="44.2833" lon="0.55456">
        <ele>177.02</ele>
        <time>2023-05-29T12:40:30Z</time>
      </trkpt>
      <trkpt lat="44.2832" lon="0.55461">
        <ele>177.98</ele>
        <time>2023-05-29T12:40:37Z</time>
      </trkpt>
      <trkpt lat="44.28309" lon="0.55467">
        <ele>177.98</ele>
        <time>2023-05-29T12:40:44Z</time>
      </trkpt>
      <trkpt lat="44.28299" lon="0.55473">
        <ele>178.46</ele>
        <time>2023-05-29T12:40:51Z</time>
      </trkpt>
      <trkpt lat="44.28289" lon="0.55479">
        <ele>178.46</ele>
        <time>2023-05-29T12:40:58Z</time>
      </trkpt>
      <trkpt lat="44.2828" lon="0.55486">
        <ele>178.46</ele>
        <time>2023-05-29T12:41:05Z</time>
      </trkpt>
      <trkpt lat="44.2827" lon="0.55492">
        <ele>178.46</ele>
        <time>2023-05-29T12:41:12Z</time>
      </trkpt>
      <trkpt lat="44.28262" lon="0.55497">
        <ele>178.46</ele>
        <time>2023-05-29T12:41:18Z</time>
      </trkpt>
      <trkpt lat="44.28252" lon="0.55504">
        <ele>177.98</ele>
        <time>2023-05-29T12:41:25Z</time>
      </trkpt>
      <trkpt lat="44.28242" lon="0.5551">
        <ele>178.46</ele>
        <time>2023-05-29T12:41:32Z</time>
      </trkpt>
      <trkpt lat="44.28233" lon="0.55516">
        <ele>179.42</ele>
        <time>2023-05-29T12:41:39Z</time>
      </trkpt>
      <trkpt lat="44.28224" lon="0.55522">
        <ele>178.94</ele>
        <time>2023-05-29T12:41:45Z</time>
      </trkpt>
      <trkpt lat="44.28215" lon="0.55528">
        <ele>178.94</ele>
        <time>2023-05-29T12:41:52Z</time>
      </trkpt>
      <trkpt lat="44.28205" lon="0.55534">
        <ele>178.94</ele>
        <time>2023-05-29T12:41:59Z</time>
      </trkpt>
      <trkpt lat="44.28196" lon="0.55538">
        <ele>177.98</ele>
        <time>2023-05-29T12:42:05Z</time>
      </trkpt>
      <trkpt lat="44.28187" lon="0.55543">
        <ele>177.02</ele>
        <time>2023-05-29T12:42:12Z</time>
      </trkpt>
      <trkpt lat="44.28178" lon="0.55549">
        <ele>176.06</ele>
        <time>2023-05-29T12:42:19Z</time>
      </trkpt>
      <trkpt lat="44.2817" lon="0.55555">
        <ele>175.58</ele>
        <time>2023-05-29T12:42:25Z</time>
      </trkpt>
      <trkpt lat="44.28139" lon="0.5555">
        <ele>168.37</ele>
        <time>2023-05-29T12:43:52Z</time>
      </trkpt>
      <trkpt lat="44.28126" lon="0.55553">
        <ele>165.48</ele>
        <time>2023-05-29T12:44:02Z</time>
      </trkpt>
      <trkpt lat="44.28115" lon="0.55558">
        <ele>162.6</ele>
        <time>2023-05-29T12:44:10Z</time>
      </trkpt>
      <trkpt lat="44.28106" lon="0.55566">
        <ele>160.2</ele>
        <time>2023-05-29T12:44:18Z</time>
      </trkpt>
      <trkpt lat="44.28098" lon="0.55575">
        <ele>158.75</ele>
        <time>2023-05-29T12:44:26Z</time>
      </trkpt>
      <trkpt lat="44.2809" lon="0.55587">
        <ele>158.27</ele>
        <time>2023-05-29T12:44:35Z</time>
      </trkpt>
      <trkpt lat="44.2808" lon="0.55593">
        <ele>158.27</ele>
        <time>2023-05-29T12:44:43Z</time>
      </trkpt>
      <trkpt lat="44.28068" lon="0.55589">
        <ele>157.31</ele>
        <time>2023-05-29T12:44:52Z</time>
      </trkpt>
      <trkpt lat="44.28055" lon="0.55584">
        <ele>154.91</ele>
        <time>2023-05-29T12:45:01Z</time>
      </trkpt>
      <trkpt lat="44.28044" lon="0.55586">
        <ele>152.51</ele>
        <time>2023-05-29T12:45:10Z</time>
      </trkpt>
      <trkpt lat="44.28034" lon="0.55582">
        <ele>148.66</ele>
        <time>2023-05-29T12:45:19Z</time>
      </trkpt>
      <trkpt lat="44.28022" lon="0.55578">
        <ele>145.3</ele>
        <time>2023-05-29T12:45:28Z</time>
      </trkpt>
      <trkpt lat="44.27996" lon="0.55566">
        <ele>138.57</ele>
        <time>2023-05-29T12:45:56Z</time>
      </trkpt>
      <trkpt lat="44.27969" lon="0.55556">
        <ele>134.24</ele>
        <time>2023-05-29T12:46:20Z</time>
      </trkpt>
      <trkpt lat="44.27948" lon="0.55544">
        <ele>133.28</ele>
        <time>2023-05-29T12:46:35Z</time>
      </trkpt>
      <trkpt lat="44.27928" lon="0.55563">
        <ele>129.92</ele>
        <time>2023-05-29T12:47:02Z</time>
      </trkpt>
      <trkpt lat="44.27905" lon="0.55631">
        <ele>131.84</ele>
        <time>2023-05-29T12:47:38Z</time>
      </trkpt>
      <trkpt lat="44.27894" lon="0.55654">
        <ele>129.43</ele>
        <time>2023-05-29T12:47:57Z</time>
      </trkpt>
      <trkpt lat="44.27862" lon="0.55684">
        <ele>128.95</ele>
        <time>2023-05-29T12:53:37Z</time>
      </trkpt>
      <trkpt lat="44.27851" lon="0.55694">
        <ele>127.03</ele>
        <time>2023-05-29T12:53:46Z</time>
      </trkpt>
      <trkpt lat="44.27839" lon="0.55705">
        <ele>127.03</ele>
        <time>2023-05-29T12:53:56Z</time>
      </trkpt>
      <trkpt lat="44.27824" lon="0.5572">
        <ele>125.11</ele>
        <time>2023-05-29T12:54:10Z</time>
      </trkpt>
      <trkpt lat="44.27811" lon="0.55737">
        <ele>123.67</ele>
        <time>2023-05-29T12:54:22Z</time>
      </trkpt>
      <trkpt lat="44.27801" lon="0.55756">
        <ele>121.26</ele>
        <time>2023-05-29T12:54:36Z</time>
      </trkpt>
      <trkpt lat="44.2779" lon="0.55782">
        <ele>114.53</ele>
        <time>2023-05-29T12:54:51Z</time>
      </trkpt>
      <trkpt lat="44.2778" lon="0.55813">
        <ele>104.44</ele>
        <time>2023-05-29T12:55:09Z</time>
      </trkpt>
      <trkpt lat="44.27772" lon="0.55841">
        <ele>95.79</ele>
        <time>2023-05-29T12:55:27Z</time>
      </trkpt>
      <trkpt lat="44.27715" lon="0.56068">
        <ele>87.62</ele>
        <time>2023-05-29T12:57:41Z</time>
      </trkpt>
      <trkpt lat="44.27698" lon="0.56082">
        <ele>95.31</ele>
        <time>2023-05-29T12:59:28Z</time>
      </trkpt>
      <trkpt lat="44.27687" lon="0.56085">
        <ele>95.79</ele>
        <time>2023-05-29T12:59:35Z</time>
      </trkpt>
      <trkpt lat="44.27678" lon="0.56085">
        <ele>94.83</ele>
        <time>2023-05-29T12:59:42Z</time>
      </trkpt>
      <trkpt lat="44.27668" lon="0.56086">
        <ele>93.87</ele>
        <time>2023-05-29T12:59:49Z</time>
      </trkpt>
      <trkpt lat="44.27658" lon="0.56086">
        <ele>93.39</ele>
        <time>2023-05-29T12:59:56Z</time>
      </trkpt>
      <trkpt lat="44.27647" lon="0.56088">
        <ele>93.39</ele>
        <time>2023-05-29T13:00:03Z</time>
      </trkpt>
      <trkpt lat="44.27635" lon="0.56089">
        <ele>94.35</ele>
        <time>2023-05-29T13:00:11Z</time>
      </trkpt>
      <trkpt lat="44.27619" lon="0.56088">
        <ele>93.39</ele>
        <time>2023-05-29T13:00:22Z</time>
      </trkpt>
      <trkpt lat="44.27605" lon="0.56089">
        <ele>92.42</ele>
        <time>2023-05-29T13:00:33Z</time>
      </trkpt>
      <trkpt lat="44.27592" lon="0.56092">
        <ele>92.42</ele>
        <time>2023-05-29T13:00:41Z</time>
      </trkpt>
      <trkpt lat="44.27579" lon="0.56097">
        <ele>90.02</ele>
        <time>2023-05-29T13:00:50Z</time>
      </trkpt>
      <trkpt lat="44.27569" lon="0.56104">
        <ele>89.54</ele>
        <time>2023-05-29T13:00:57Z</time>
      </trkpt>
      <trkpt lat="44.27561" lon="0.56111">
        <ele>88.58</ele>
        <time>2023-05-29T13:01:03Z</time>
      </trkpt>
      <trkpt lat="44.27556" lon="0.56124">
        <ele>87.14</ele>
        <time>2023-05-29T13:01:10Z</time>
      </trkpt>
      <trkpt lat="44.2755" lon="0.56136">
        <ele>86.18</ele>
        <time>2023-05-29T13:01:17Z</time>
      </trkpt>
      <trkpt lat="44.27544" lon="0.56148">
        <ele>85.21</ele>
        <time>2023-05-29T13:01:24Z</time>
      </trkpt>
      <trkpt lat="44.27532" lon="0.56161">
        <ele>83.77</ele>
        <time>2023-05-29T13:01:34Z</time>
      </trkpt>
      <trkpt lat="44.27522" lon="0.56173">
        <ele>83.77</ele>
        <time>2023-05-29T13:01:41Z</time>
      </trkpt>
      <trkpt lat="44.27514" lon="0.56181">
        <ele>84.25</ele>
        <time>2023-05-29T13:01:47Z</time>
      </trkpt>
      <trkpt lat="44.27503" lon="0.56186">
        <ele>84.25</ele>
        <time>2023-05-29T13:01:55Z</time>
      </trkpt>
      <trkpt lat="44.27489" lon="0.56188">
        <ele>84.25</ele>
        <time>2023-05-29T13:02:04Z</time>
      </trkpt>
      <trkpt lat="44.27475" lon="0.56188">
        <ele>84.25</ele>
        <time>2023-05-29T13:02:14Z</time>
      </trkpt>
      <trkpt lat="44.27462" lon="0.56199">
        <ele>84.73</ele>
        <time>2023-05-29T13:02:24Z</time>
      </trkpt>
      <trkpt lat="44.27454" lon="0.56211">
        <ele>86.66</ele>
        <time>2023-05-29T13:02:34Z</time>
      </trkpt>
      <trkpt lat="44.27438" lon="0.5622">
        <ele>90.5</ele>
        <time>2023-05-29T13:02:46Z</time>
      </trkpt>
      <trkpt lat="44.27408" lon="0.56221">
        <ele>92.42</ele>
        <time>2023-05-29T13:03:07Z</time>
      </trkpt>
      <trkpt lat="44.27383" lon="0.56221">
        <ele>90.98</ele>
        <time>2023-05-29T13:03:25Z</time>
      </trkpt>
      <trkpt lat="44.27369" lon="0.56227">
        <ele>87.62</ele>
        <time>2023-05-29T13:03:37Z</time>
      </trkpt>
      <trkpt lat="44.27351" lon="0.56229">
        <ele>90.02</ele>
        <time>2023-05-29T13:03:49Z</time>
      </trkpt>
      <trkpt lat="44.27334" lon="0.56231">
        <ele>95.79</ele>
        <time>2023-05-29T13:03:59Z</time>
      </trkpt>
      <trkpt lat="44.27295" lon="0.56237">
        <ele>102.52</ele>
        <time>2023-05-29T13:04:29Z</time>
      </trkpt>
      <trkpt lat="44.27274" lon="0.56244">
        <ele>106.36</ele>
        <time>2023-05-29T13:04:40Z</time>
      </trkpt>
      <trkpt lat="44.27255" lon="0.56254">
        <ele>107.81</ele>
        <time>2023-05-29T13:04:51Z</time>
      </trkpt>
      <trkpt lat="44.27239" lon="0.56262">
        <ele>106.36</ele>
        <time>2023-05-29T13:05:01Z</time>
      </trkpt>
      <trkpt lat="44.27222" lon="0.56272">
        <ele>105.88</ele>
        <time>2023-05-29T13:05:14Z</time>
      </trkpt>
      <trkpt lat="44.2721" lon="0.56278">
        <ele>103.96</ele>
        <time>2023-05-29T13:05:23Z</time>
      </trkpt>
      <trkpt lat="44.27198" lon="0.56286">
        <ele>100.6</ele>
        <time>2023-05-29T13:05:33Z</time>
      </trkpt>
      <trkpt lat="44.27186" lon="0.56294">
        <ele>98.19</ele>
        <time>2023-05-29T13:05:41Z</time>
      </trkpt>
      <trkpt lat="44.27174" lon="0.56306">
        <ele>101.56</ele>
        <time>2023-05-29T13:05:48Z</time>
      </trkpt>
      <trkpt lat="44.27164" lon="0.56319">
        <ele>106.36</ele>
        <time>2023-05-29T13:05:57Z</time>
      </trkpt>
      <trkpt lat="44.27144" lon="0.56354">
        <ele>112.61</ele>
        <time>2023-05-29T13:06:22Z</time>
      </trkpt>
      <trkpt lat="44.27139" lon="0.5637">
        <ele>114.05</ele>
        <time>2023-05-29T13:06:31Z</time>
      </trkpt>
      <trkpt lat="44.27143" lon="0.56385">
        <ele>114.05</ele>
        <time>2023-05-29T13:06:39Z</time>
      </trkpt>
      <trkpt lat="44.2715" lon="0.56392">
        <ele>114.05</ele>
        <time>2023-05-29T13:06:46Z</time>
      </trkpt>
      <trkpt lat="44.27161" lon="0.56392">
        <ele>114.53</ele>
        <time>2023-05-29T13:06:54Z</time>
      </trkpt>
      <trkpt lat="44.27174" lon="0.56389">
        <ele>115.5</ele>
        <time>2023-05-29T13:07:02Z</time>
      </trkpt>
      <trkpt lat="44.27189" lon="0.56387">
        <ele>116.94</ele>
        <time>2023-05-29T13:07:12Z</time>
      </trkpt>
      <trkpt lat="44.27202" lon="0.56385">
        <ele>119.82</ele>
        <time>2023-05-29T13:07:22Z</time>
      </trkpt>
      <trkpt lat="44.27225" lon="0.56392">
        <ele>121.26</ele>
        <time>2023-05-29T13:07:45Z</time>
      </trkpt>
      <trkpt lat="44.27265" lon="0.56396">
        <ele>121.26</ele>
        <time>2023-05-29T13:08:12Z</time>
      </trkpt>
      <trkpt lat="44.27289" lon="0.56391">
        <ele>118.38</ele>
        <time>2023-05-29T13:08:29Z</time>
      </trkpt>
      <trkpt lat="44.27307" lon="0.56386">
        <ele>114.53</ele>
        <time>2023-05-29T13:08:42Z</time>
      </trkpt>
      <trkpt lat="44.27332" lon="0.5638">
        <ele>116.46</ele>
        <time>2023-05-29T13:08:53Z</time>
      </trkpt>
      <trkpt lat="44.27347" lon="0.56379">
        <ele>117.42</ele>
        <time>2023-05-29T13:09:01Z</time>
      </trkpt>
      <trkpt lat="44.2736" lon="0.56382">
        <ele>119.82</ele>
        <time>2023-05-29T13:09:08Z</time>
      </trkpt>
      <trkpt lat="44.27371" lon="0.56387">
        <ele>121.74</ele>
        <time>2023-05-29T13:09:14Z</time>
      </trkpt>
      <trkpt lat="44.27381" lon="0.56392">
        <ele>123.19</ele>
        <time>2023-05-29T13:09:20Z</time>
      </trkpt>
      <trkpt lat="44.27392" lon="0.564">
        <ele>124.63</ele>
        <time>2023-05-29T13:09:27Z</time>
      </trkpt>
      <trkpt lat="44.274" lon="0.56408">
        <ele>126.07</ele>
        <time>2023-05-29T13:09:33Z</time>
      </trkpt>
      <trkpt lat="44.27407" lon="0.56419">
        <ele>127.99</ele>
        <time>2023-05-29T13:09:39Z</time>
      </trkpt>
      <trkpt lat="44.27415" lon="0.56431">
        <ele>129.92</ele>
        <time>2023-05-29T13:09:46Z</time>
      </trkpt>
      <trkpt lat="44.27424" lon="0.56441">
        <ele>131.84</ele>
        <time>2023-05-29T13:09:53Z</time>
      </trkpt>
      <trkpt lat="44.27432" lon="0.56451">
        <ele>132.32</ele>
        <time>2023-05-29T13:10:00Z</time>
      </trkpt>
      <trkpt lat="44.2744" lon="0.56463">
        <ele>135.2</ele>
        <time>2023-05-29T13:10:08Z</time>
      </trkpt>
      <trkpt lat="44.2744" lon="0.56477">
        <ele>139.05</ele>
        <time>2023-05-29T13:10:14Z</time>
      </trkpt>
      <trkpt lat="44.27437" lon="0.56493">
        <ele>141.93</ele>
        <time>2023-05-29T13:10:20Z</time>
      </trkpt>
      <trkpt lat="44.27434" lon="0.56509">
        <ele>144.82</ele>
        <time>2023-05-29T13:10:27Z</time>
      </trkpt>
      <trkpt lat="44.27432" lon="0.56523">
        <ele>146.74</ele>
        <time>2023-05-29T13:10:33Z</time>
      </trkpt>
      <trkpt lat="44.27429" lon="0.56536">
        <ele>148.66</ele>
        <time>2023-05-29T13:10:39Z</time>
      </trkpt>
      <trkpt lat="44.27425" lon="0.5655">
        <ele>150.58</ele>
        <time>2023-05-29T13:10:46Z</time>
      </trkpt>
      <trkpt lat="44.2742" lon="0.56562">
        <ele>152.51</ele>
        <time>2023-05-29T13:10:53Z</time>
      </trkpt>
      <trkpt lat="44.27415" lon="0.56573">
        <ele>154.91</ele>
        <time>2023-05-29T13:11:00Z</time>
      </trkpt>
      <trkpt lat="44.27408" lon="0.56585">
        <ele>156.83</ele>
        <time>2023-05-29T13:11:08Z</time>
      </trkpt>
      <trkpt lat="44.27402" lon="0.56596">
        <ele>158.75</ele>
        <time>2023-05-29T13:11:15Z</time>
      </trkpt>
      <trkpt lat="44.27396" lon="0.56607">
        <ele>160.2</ele>
        <time>2023-05-29T13:11:22Z</time>
      </trkpt>
      <trkpt lat="44.2739" lon="0.56617">
        <ele>161.64</ele>
        <time>2023-05-29T13:11:29Z</time>
      </trkpt>
      <trkpt lat="44.27384" lon="0.5663">
        <ele>164.04</ele>
        <time>2023-05-29T13:11:37Z</time>
      </trkpt>
      <trkpt lat="44.27381" lon="0.56643">
        <ele>165.96</ele>
        <time>2023-05-29T13:11:46Z</time>
      </trkpt>
      <trkpt lat="44.27378" lon="0.56657">
        <ele>167.89</ele>
        <time>2023-05-29T13:11:55Z</time>
      </trkpt>
      <trkpt lat="44.27378" lon="0.56671">
        <ele>168.85</ele>
        <time>2023-05-29T13:12:02Z</time>
      </trkpt>
      <trkpt lat="44.27378" lon="0.56685">
        <ele>169.81</ele>
        <time>2023-05-29T13:12:10Z</time>
      </trkpt>
      <trkpt lat="44.27378" lon="0.567">
        <ele>171.73</ele>
        <time>2023-05-29T13:12:18Z</time>
      </trkpt>
      <trkpt lat="44.2738" lon="0.56715">
        <ele>173.17</ele>
        <time>2023-05-29T13:12:26Z</time>
      </trkpt>
      <trkpt lat="44.27382" lon="0.56728">
        <ele>174.14</ele>
        <time>2023-05-29T13:12:34Z</time>
      </trkpt>
      <trkpt lat="44.27386" lon="0.56741">
        <ele>175.1</ele>
        <time>2023-05-29T13:12:42Z</time>
      </trkpt>
      <trkpt lat="44.27388" lon="0.56756">
        <ele>175.1</ele>
        <time>2023-05-29T13:12:49Z</time>
      </trkpt>
      <trkpt lat="44.2739" lon="0.56771">
        <ele>174.14</ele>
        <time>2023-05-29T13:12:57Z</time>
      </trkpt>
      <trkpt lat="44.27392" lon="0.56786">
        <ele>173.66</ele>
        <time>2023-05-29T13:13:05Z</time>
      </trkpt>
      <trkpt lat="44.27394" lon="0.568">
        <ele>173.17</ele>
        <time>2023-05-29T13:13:12Z</time>
      </trkpt>
      <trkpt lat="44.27398" lon="0.56813">
        <ele>172.21</ele>
        <time>2023-05-29T13:13:19Z</time>
      </trkpt>
      <trkpt lat="44.27401" lon="0.56826">
        <ele>172.21</ele>
        <time>2023-05-29T13:13:26Z</time>
      </trkpt>
      <trkpt lat="44.27405" lon="0.5684">
        <ele>170.77</ele>
        <time>2023-05-29T13:13:35Z</time>
      </trkpt>
      <trkpt lat="44.27411" lon="0.56852">
        <ele>169.81</ele>
        <time>2023-05-29T13:13:42Z</time>
      </trkpt>
      <trkpt lat="44.27417" lon="0.56865">
        <ele>169.33</ele>
        <time>2023-05-29T13:13:49Z</time>
      </trkpt>
      <trkpt lat="44.27424" lon="0.56879">
        <ele>169.33</ele>
        <time>2023-05-29T13:13:56Z</time>
      </trkpt>
      <trkpt lat="44.2743" lon="0.56892">
        <ele>169.81</ele>
        <time>2023-05-29T13:14:04Z</time>
      </trkpt>
      <trkpt lat="44.27436" lon="0.56905">
        <ele>170.77</ele>
        <time>2023-05-29T13:14:11Z</time>
      </trkpt>
      <trkpt lat="44.27442" lon="0.56919">
        <ele>171.73</ele>
        <time>2023-05-29T13:14:19Z</time>
      </trkpt>
      <trkpt lat="44.27448" lon="0.56934">
        <ele>171.73</ele>
        <time>2023-05-29T13:14:27Z</time>
      </trkpt>
      <trkpt lat="44.27454" lon="0.56949">
        <ele>172.69</ele>
        <time>2023-05-29T13:14:34Z</time>
      </trkpt>
      <trkpt lat="44.27459" lon="0.56964">
        <ele>173.17</ele>
        <time>2023-05-29T13:14:41Z</time>
      </trkpt>
      <trkpt lat="44.27464" lon="0.56977">
        <ele>173.66</ele>
        <time>2023-05-29T13:14:49Z</time>
      </trkpt>
      <trkpt lat="44.2747" lon="0.56991">
        <ele>174.14</ele>
        <time>2023-05-29T13:14:55Z</time>
      </trkpt>
      <trkpt lat="44.27476" lon="0.57005">
        <ele>175.1</ele>
        <time>2023-05-29T13:15:02Z</time>
      </trkpt>
      <trkpt lat="44.2748" lon="0.5702">
        <ele>175.1</ele>
        <time>2023-05-29T13:15:10Z</time>
      </trkpt>
      <trkpt lat="44.27487" lon="0.57033">
        <ele>176.06</ele>
        <time>2023-05-29T13:15:17Z</time>
      </trkpt>
      <trkpt lat="44.27493" lon="0.57045">
        <ele>176.54</ele>
        <time>2023-05-29T13:15:23Z</time>
      </trkpt>
      <trkpt lat="44.275" lon="0.57057">
        <ele>177.5</ele>
        <time>2023-05-29T13:15:30Z</time>
      </trkpt>
      <trkpt lat="44.27506" lon="0.57069">
        <ele>177.5</ele>
        <time>2023-05-29T13:15:37Z</time>
      </trkpt>
      <trkpt lat="44.2751" lon="0.57082">
        <ele>177.5</ele>
        <time>2023-05-29T13:15:44Z</time>
      </trkpt>
      <trkpt lat="44.27514" lon="0.57096">
        <ele>177.98</ele>
        <time>2023-05-29T13:15:51Z</time>
      </trkpt>
      <trkpt lat="44.27518" lon="0.57108">
        <ele>177.02</ele>
        <time>2023-05-29T13:15:58Z</time>
      </trkpt>
      <trkpt lat="44.27522" lon="0.57121">
        <ele>177.02</ele>
        <time>2023-05-29T13:16:05Z</time>
      </trkpt>
      <trkpt lat="44.27526" lon="0.57136">
        <ele>177.02</ele>
        <time>2023-05-29T13:16:12Z</time>
      </trkpt>
      <trkpt lat="44.2753" lon="0.57148">
        <ele>176.54</ele>
        <time>2023-05-29T13:16:19Z</time>
      </trkpt>
      <trkpt lat="44.27537" lon="0.57161">
        <ele>174.14</ele>
        <time>2023-05-29T13:16:28Z</time>
      </trkpt>
      <trkpt lat="44.27545" lon="0.57173">
        <ele>172.21</ele>
        <time>2023-05-29T13:16:36Z</time>
      </trkpt>
      <trkpt lat="44.27553" lon="0.57192">
        <ele>172.21</ele>
        <time>2023-05-29T13:16:45Z</time>
      </trkpt>
      <trkpt lat="44.2756" lon="0.57209">
        <ele>172.69</ele>
        <time>2023-05-29T13:16:54Z</time>
      </trkpt>
      <trkpt lat="44.27568" lon="0.5722">
        <ele>173.17</ele>
        <time>2023-05-29T13:17:03Z</time>
      </trkpt>
      <trkpt lat="44.2757" lon="0.57236">
        <ele>173.66</ele>
        <time>2023-05-29T13:17:15Z</time>
      </trkpt>
      <trkpt lat="44.27571" lon="0.57253">
        <ele>174.14</ele>
        <time>2023-05-29T13:17:23Z</time>
      </trkpt>
      <trkpt lat="44.27571" lon="0.57276">
        <ele>174.62</ele>
        <time>2023-05-29T13:17:34Z</time>
      </trkpt>
      <trkpt lat="44.27573" lon="0.57291">
        <ele>175.1</ele>
        <time>2023-05-29T13:17:43Z</time>
      </trkpt>
      <trkpt lat="44.27582" lon="0.57304">
        <ele>176.54</ele>
        <time>2023-05-29T13:17:56Z</time>
      </trkpt>
      <trkpt lat="44.27579" lon="0.57305">
        <ele>178.94</ele>
        <time>2023-05-29T13:19:02Z</time>
      </trkpt>
      <trkpt lat="44.2757" lon="0.57301">
        <ele>176.06</ele>
        <time>2023-05-29T13:19:13Z</time>
      </trkpt>
      <trkpt lat="44.27566" lon="0.57313">
        <ele>174.14</ele>
        <time>2023-05-29T13:19:21Z</time>
      </trkpt>
      <trkpt lat="44.27566" lon="0.57328">
        <ele>171.73</ele>
        <time>2023-05-29T13:19:29Z</time>
      </trkpt>
      <trkpt lat="44.27564" lon="0.57348">
        <ele>171.25</ele>
        <time>2023-05-29T13:19:38Z</time>
      </trkpt>
      <trkpt lat="44.27564" lon="0.57368">
        <ele>170.77</ele>
        <time>2023-05-29T13:19:48Z</time>
      </trkpt>
      <trkpt lat="44.27558" lon="0.57383">
        <ele>170.77</ele>
        <time>2023-05-29T13:19:56Z</time>
      </trkpt>
      <trkpt lat="44.27551" lon="0.57392">
        <ele>167.89</ele>
        <time>2023-05-29T13:20:03Z</time>
      </trkpt>
      <trkpt lat="44.27543" lon="0.57401">
        <ele>165.48</ele>
        <time>2023-05-29T13:20:11Z</time>
      </trkpt>
      <trkpt lat="44.27537" lon="0.57415">
        <ele>163.56</ele>
        <time>2023-05-29T13:20:20Z</time>
      </trkpt>
      <trkpt lat="44.27535" lon="0.57432">
        <ele>161.64</ele>
        <time>2023-05-29T13:20:28Z</time>
      </trkpt>
      <trkpt lat="44.27538" lon="0.57447">
        <ele>160.68</ele>
        <time>2023-05-29T13:20:37Z</time>
      </trkpt>
      <trkpt lat="44.27545" lon="0.57458">
        <ele>159.72</ele>
        <time>2023-05-29T13:20:44Z</time>
      </trkpt>
      <trkpt lat="44.27553" lon="0.57468">
        <ele>158.75</ele>
        <time>2023-05-29T13:20:51Z</time>
      </trkpt>
      <trkpt lat="44.27561" lon="0.57478">
        <ele>157.79</ele>
        <time>2023-05-29T13:20:57Z</time>
      </trkpt>
      <trkpt lat="44.2757" lon="0.57489">
        <ele>157.31</ele>
        <time>2023-05-29T13:21:04Z</time>
      </trkpt>
      <trkpt lat="44.2758" lon="0.57502">
        <ele>156.35</ele>
        <time>2023-05-29T13:21:11Z</time>
      </trkpt>
      <trkpt lat="44.27588" lon="0.57514">
        <ele>154.91</ele>
        <time>2023-05-29T13:21:18Z</time>
      </trkpt>
      <trkpt lat="44.27594" lon="0.57527">
        <ele>154.43</ele>
        <time>2023-05-29T13:21:25Z</time>
      </trkpt>
      <trkpt lat="44.27597" lon="0.57542">
        <ele>152.99</ele>
        <time>2023-05-29T13:21:31Z</time>
      </trkpt>
      <trkpt lat="44.27597" lon="0.57557">
        <ele>151.54</ele>
        <time>2023-05-29T13:21:37Z</time>
      </trkpt>
      <trkpt lat="44.27594" lon="0.57575">
        <ele>150.58</ele>
        <time>2023-05-29T13:21:44Z</time>
      </trkpt>
      <trkpt lat="44.27592" lon="0.57588">
        <ele>150.1</ele>
        <time>2023-05-29T13:21:50Z</time>
      </trkpt>
      <trkpt lat="44.27584" lon="0.57597">
        <ele>148.18</ele>
        <time>2023-05-29T13:21:57Z</time>
      </trkpt>
      <trkpt lat="44.27572" lon="0.57607">
        <ele>146.74</ele>
        <time>2023-05-29T13:22:06Z</time>
      </trkpt>
      <trkpt lat="44.27563" lon="0.57621">
        <ele>142.89</ele>
        <time>2023-05-29T13:22:15Z</time>
      </trkpt>
      <trkpt lat="44.27555" lon="0.57635">
        <ele>140.01</ele>
        <time>2023-05-29T13:22:23Z</time>
      </trkpt>
      <trkpt lat="44.27548" lon="0.5765">
        <ele>139.05</ele>
        <time>2023-05-29T13:22:31Z</time>
      </trkpt>
      <trkpt lat="44.27541" lon="0.57661">
        <ele>137.61</ele>
        <time>2023-05-29T13:22:37Z</time>
      </trkpt>
      <trkpt lat="44.27534" lon="0.5768">
        <ele>136.64</ele>
        <time>2023-05-29T13:22:46Z</time>
      </trkpt>
      <trkpt lat="44.27529" lon="0.57697">
        <ele>136.16</ele>
        <time>2023-05-29T13:22:53Z</time>
      </trkpt>
      <trkpt lat="44.27526" lon="0.57712">
        <ele>136.64</ele>
        <time>2023-05-29T13:23:00Z</time>
      </trkpt>
      <trkpt lat="44.27522" lon="0.57732">
        <ele>136.64</ele>
        <time>2023-05-29T13:23:09Z</time>
      </trkpt>
      <trkpt lat="44.27516" lon="0.57748">
        <ele>136.16</ele>
        <time>2023-05-29T13:23:17Z</time>
      </trkpt>
      <trkpt lat="44.27509" lon="0.57765">
        <ele>134.24</ele>
        <time>2023-05-29T13:23:26Z</time>
      </trkpt>
      <trkpt lat="44.27503" lon="0.5778">
        <ele>129.43</ele>
        <time>2023-05-29T13:23:35Z</time>
      </trkpt>
      <trkpt lat="44.27506" lon="0.57797">
        <ele>124.63</ele>
        <time>2023-05-29T13:23:43Z</time>
      </trkpt>
      <trkpt lat="44.27514" lon="0.57811">
        <ele>124.15</ele>
        <time>2023-05-29T13:23:51Z</time>
      </trkpt>
      <trkpt lat="44.2752" lon="0.57823">
        <ele>124.63</ele>
        <time>2023-05-29T13:23:58Z</time>
      </trkpt>
      <trkpt lat="44.27535" lon="0.57855">
        <ele>124.15</ele>
        <time>2023-05-29T13:24:14Z</time>
      </trkpt>
      <trkpt lat="44.27545" lon="0.57864">
        <ele>123.67</ele>
        <time>2023-05-29T13:24:22Z</time>
      </trkpt>
      <trkpt lat="44.27553" lon="0.57874">
        <ele>125.11</ele>
        <time>2023-05-29T13:24:30Z</time>
      </trkpt>
      <trkpt lat="44.27565" lon="0.57895">
        <ele>127.99</ele>
        <time>2023-05-29T13:24:44Z</time>
      </trkpt>
      <trkpt lat="44.27575" lon="0.57915">
        <ele>130.88</ele>
        <time>2023-05-29T13:24:56Z</time>
      </trkpt>
      <trkpt lat="44.27585" lon="0.57933">
        <ele>131.84</ele>
        <time>2023-05-29T13:25:08Z</time>
      </trkpt>
      <trkpt lat="44.27617" lon="0.57961">
        <ele>141.93</ele>
        <time>2023-05-29T13:25:38Z</time>
      </trkpt>
      <trkpt lat="44.27648" lon="0.57994">
        <ele>141.93</ele>
        <time>2023-05-29T13:26:10Z</time>
      </trkpt>
      <trkpt lat="44.27674" lon="0.5802">
        <ele>140.01</ele>
        <time>2023-05-29T13:26:32Z</time>
      </trkpt>
      <trkpt lat="44.27689" lon="0.58026">
        <ele>134.72</ele>
        <time>2023-05-29T13:26:44Z</time>
      </trkpt>
      <trkpt lat="44.27706" lon="0.58032">
        <ele>130.4</ele>
        <time>2023-05-29T13:26:56Z</time>
      </trkpt>
      <trkpt lat="44.27725" lon="0.58079">
        <ele>132.8</ele>
        <time>2023-05-29T13:27:21Z</time>
      </trkpt>
      <trkpt lat="44.27732" lon="0.58094">
        <ele>135.68</ele>
        <time>2023-05-29T13:27:30Z</time>
      </trkpt>
      <trkpt lat="44.27738" lon="0.58108">
        <ele>136.64</ele>
        <time>2023-05-29T13:27:38Z</time>
      </trkpt>
      <trkpt lat="44.27745" lon="0.58123">
        <ele>138.57</ele>
        <time>2023-05-29T13:27:45Z</time>
      </trkpt>
      <trkpt lat="44.2775" lon="0.58139">
        <ele>140.97</ele>
        <time>2023-05-29T13:27:53Z</time>
      </trkpt>
      <trkpt lat="44.27756" lon="0.58153">
        <ele>143.85</ele>
        <time>2023-05-29T13:28:01Z</time>
      </trkpt>
      <trkpt lat="44.27763" lon="0.58164">
        <ele>145.78</ele>
        <time>2023-05-29T13:28:08Z</time>
      </trkpt>
      <trkpt lat="44.27771" lon="0.58168">
        <ele>148.18</ele>
        <time>2023-05-29T13:28:15Z</time>
      </trkpt>
      <trkpt lat="44.27781" lon="0.58165">
        <ele>150.1</ele>
        <time>2023-05-29T13:28:22Z</time>
      </trkpt>
      <trkpt lat="44.2779" lon="0.58163">
        <ele>153.47</ele>
        <time>2023-05-29T13:28:29Z</time>
      </trkpt>
      <trkpt lat="44.27801" lon="0.58162">
        <ele>155.87</ele>
        <time>2023-05-29T13:28:36Z</time>
      </trkpt>
      <trkpt lat="44.27809" lon="0.58168">
        <ele>158.27</ele>
        <time>2023-05-29T13:28:43Z</time>
      </trkpt>
      <trkpt lat="44.27811" lon="0.58181">
        <ele>159.72</ele>
        <time>2023-05-29T13:28:50Z</time>
      </trkpt>
      <trkpt lat="44.27814" lon="0.58194">
        <ele>160.2</ele>
        <time>2023-05-29T13:28:56Z</time>
      </trkpt>
      <trkpt lat="44.27818" lon="0.58207">
        <ele>159.24</ele>
        <time>2023-05-29T13:29:03Z</time>
      </trkpt>
      <trkpt lat="44.27822" lon="0.58221">
        <ele>156.83</ele>
        <time>2023-05-29T13:29:10Z</time>
      </trkpt>
      <trkpt lat="44.27827" lon="0.58231">
        <ele>154.91</ele>
        <time>2023-05-29T13:29:16Z</time>
      </trkpt>
      <trkpt lat="44.27833" lon="0.58245">
        <ele>152.03</ele>
        <time>2023-05-29T13:29:23Z</time>
      </trkpt>
      <trkpt lat="44.27837" lon="0.58257">
        <ele>149.62</ele>
        <time>2023-05-29T13:29:29Z</time>
      </trkpt>
      <trkpt lat="44.27843" lon="0.58271">
        <ele>147.7</ele>
        <time>2023-05-29T13:29:36Z</time>
      </trkpt>
      <trkpt lat="44.27845" lon="0.58286">
        <ele>146.74</ele>
        <time>2023-05-29T13:29:42Z</time>
      </trkpt>
      <trkpt lat="44.27845" lon="0.58301">
        <ele>145.78</ele>
        <time>2023-05-29T13:29:49Z</time>
      </trkpt>
      <trkpt lat="44.27845" lon="0.58316">
        <ele>145.78</ele>
        <time>2023-05-29T13:29:56Z</time>
      </trkpt>
      <trkpt lat="44.27844" lon="0.58329">
        <ele>145.78</ele>
        <time>2023-05-29T13:30:02Z</time>
      </trkpt>
      <trkpt lat="44.27844" lon="0.58343">
        <ele>146.26</ele>
        <time>2023-05-29T13:30:08Z</time>
      </trkpt>
      <trkpt lat="44.27844" lon="0.58357">
        <ele>146.26</ele>
        <time>2023-05-29T13:30:15Z</time>
      </trkpt>
      <trkpt lat="44.27843" lon="0.58373">
        <ele>147.7</ele>
        <time>2023-05-29T13:30:22Z</time>
      </trkpt>
      <trkpt lat="44.27837" lon="0.58388">
        <ele>149.14</ele>
        <time>2023-05-29T13:30:29Z</time>
      </trkpt>
      <trkpt lat="44.27832" lon="0.58401">
        <ele>148.66</ele>
        <time>2023-05-29T13:30:36Z</time>
      </trkpt>
      <trkpt lat="44.2783" lon="0.58414">
        <ele>148.18</ele>
        <time>2023-05-29T13:30:43Z</time>
      </trkpt>
      <trkpt lat="44.27828" lon="0.58428">
        <ele>148.66</ele>
        <time>2023-05-29T13:30:50Z</time>
      </trkpt>
      <trkpt lat="44.27826" lon="0.58441">
        <ele>149.62</ele>
        <time>2023-05-29T13:30:57Z</time>
      </trkpt>
      <trkpt lat="44.27824" lon="0.58455">
        <ele>150.1</ele>
        <time>2023-05-29T13:31:05Z</time>
      </trkpt>
      <trkpt lat="44.27822" lon="0.5847">
        <ele>150.58</ele>
        <time>2023-05-29T13:31:13Z</time>
      </trkpt>
      <trkpt lat="44.27821" lon="0.58485">
        <ele>150.58</ele>
        <time>2023-05-29T13:31:21Z</time>
      </trkpt>
      <trkpt lat="44.27821" lon="0.58501">
        <ele>149.62</ele>
        <time>2023-05-29T13:31:32Z</time>
      </trkpt>
      <trkpt lat="44.27818" lon="0.58534">
        <ele>141.93</ele>
        <time>2023-05-29T13:31:53Z</time>
      </trkpt>
      <trkpt lat="44.27815" lon="0.58561">
        <ele>139.53</ele>
        <time>2023-05-29T13:32:07Z</time>
      </trkpt>
      <trkpt lat="44.27816" lon="0.58581">
        <ele>137.61</ele>
        <time>2023-05-29T13:32:17Z</time>
      </trkpt>
      <trkpt lat="44.27816" lon="0.58597">
        <ele>136.16</ele>
        <time>2023-05-29T13:32:26Z</time>
      </trkpt>
      <trkpt lat="44.27806" lon="0.58673">
        <ele>138.09</ele>
        <time>2023-05-29T13:33:06Z</time>
      </trkpt>
      <trkpt lat="44.27803" lon="0.58689">
        <ele>139.53</ele>
        <time>2023-05-29T13:33:15Z</time>
      </trkpt>
      <trkpt lat="44.27799" lon="0.5874">
        <ele>142.41</ele>
        <time>2023-05-29T13:33:41Z</time>
      </trkpt>
      <trkpt lat="44.278" lon="0.58767">
        <ele>143.37</ele>
        <time>2023-05-29T13:33:55Z</time>
      </trkpt>
      <trkpt lat="44.27804" lon="0.58849">
        <ele>144.34</ele>
        <time>2023-05-29T13:34:34Z</time>
      </trkpt>
      <trkpt lat="44.27806" lon="0.58871">
        <ele>145.3</ele>
        <time>2023-05-29T13:34:44Z</time>
      </trkpt>
      <trkpt lat="44.27807" lon="0.58894">
        <ele>146.74</ele>
        <time>2023-05-29T13:34:58Z</time>
      </trkpt>
      <trkpt lat="44.27804" lon="0.58919">
        <ele>147.22</ele>
        <time>2023-05-29T13:35:08Z</time>
      </trkpt>
      <trkpt lat="44.27806" lon="0.58946">
        <ele>149.62</ele>
        <time>2023-05-29T13:35:24Z</time>
      </trkpt>
      <trkpt lat="44.27807" lon="0.58966">
        <ele>149.62</ele>
        <time>2023-05-29T13:35:32Z</time>
      </trkpt>
      <trkpt lat="44.27798" lon="0.59011">
        <ele>148.66</ele>
        <time>2023-05-29T13:35:55Z</time>
      </trkpt>
      <trkpt lat="44.27789" lon="0.59058">
        <ele>140.49</ele>
        <time>2023-05-29T13:36:20Z</time>
      </trkpt>
      <trkpt lat="44.27784" lon="0.59101">
        <ele>135.68</ele>
        <time>2023-05-29T13:36:41Z</time>
      </trkpt>
      <trkpt lat="44.27777" lon="0.59116">
        <ele>135.68</ele>
        <time>2023-05-29T13:36:49Z</time>
      </trkpt>
      <trkpt lat="44.27771" lon="0.59128">
        <ele>133.76</ele>
        <time>2023-05-29T13:36:56Z</time>
      </trkpt>
      <trkpt lat="44.27764" lon="0.59141">
        <ele>132.8</ele>
        <time>2023-05-29T13:37:04Z</time>
      </trkpt>
      <trkpt lat="44.27757" lon="0.5916">
        <ele>135.68</ele>
        <time>2023-05-29T13:37:12Z</time>
      </trkpt>
      <trkpt lat="44.27759" lon="0.59175">
        <ele>141.93</ele>
        <time>2023-05-29T13:37:22Z</time>
      </trkpt>
      <trkpt lat="44.27769" lon="0.59178">
        <ele>143.85</ele>
        <time>2023-05-29T13:37:29Z</time>
      </trkpt>
      <trkpt lat="44.27778" lon="0.59182">
        <ele>145.3</ele>
        <time>2023-05-29T13:37:36Z</time>
      </trkpt>
      <trkpt lat="44.27789" lon="0.59186">
        <ele>147.22</ele>
        <time>2023-05-29T13:37:44Z</time>
      </trkpt>
      <trkpt lat="44.27797" lon="0.59189">
        <ele>149.14</ele>
        <time>2023-05-29T13:37:50Z</time>
      </trkpt>
      <trkpt lat="44.27807" lon="0.59192">
        <ele>150.58</ele>
        <time>2023-05-29T13:37:56Z</time>
      </trkpt>
      <trkpt lat="44.27816" lon="0.59195">
        <ele>152.51</ele>
        <time>2023-05-29T13:38:03Z</time>
      </trkpt>
      <trkpt lat="44.27826" lon="0.59199">
        <ele>154.43</ele>
        <time>2023-05-29T13:38:10Z</time>
      </trkpt>
      <trkpt lat="44.27834" lon="0.59202">
        <ele>155.87</ele>
        <time>2023-05-29T13:38:16Z</time>
      </trkpt>
      <trkpt lat="44.27844" lon="0.59206">
        <ele>157.79</ele>
        <time>2023-05-29T13:38:23Z</time>
      </trkpt>
      <trkpt lat="44.27854" lon="0.59209">
        <ele>159.24</ele>
        <time>2023-05-29T13:38:30Z</time>
      </trkpt>
      <trkpt lat="44.27862" lon="0.59212">
        <ele>160.68</ele>
        <time>2023-05-29T13:38:37Z</time>
      </trkpt>
      <trkpt lat="44.27872" lon="0.59215">
        <ele>162.12</ele>
        <time>2023-05-29T13:38:44Z</time>
      </trkpt>
      <trkpt lat="44.27882" lon="0.59218">
        <ele>163.08</ele>
        <time>2023-05-29T13:38:51Z</time>
      </trkpt>
      <trkpt lat="44.27891" lon="0.5922">
        <ele>164.04</ele>
        <time>2023-05-29T13:38:59Z</time>
      </trkpt>
      <trkpt lat="44.27902" lon="0.59217">
        <ele>165</ele>
        <time>2023-05-29T13:39:07Z</time>
      </trkpt>
      <trkpt lat="44.2791" lon="0.5921">
        <ele>165.96</ele>
        <time>2023-05-29T13:39:14Z</time>
      </trkpt>
      <trkpt lat="44.27919" lon="0.59206">
        <ele>167.41</ele>
        <time>2023-05-29T13:39:21Z</time>
      </trkpt>
      <trkpt lat="44.27932" lon="0.59199">
        <ele>169.33</ele>
        <time>2023-05-29T13:39:31Z</time>
      </trkpt>
      <trkpt lat="44.27943" lon="0.59197">
        <ele>171.25</ele>
        <time>2023-05-29T13:39:40Z</time>
      </trkpt>
      <trkpt lat="44.27953" lon="0.5919">
        <ele>172.69</ele>
        <time>2023-05-29T13:39:48Z</time>
      </trkpt>
      <trkpt lat="44.27963" lon="0.59184">
        <ele>175.1</ele>
        <time>2023-05-29T13:39:56Z</time>
      </trkpt>
      <trkpt lat="44.27974" lon="0.59181">
        <ele>177.02</ele>
        <time>2023-05-29T13:40:03Z</time>
      </trkpt>
      <trkpt lat="44.27984" lon="0.59179">
        <ele>178.94</ele>
        <time>2023-05-29T13:40:10Z</time>
      </trkpt>
      <trkpt lat="44.27995" lon="0.59179">
        <ele>179.9</ele>
        <time>2023-05-29T13:40:17Z</time>
      </trkpt>
      <trkpt lat="44.28007" lon="0.5918">
        <ele>181.35</ele>
        <time>2023-05-29T13:40:24Z</time>
      </trkpt>
      <trkpt lat="44.28017" lon="0.59184">
        <ele>181.83</ele>
        <time>2023-05-29T13:40:32Z</time>
      </trkpt>
      <trkpt lat="44.28028" lon="0.59186">
        <ele>182.31</ele>
        <time>2023-05-29T13:40:39Z</time>
      </trkpt>
      <trkpt lat="44.28039" lon="0.5919">
        <ele>182.79</ele>
        <time>2023-05-29T13:40:46Z</time>
      </trkpt>
      <trkpt lat="44.28049" lon="0.59192">
        <ele>183.27</ele>
        <time>2023-05-29T13:40:52Z</time>
      </trkpt>
      <trkpt lat="44.28059" lon="0.59193">
        <ele>183.75</ele>
        <time>2023-05-29T13:40:58Z</time>
      </trkpt>
      <trkpt lat="44.28069" lon="0.59195">
        <ele>184.23</ele>
        <time>2023-05-29T13:41:04Z</time>
      </trkpt>
      <trkpt lat="44.2808" lon="0.59197">
        <ele>185.19</ele>
        <time>2023-05-29T13:41:11Z</time>
      </trkpt>
      <trkpt lat="44.2809" lon="0.59199">
        <ele>186.63</ele>
        <time>2023-05-29T13:41:18Z</time>
      </trkpt>
      <trkpt lat="44.281" lon="0.59207">
        <ele>188.08</ele>
        <time>2023-05-29T13:41:26Z</time>
      </trkpt>
      <trkpt lat="44.28106" lon="0.59221">
        <ele>189.52</ele>
        <time>2023-05-29T13:41:33Z</time>
      </trkpt>
      <trkpt lat="44.28111" lon="0.59234">
        <ele>189.52</ele>
        <time>2023-05-29T13:41:40Z</time>
      </trkpt>
      <trkpt lat="44.28116" lon="0.59247">
        <ele>188.56</ele>
        <time>2023-05-29T13:41:47Z</time>
      </trkpt>
      <trkpt lat="44.28121" lon="0.5926">
        <ele>187.59</ele>
        <time>2023-05-29T13:41:54Z</time>
      </trkpt>
      <trkpt lat="44.28123" lon="0.59275">
        <ele>187.11</ele>
        <time>2023-05-29T13:42:01Z</time>
      </trkpt>
      <trkpt lat="44.28126" lon="0.5929">
        <ele>186.63</ele>
        <time>2023-05-29T13:42:09Z</time>
      </trkpt>
      <trkpt lat="44.28129" lon="0.59306">
        <ele>187.11</ele>
        <time>2023-05-29T13:42:16Z</time>
      </trkpt>
      <trkpt lat="44.28129" lon="0.5932">
        <ele>187.11</ele>
        <time>2023-05-29T13:42:23Z</time>
      </trkpt>
      <trkpt lat="44.2813" lon="0.59335">
        <ele>188.08</ele>
        <time>2023-05-29T13:42:30Z</time>
      </trkpt>
      <trkpt lat="44.2813" lon="0.5935">
        <ele>188.56</ele>
        <time>2023-05-29T13:42:36Z</time>
      </trkpt>
      <trkpt lat="44.2813" lon="0.59365">
        <ele>189.52</ele>
        <time>2023-05-29T13:42:42Z</time>
      </trkpt>
      <trkpt lat="44.2813" lon="0.5938">
        <ele>190.96</ele>
        <time>2023-05-29T13:42:48Z</time>
      </trkpt>
      <trkpt lat="44.28129" lon="0.59394">
        <ele>191.92</ele>
        <time>2023-05-29T13:42:54Z</time>
      </trkpt>
      <trkpt lat="44.28129" lon="0.59408">
        <ele>192.88</ele>
        <time>2023-05-29T13:43:00Z</time>
      </trkpt>
      <trkpt lat="44.28129" lon="0.59421">
        <ele>193.36</ele>
        <time>2023-05-29T13:43:06Z</time>
      </trkpt>
      <trkpt lat="44.28128" lon="0.59436">
        <ele>194.32</ele>
        <time>2023-05-29T13:43:13Z</time>
      </trkpt>
      <trkpt lat="44.28128" lon="0.5945">
        <ele>195.28</ele>
        <time>2023-05-29T13:43:19Z</time>
      </trkpt>
      <trkpt lat="44.28128" lon="0.59465">
        <ele>195.28</ele>
        <time>2023-05-29T13:43:26Z</time>
      </trkpt>
      <trkpt lat="44.28129" lon="0.5948">
        <ele>195.28</ele>
        <time>2023-05-29T13:43:33Z</time>
      </trkpt>
      <trkpt lat="44.28133" lon="0.59491">
        <ele>194.8</ele>
        <time>2023-05-29T13:43:39Z</time>
      </trkpt>
      <trkpt lat="44.28142" lon="0.59491">
        <ele>193.36</ele>
        <time>2023-05-29T13:43:45Z</time>
      </trkpt>
      <trkpt lat="44.2815" lon="0.5948">
        <ele>192.88</ele>
        <time>2023-05-29T13:43:54Z</time>
      </trkpt>
      <trkpt lat="44.28159" lon="0.59472">
        <ele>191.44</ele>
        <time>2023-05-29T13:44:01Z</time>
      </trkpt>
      <trkpt lat="44.28168" lon="0.59461">
        <ele>190</ele>
        <time>2023-05-29T13:44:08Z</time>
      </trkpt>
      <trkpt lat="44.28178" lon="0.5945">
        <ele>189.52</ele>
        <time>2023-05-29T13:44:14Z</time>
      </trkpt>
      <trkpt lat="44.28187" lon="0.5944">
        <ele>188.56</ele>
        <time>2023-05-29T13:44:21Z</time>
      </trkpt>
      <trkpt lat="44.28198" lon="0.59431">
        <ele>188.08</ele>
        <time>2023-05-29T13:44:30Z</time>
      </trkpt>
      <trkpt lat="44.2821" lon="0.59427">
        <ele>186.15</ele>
        <time>2023-05-29T13:44:38Z</time>
      </trkpt>
      <trkpt lat="44.28227" lon="0.59426">
        <ele>181.35</ele>
        <time>2023-05-29T13:44:49Z</time>
      </trkpt>
      <trkpt lat="44.2824" lon="0.59424">
        <ele>178.94</ele>
        <time>2023-05-29T13:44:56Z</time>
      </trkpt>
      <trkpt lat="44.28251" lon="0.59423">
        <ele>176.54</ele>
        <time>2023-05-29T13:45:03Z</time>
      </trkpt>
      <trkpt lat="44.28276" lon="0.59416">
        <ele>173.66</ele>
        <time>2023-05-29T13:45:18Z</time>
      </trkpt>
      <trkpt lat="44.28304" lon="0.59416">
        <ele>170.29</ele>
        <time>2023-05-29T13:45:35Z</time>
      </trkpt>
      <trkpt lat="44.28334" lon="0.59428">
        <ele>166.45</ele>
        <time>2023-05-29T13:45:54Z</time>
      </trkpt>
      <trkpt lat="44.28351" lon="0.59431">
        <ele>164.52</ele>
        <time>2023-05-29T13:46:04Z</time>
      </trkpt>
      <trkpt lat="44.28365" lon="0.59434">
        <ele>163.56</ele>
        <time>2023-05-29T13:46:13Z</time>
      </trkpt>
      <trkpt lat="44.2838" lon="0.59438">
        <ele>161.64</ele>
        <time>2023-05-29T13:46:21Z</time>
      </trkpt>
      <trkpt lat="44.28394" lon="0.59442">
        <ele>159.24</ele>
        <time>2023-05-29T13:46:28Z</time>
      </trkpt>
      <trkpt lat="44.28405" lon="0.59444">
        <ele>158.27</ele>
        <time>2023-05-29T13:46:34Z</time>
      </trkpt>
      <trkpt lat="44.28416" lon="0.59446">
        <ele>156.83</ele>
        <time>2023-05-29T13:46:40Z</time>
      </trkpt>
      <trkpt lat="44.28427" lon="0.59449">
        <ele>155.87</ele>
        <time>2023-05-29T13:46:46Z</time>
      </trkpt>
      <trkpt lat="44.28438" lon="0.59451">
        <ele>155.39</ele>
        <time>2023-05-29T13:46:52Z</time>
      </trkpt>
      <trkpt lat="44.28449" lon="0.59452">
        <ele>154.91</ele>
        <time>2023-05-29T13:46:58Z</time>
      </trkpt>
      <trkpt lat="44.28459" lon="0.59452">
        <ele>154.43</ele>
        <time>2023-05-29T13:47:05Z</time>
      </trkpt>
      <trkpt lat="44.2847" lon="0.59453">
        <ele>153.47</ele>
        <time>2023-05-29T13:47:12Z</time>
      </trkpt>
      <trkpt lat="44.2848" lon="0.59455">
        <ele>152.51</ele>
        <time>2023-05-29T13:47:19Z</time>
      </trkpt>
      <trkpt lat="44.28493" lon="0.59456">
        <ele>150.1</ele>
        <time>2023-05-29T13:47:28Z</time>
      </trkpt>
      <trkpt lat="44.28513" lon="0.5946">
        <ele>147.22</ele>
        <time>2023-05-29T13:47:42Z</time>
      </trkpt>
      <trkpt lat="44.28531" lon="0.59469">
        <ele>147.7</ele>
        <time>2023-05-29T13:47:52Z</time>
      </trkpt>
      <trkpt lat="44.28544" lon="0.59475">
        <ele>149.62</ele>
        <time>2023-05-29T13:47:58Z</time>
      </trkpt>
      <trkpt lat="44.28555" lon="0.59478">
        <ele>151.06</ele>
        <time>2023-05-29T13:48:05Z</time>
      </trkpt>
      <trkpt lat="44.28564" lon="0.59479">
        <ele>152.03</ele>
        <time>2023-05-29T13:48:12Z</time>
      </trkpt>
      <trkpt lat="44.28574" lon="0.59481">
        <ele>152.51</ele>
        <time>2023-05-29T13:48:20Z</time>
      </trkpt>
      <trkpt lat="44.28583" lon="0.59484">
        <ele>152.99</ele>
        <time>2023-05-29T13:48:26Z</time>
      </trkpt>
      <trkpt lat="44.28593" lon="0.59487">
        <ele>153.95</ele>
        <time>2023-05-29T13:48:33Z</time>
      </trkpt>
      <trkpt lat="44.28602" lon="0.59489">
        <ele>155.87</ele>
        <time>2023-05-29T13:48:40Z</time>
      </trkpt>
      <trkpt lat="44.28612" lon="0.59493">
        <ele>157.79</ele>
        <time>2023-05-29T13:48:48Z</time>
      </trkpt>
      <trkpt lat="44.28621" lon="0.59494">
        <ele>159.72</ele>
        <time>2023-05-29T13:48:56Z</time>
      </trkpt>
      <trkpt lat="44.28632" lon="0.59497">
        <ele>160.68</ele>
        <time>2023-05-29T13:49:04Z</time>
      </trkpt>
      <trkpt lat="44.28642" lon="0.595">
        <ele>163.08</ele>
        <time>2023-05-29T13:49:12Z</time>
      </trkpt>
      <trkpt lat="44.28652" lon="0.59503">
        <ele>163.08</ele>
        <time>2023-05-29T13:49:22Z</time>
      </trkpt>
      <trkpt lat="44.28662" lon="0.59507">
        <ele>162.6</ele>
        <time>2023-05-29T13:49:32Z</time>
      </trkpt>
      <trkpt lat="44.28673" lon="0.5951">
        <ele>163.56</ele>
        <time>2023-05-29T13:49:40Z</time>
      </trkpt>
      <trkpt lat="44.28684" lon="0.59513">
        <ele>165.48</ele>
        <time>2023-05-29T13:49:48Z</time>
      </trkpt>
      <trkpt lat="44.28695" lon="0.59517">
        <ele>167.41</ele>
        <time>2023-05-29T13:49:58Z</time>
      </trkpt>
      <trkpt lat="44.28706" lon="0.59518">
        <ele>169.81</ele>
        <time>2023-05-29T13:50:06Z</time>
      </trkpt>
      <trkpt lat="44.28716" lon="0.59521">
        <ele>171.73</ele>
        <time>2023-05-29T13:50:15Z</time>
      </trkpt>
      <trkpt lat="44.28731" lon="0.59528">
        <ele>174.62</ele>
        <time>2023-05-29T13:50:25Z</time>
      </trkpt>
      <trkpt lat="44.28743" lon="0.59537">
        <ele>177.5</ele>
        <time>2023-05-29T13:50:32Z</time>
      </trkpt>
      <trkpt lat="44.28752" lon="0.59543">
        <ele>179.42</ele>
        <time>2023-05-29T13:50:38Z</time>
      </trkpt>
      <trkpt lat="44.28763" lon="0.59548">
        <ele>181.35</ele>
        <time>2023-05-29T13:50:45Z</time>
      </trkpt>
      <trkpt lat="44.28771" lon="0.59552">
        <ele>183.27</ele>
        <time>2023-05-29T13:50:51Z</time>
      </trkpt>
      <trkpt lat="44.28781" lon="0.59557">
        <ele>184.71</ele>
        <time>2023-05-29T13:50:58Z</time>
      </trkpt>
      <trkpt lat="44.2879" lon="0.59562">
        <ele>185.19</ele>
        <time>2023-05-29T13:51:04Z</time>
      </trkpt>
      <trkpt lat="44.28799" lon="0.59566">
        <ele>186.15</ele>
        <time>2023-05-29T13:51:10Z</time>
      </trkpt>
      <trkpt lat="44.28807" lon="0.5957">
        <ele>187.11</ele>
        <time>2023-05-29T13:51:16Z</time>
      </trkpt>
      <trkpt lat="44.28817" lon="0.59575">
        <ele>188.56</ele>
        <time>2023-05-29T13:51:23Z</time>
      </trkpt>
      <trkpt lat="44.28826" lon="0.59579">
        <ele>189.52</ele>
        <time>2023-05-29T13:51:29Z</time>
      </trkpt>
      <trkpt lat="44.28835" lon="0.59582">
        <ele>190.48</ele>
        <time>2023-05-29T13:51:35Z</time>
      </trkpt>
      <trkpt lat="44.28844" lon="0.59585">
        <ele>191.92</ele>
        <time>2023-05-29T13:51:41Z</time>
      </trkpt>
      <trkpt lat="44.28853" lon="0.59589">
        <ele>192.88</ele>
        <time>2023-05-29T13:51:48Z</time>
      </trkpt>
      <trkpt lat="44.28863" lon="0.59593">
        <ele>193.36</ele>
        <time>2023-05-29T13:51:55Z</time>
      </trkpt>
      <trkpt lat="44.28872" lon="0.59596">
        <ele>193.84</ele>
        <time>2023-05-29T13:52:01Z</time>
      </trkpt>
      <trkpt lat="44.28883" lon="0.59599">
        <ele>193.84</ele>
        <time>2023-05-29T13:52:07Z</time>
      </trkpt>
      <trkpt lat="44.28893" lon="0.59601">
        <ele>193.84</ele>
        <time>2023-05-29T13:52:13Z</time>
      </trkpt>
      <trkpt lat="44.28902" lon="0.59603">
        <ele>193.84</ele>
        <time>2023-05-29T13:52:19Z</time>
      </trkpt>
      <trkpt lat="44.28911" lon="0.59601">
        <ele>193.36</ele>
        <time>2023-05-29T13:52:26Z</time>
      </trkpt>
      <trkpt lat="44.28922" lon="0.596">
        <ele>193.36</ele>
        <time>2023-05-29T13:52:34Z</time>
      </trkpt>
      <trkpt lat="44.28933" lon="0.59598">
        <ele>192.88</ele>
        <time>2023-05-29T13:52:42Z</time>
      </trkpt>
      <trkpt lat="44.28944" lon="0.59599">
        <ele>192.88</ele>
        <time>2023-05-29T13:52:49Z</time>
      </trkpt>
      <trkpt lat="44.28955" lon="0.59598">
        <ele>191.92</ele>
        <time>2023-05-29T13:52:55Z</time>
      </trkpt>
      <trkpt lat="44.28966" lon="0.59597">
        <ele>191.44</ele>
        <time>2023-05-29T13:53:01Z</time>
      </trkpt>
      <trkpt lat="44.28975" lon="0.59595">
        <ele>190.96</ele>
        <time>2023-05-29T13:53:08Z</time>
      </trkpt>
      <trkpt lat="44.28986" lon="0.59593">
        <ele>190</ele>
        <time>2023-05-29T13:53:16Z</time>
      </trkpt>
      <trkpt lat="44.28997" lon="0.59591">
        <ele>189.04</ele>
        <time>2023-05-29T13:53:23Z</time>
      </trkpt>
      <trkpt lat="44.29009" lon="0.5959">
        <ele>188.08</ele>
        <time>2023-05-29T13:53:29Z</time>
      </trkpt>
      <trkpt lat="44.29019" lon="0.59588">
        <ele>187.11</ele>
        <time>2023-05-29T13:53:35Z</time>
      </trkpt>
      <trkpt lat="44.2903" lon="0.59587">
        <ele>186.63</ele>
        <time>2023-05-29T13:53:41Z</time>
      </trkpt>
      <trkpt lat="44.29041" lon="0.59585">
        <ele>186.15</ele>
        <time>2023-05-29T13:53:47Z</time>
      </trkpt>
      <trkpt lat="44.29052" lon="0.59582">
        <ele>185.19</ele>
        <time>2023-05-29T13:53:53Z</time>
      </trkpt>
      <trkpt lat="44.29061" lon="0.59582">
        <ele>184.23</ele>
        <time>2023-05-29T13:53:58Z</time>
      </trkpt>
      <trkpt lat="44.2907" lon="0.59586">
        <ele>184.23</ele>
        <time>2023-05-29T13:54:04Z</time>
      </trkpt>
      <trkpt lat="44.29077" lon="0.59595">
        <ele>184.23</ele>
        <time>2023-05-29T13:54:11Z</time>
      </trkpt>
      <trkpt lat="44.29076" lon="0.59609">
        <ele>184.71</ele>
        <time>2023-05-29T13:54:17Z</time>
      </trkpt>
      <trkpt lat="44.29072" lon="0.59624">
        <ele>184.23</ele>
        <time>2023-05-29T13:54:24Z</time>
      </trkpt>
      <trkpt lat="44.29067" lon="0.5964">
        <ele>183.75</ele>
        <time>2023-05-29T13:54:31Z</time>
      </trkpt>
      <trkpt lat="44.29066" lon="0.59654">
        <ele>183.75</ele>
        <time>2023-05-29T13:54:38Z</time>
      </trkpt>
      <trkpt lat="44.29065" lon="0.5967">
        <ele>184.23</ele>
        <time>2023-05-29T13:54:45Z</time>
      </trkpt>
      <trkpt lat="44.29065" lon="0.59684">
        <ele>184.71</ele>
        <time>2023-05-29T13:54:52Z</time>
      </trkpt>
      <trkpt lat="44.29068" lon="0.59697">
        <ele>185.19</ele>
        <time>2023-05-29T13:54:59Z</time>
      </trkpt>
      <trkpt lat="44.29073" lon="0.59706">
        <ele>184.71</ele>
        <time>2023-05-29T13:55:07Z</time>
      </trkpt>
      <trkpt lat="44.29083" lon="0.59713">
        <ele>184.23</ele>
        <time>2023-05-29T13:55:15Z</time>
      </trkpt>
      <trkpt lat="44.29098" lon="0.59722">
        <ele>186.15</ele>
        <time>2023-05-29T13:55:22Z</time>
      </trkpt>
      <trkpt lat="44.29107" lon="0.59731">
        <ele>186.15</ele>
        <time>2023-05-29T13:55:30Z</time>
      </trkpt>
      <trkpt lat="44.29121" lon="0.59742">
        <ele>185.67</ele>
        <time>2023-05-29T13:55:39Z</time>
      </trkpt>
      <trkpt lat="44.29132" lon="0.59751">
        <ele>184.71</ele>
        <time>2023-05-29T13:55:47Z</time>
      </trkpt>
      <trkpt lat="44.29142" lon="0.59761">
        <ele>184.71</ele>
        <time>2023-05-29T13:55:55Z</time>
      </trkpt>
      <trkpt lat="44.29151" lon="0.59768">
        <ele>185.19</ele>
        <time>2023-05-29T13:56:01Z</time>
      </trkpt>
      <trkpt lat="44.29159" lon="0.59776">
        <ele>185.19</ele>
        <time>2023-05-29T13:56:07Z</time>
      </trkpt>
      <trkpt lat="44.29168" lon="0.59783">
        <ele>184.71</ele>
        <time>2023-05-29T13:56:15Z</time>
      </trkpt>
      <trkpt lat="44.29179" lon="0.59793">
        <ele>183.75</ele>
        <time>2023-05-29T13:56:24Z</time>
      </trkpt>
      <trkpt lat="44.2919" lon="0.59803">
        <ele>182.79</ele>
        <time>2023-05-29T13:56:32Z</time>
      </trkpt>
      <trkpt lat="44.292" lon="0.59816">
        <ele>181.83</ele>
        <time>2023-05-29T13:56:41Z</time>
      </trkpt>
      <trkpt lat="44.29214" lon="0.59828">
        <ele>181.83</ele>
        <time>2023-05-29T13:56:48Z</time>
      </trkpt>
      <trkpt lat="44.29227" lon="0.59842">
        <ele>179.9</ele>
        <time>2023-05-29T13:56:55Z</time>
      </trkpt>
      <trkpt lat="44.29234" lon="0.59856">
        <ele>178.94</ele>
        <time>2023-05-29T13:57:03Z</time>
      </trkpt>
      <trkpt lat="44.29242" lon="0.59867">
        <ele>177.5</ele>
        <time>2023-05-29T13:57:10Z</time>
      </trkpt>
      <trkpt lat="44.29253" lon="0.59876">
        <ele>177.98</ele>
        <time>2023-05-29T13:57:17Z</time>
      </trkpt>
      <trkpt lat="44.29262" lon="0.59883">
        <ele>178.46</ele>
        <time>2023-05-29T13:57:24Z</time>
      </trkpt>
      <trkpt lat="44.29274" lon="0.59885">
        <ele>177.5</ele>
        <time>2023-05-29T13:57:33Z</time>
      </trkpt>
      <trkpt lat="44.29282" lon="0.59873">
        <ele>176.06</ele>
        <time>2023-05-29T13:57:42Z</time>
      </trkpt>
      <trkpt lat="44.29288" lon="0.5985">
        <ele>172.69</ele>
        <time>2023-05-29T13:57:57Z</time>
      </trkpt>
      <trkpt lat="44.2931" lon="0.59839">
        <ele>169.33</ele>
        <time>2023-05-29T13:58:11Z</time>
      </trkpt>
      <trkpt lat="44.29322" lon="0.59847">
        <ele>168.85</ele>
        <time>2023-05-29T13:58:17Z</time>
      </trkpt>
      <trkpt lat="44.29334" lon="0.59853">
        <ele>169.33</ele>
        <time>2023-05-29T13:58:23Z</time>
      </trkpt>
      <trkpt lat="44.29344" lon="0.5986">
        <ele>168.37</ele>
        <time>2023-05-29T13:58:29Z</time>
      </trkpt>
      <trkpt lat="44.29353" lon="0.59868">
        <ele>166.45</ele>
        <time>2023-05-29T13:58:35Z</time>
      </trkpt>
      <trkpt lat="44.29362" lon="0.59874">
        <ele>164.52</ele>
        <time>2023-05-29T13:58:41Z</time>
      </trkpt>
      <trkpt lat="44.2937" lon="0.5988">
        <ele>163.08</ele>
        <time>2023-05-29T13:58:47Z</time>
      </trkpt>
      <trkpt lat="44.29378" lon="0.59886">
        <ele>161.64</ele>
        <time>2023-05-29T13:58:53Z</time>
      </trkpt>
      <trkpt lat="44.29386" lon="0.59892">
        <ele>159.72</ele>
        <time>2023-05-29T13:58:59Z</time>
      </trkpt>
      <trkpt lat="44.29395" lon="0.59898">
        <ele>156.83</ele>
        <time>2023-05-29T13:59:05Z</time>
      </trkpt>
      <trkpt lat="44.29403" lon="0.59905">
        <ele>153.95</ele>
        <time>2023-05-29T13:59:11Z</time>
      </trkpt>
      <trkpt lat="44.29412" lon="0.59911">
        <ele>151.06</ele>
        <time>2023-05-29T13:59:17Z</time>
      </trkpt>
      <trkpt lat="44.29421" lon="0.59917">
        <ele>149.62</ele>
        <time>2023-05-29T13:59:23Z</time>
      </trkpt>
      <trkpt lat="44.2943" lon="0.5992">
        <ele>148.66</ele>
        <time>2023-05-29T13:59:29Z</time>
      </trkpt>
      <trkpt lat="44.2944" lon="0.59918">
        <ele>146.74</ele>
        <time>2023-05-29T13:59:38Z</time>
      </trkpt>
      <trkpt lat="44.29452" lon="0.59915">
        <ele>144.34</ele>
        <time>2023-05-29T13:59:49Z</time>
      </trkpt>
      <trkpt lat="44.29465" lon="0.59908">
        <ele>141.93</ele>
        <time>2023-05-29T13:59:57Z</time>
      </trkpt>
      <trkpt lat="44.29476" lon="0.59905">
        <ele>140.49</ele>
        <time>2023-05-29T14:00:04Z</time>
      </trkpt>
      <trkpt lat="44.29487" lon="0.599">
        <ele>138.09</ele>
        <time>2023-05-29T14:00:12Z</time>
      </trkpt>
      <trkpt lat="44.29502" lon="0.59899">
        <ele>139.53</ele>
        <time>2023-05-29T14:00:19Z</time>
      </trkpt>
      <trkpt lat="44.29514" lon="0.59901">
        <ele>140.97</ele>
        <time>2023-05-29T14:00:26Z</time>
      </trkpt>
      <trkpt lat="44.29525" lon="0.59903">
        <ele>141.45</ele>
        <time>2023-05-29T14:00:34Z</time>
      </trkpt>
      <trkpt lat="44.29536" lon="0.59902">
        <ele>141.93</ele>
        <time>2023-05-29T14:00:42Z</time>
      </trkpt>
      <trkpt lat="44.29549" lon="0.59901">
        <ele>141.93</ele>
        <time>2023-05-29T14:00:50Z</time>
      </trkpt>
      <trkpt lat="44.29561" lon="0.59901">
        <ele>142.89</ele>
        <time>2023-05-29T14:00:58Z</time>
      </trkpt>
      <trkpt lat="44.29571" lon="0.59897">
        <ele>142.89</ele>
        <time>2023-05-29T14:01:07Z</time>
      </trkpt>
      <trkpt lat="44.29583" lon="0.59895">
        <ele>143.37</ele>
        <time>2023-05-29T14:01:16Z</time>
      </trkpt>
      <trkpt lat="44.29597" lon="0.59892">
        <ele>146.26</ele>
        <time>2023-05-29T14:01:25Z</time>
      </trkpt>
      <trkpt lat="44.29612" lon="0.59889">
        <ele>149.14</ele>
        <time>2023-05-29T14:01:34Z</time>
      </trkpt>
      <trkpt lat="44.29627" lon="0.59886">
        <ele>152.51</ele>
        <time>2023-05-29T14:01:40Z</time>
      </trkpt>
      <trkpt lat="44.29638" lon="0.59884">
        <ele>154.43</ele>
        <time>2023-05-29T14:01:48Z</time>
      </trkpt>
      <trkpt lat="44.29651" lon="0.59882">
        <ele>156.35</ele>
        <time>2023-05-29T14:01:59Z</time>
      </trkpt>
      <trkpt lat="44.29663" lon="0.59878">
        <ele>157.79</ele>
        <time>2023-05-29T14:02:08Z</time>
      </trkpt>
      <trkpt lat="44.29676" lon="0.59868">
        <ele>159.24</ele>
        <time>2023-05-29T14:02:23Z</time>
      </trkpt>
      <trkpt lat="44.29686" lon="0.59854">
        <ele>161.16</ele>
        <time>2023-05-29T14:02:32Z</time>
      </trkpt>
      <trkpt lat="44.29693" lon="0.59837">
        <ele>162.12</ele>
        <time>2023-05-29T14:02:41Z</time>
      </trkpt>
      <trkpt lat="44.29704" lon="0.5982">
        <ele>164.52</ele>
        <time>2023-05-29T14:02:51Z</time>
      </trkpt>
      <trkpt lat="44.29721" lon="0.59817">
        <ele>167.41</ele>
        <time>2023-05-29T14:02:58Z</time>
      </trkpt>
      <trkpt lat="44.29732" lon="0.5982">
        <ele>171.25</ele>
        <time>2023-05-29T14:03:05Z</time>
      </trkpt>
      <trkpt lat="44.29743" lon="0.59822">
        <ele>174.14</ele>
        <time>2023-05-29T14:03:12Z</time>
      </trkpt>
      <trkpt lat="44.29753" lon="0.59825">
        <ele>176.54</ele>
        <time>2023-05-29T14:03:19Z</time>
      </trkpt>
      <trkpt lat="44.29763" lon="0.59828">
        <ele>180.38</ele>
        <time>2023-05-29T14:03:27Z</time>
      </trkpt>
      <trkpt lat="44.29775" lon="0.59829">
        <ele>182.31</ele>
        <time>2023-05-29T14:03:35Z</time>
      </trkpt>
      <trkpt lat="44.29787" lon="0.5983">
        <ele>184.23</ele>
        <time>2023-05-29T14:03:43Z</time>
      </trkpt>
      <trkpt lat="44.298" lon="0.59831">
        <ele>184.23</ele>
        <time>2023-05-29T14:03:55Z</time>
      </trkpt>
      <trkpt lat="44.29811" lon="0.59832">
        <ele>184.23</ele>
        <time>2023-05-29T14:04:02Z</time>
      </trkpt>
      <trkpt lat="44.29821" lon="0.5983">
        <ele>184.71</ele>
        <time>2023-05-29T14:04:10Z</time>
      </trkpt>
      <trkpt lat="44.29832" lon="0.59848">
        <ele>188.56</ele>
        <time>2023-05-29T14:04:39Z</time>
      </trkpt>
      <trkpt lat="44.29833" lon="0.59861">
        <ele>188.56</ele>
        <time>2023-05-29T14:04:48Z</time>
      </trkpt>
      <trkpt lat="44.29835" lon="0.59875">
        <ele>188.08</ele>
        <time>2023-05-29T14:04:56Z</time>
      </trkpt>
      <trkpt lat="44.29837" lon="0.5989">
        <ele>188.08</ele>
        <time>2023-05-29T14:05:03Z</time>
      </trkpt>
      <trkpt lat="44.29839" lon="0.59904">
        <ele>187.59</ele>
        <time>2023-05-29T14:05:10Z</time>
      </trkpt>
      <trkpt lat="44.2984" lon="0.59916">
        <ele>187.59</ele>
        <time>2023-05-29T14:05:16Z</time>
      </trkpt>
      <trkpt lat="44.29841" lon="0.59929">
        <ele>188.08</ele>
        <time>2023-05-29T14:05:22Z</time>
      </trkpt>
      <trkpt lat="44.29843" lon="0.59943">
        <ele>188.08</ele>
        <time>2023-05-29T14:05:29Z</time>
      </trkpt>
      <trkpt lat="44.29844" lon="0.59956">
        <ele>188.56</ele>
        <time>2023-05-29T14:05:35Z</time>
      </trkpt>
      <trkpt lat="44.29845" lon="0.59969">
        <ele>188.08</ele>
        <time>2023-05-29T14:05:41Z</time>
      </trkpt>
      <trkpt lat="44.29846" lon="0.59983">
        <ele>187.59</ele>
        <time>2023-05-29T14:05:48Z</time>
      </trkpt>
      <trkpt lat="44.29847" lon="0.59998">
        <ele>187.11</ele>
        <time>2023-05-29T14:05:55Z</time>
      </trkpt>
      <trkpt lat="44.29849" lon="0.60013">
        <ele>186.63</ele>
        <time>2023-05-29T14:06:02Z</time>
      </trkpt>
      <trkpt lat="44.29851" lon="0.60026">
        <ele>186.15</ele>
        <time>2023-05-29T14:06:08Z</time>
      </trkpt>
      <trkpt lat="44.29852" lon="0.6004">
        <ele>185.67</ele>
        <time>2023-05-29T14:06:15Z</time>
      </trkpt>
      <trkpt lat="44.29853" lon="0.60054">
        <ele>185.19</ele>
        <time>2023-05-29T14:06:21Z</time>
      </trkpt>
      <trkpt lat="44.29854" lon="0.60068">
        <ele>184.71</ele>
        <time>2023-05-29T14:06:28Z</time>
      </trkpt>
      <trkpt lat="44.29855" lon="0.60082">
        <ele>183.75</ele>
        <time>2023-05-29T14:06:35Z</time>
      </trkpt>
      <trkpt lat="44.29856" lon="0.60095">
        <ele>182.31</ele>
        <time>2023-05-29T14:06:42Z</time>
      </trkpt>
      <trkpt lat="44.29858" lon="0.60108">
        <ele>180.87</ele>
        <time>2023-05-29T14:06:48Z</time>
      </trkpt>
      <trkpt lat="44.29859" lon="0.60123">
        <ele>179.9</ele>
        <time>2023-05-29T14:06:55Z</time>
      </trkpt>
      <trkpt lat="44.2986" lon="0.60137">
        <ele>179.42</ele>
        <time>2023-05-29T14:07:02Z</time>
      </trkpt>
      <trkpt lat="44.29861" lon="0.60151">
        <ele>178.94</ele>
        <time>2023-05-29T14:07:09Z</time>
      </trkpt>
      <trkpt lat="44.29863" lon="0.60167">
        <ele>178.46</ele>
        <time>2023-05-29T14:07:16Z</time>
      </trkpt>
      <trkpt lat="44.29864" lon="0.6018">
        <ele>178.46</ele>
        <time>2023-05-29T14:07:22Z</time>
      </trkpt>
      <trkpt lat="44.29865" lon="0.60195">
        <ele>178.94</ele>
        <time>2023-05-29T14:07:30Z</time>
      </trkpt>
      <trkpt lat="44.29867" lon="0.60209">
        <ele>179.42</ele>
        <time>2023-05-29T14:07:37Z</time>
      </trkpt>
      <trkpt lat="44.29867" lon="0.60222">
        <ele>179.42</ele>
        <time>2023-05-29T14:07:44Z</time>
      </trkpt>
      <trkpt lat="44.29868" lon="0.60237">
        <ele>179.42</ele>
        <time>2023-05-29T14:07:51Z</time>
      </trkpt>
      <trkpt lat="44.29869" lon="0.6025">
        <ele>179.9</ele>
        <time>2023-05-29T14:07:58Z</time>
      </trkpt>
      <trkpt lat="44.29868" lon="0.60263">
        <ele>180.87</ele>
        <time>2023-05-29T14:08:05Z</time>
      </trkpt>
      <trkpt lat="44.29867" lon="0.60276">
        <ele>181.83</ele>
        <time>2023-05-29T14:08:12Z</time>
      </trkpt>
      <trkpt lat="44.29864" lon="0.60293">
        <ele>183.27</ele>
        <time>2023-05-29T14:08:23Z</time>
      </trkpt>
      <trkpt lat="44.29862" lon="0.60308">
        <ele>183.75</ele>
        <time>2023-05-29T14:08:30Z</time>
      </trkpt>
      <trkpt lat="44.2986" lon="0.60321">
        <ele>184.23</ele>
        <time>2023-05-29T14:08:37Z</time>
      </trkpt>
      <trkpt lat="44.29856" lon="0.60335">
        <ele>184.23</ele>
        <time>2023-05-29T14:08:46Z</time>
      </trkpt>
      <trkpt lat="44.29854" lon="0.60353">
        <ele>187.59</ele>
        <time>2023-05-29T14:08:53Z</time>
      </trkpt>
      <trkpt lat="44.29854" lon="0.60367">
        <ele>189.04</ele>
        <time>2023-05-29T14:09:00Z</time>
      </trkpt>
      <trkpt lat="44.29854" lon="0.60381">
        <ele>189.52</ele>
        <time>2023-05-29T14:09:07Z</time>
      </trkpt>
      <trkpt lat="44.29853" lon="0.60395">
        <ele>190.48</ele>
        <time>2023-05-29T14:09:14Z</time>
      </trkpt>
      <trkpt lat="44.29853" lon="0.60408">
        <ele>190.96</ele>
        <time>2023-05-29T14:09:20Z</time>
      </trkpt>
      <trkpt lat="44.29855" lon="0.60421">
        <ele>190.96</ele>
        <time>2023-05-29T14:09:27Z</time>
      </trkpt>
      <trkpt lat="44.29856" lon="0.60434">
        <ele>190.96</ele>
        <time>2023-05-29T14:09:33Z</time>
      </trkpt>
      <trkpt lat="44.29857" lon="0.60448">
        <ele>190.96</ele>
        <time>2023-05-29T14:09:40Z</time>
      </trkpt>
      <trkpt lat="44.29859" lon="0.60462">
        <ele>191.44</ele>
        <time>2023-05-29T14:09:46Z</time>
      </trkpt>
      <trkpt lat="44.2986" lon="0.60474">
        <ele>190.96</ele>
        <time>2023-05-29T14:09:52Z</time>
      </trkpt>
      <trkpt lat="44.29861" lon="0.60487">
        <ele>190.48</ele>
        <time>2023-05-29T14:09:58Z</time>
      </trkpt>
      <trkpt lat="44.29863" lon="0.60504">
        <ele>187.59</ele>
        <time>2023-05-29T14:10:39Z</time>
      </trkpt>
      <trkpt lat="44.29865" lon="0.60517">
        <ele>189.04</ele>
        <time>2023-05-29T14:10:46Z</time>
      </trkpt>
      <trkpt lat="44.29869" lon="0.60531">
        <ele>189.52</ele>
        <time>2023-05-29T14:10:53Z</time>
      </trkpt>
      <trkpt lat="44.29873" lon="0.60544">
        <ele>190</ele>
        <time>2023-05-29T14:11:01Z</time>
      </trkpt>
      <trkpt lat="44.29877" lon="0.60558">
        <ele>190.48</ele>
        <time>2023-05-29T14:11:09Z</time>
      </trkpt>
      <trkpt lat="44.29876" lon="0.60572">
        <ele>190.96</ele>
        <time>2023-05-29T14:11:17Z</time>
      </trkpt>
      <trkpt lat="44.29874" lon="0.60586">
        <ele>190.96</ele>
        <time>2023-05-29T14:11:24Z</time>
      </trkpt>
      <trkpt lat="44.29872" lon="0.606">
        <ele>191.92</ele>
        <time>2023-05-29T14:11:30Z</time>
      </trkpt>
      <trkpt lat="44.2987" lon="0.60613">
        <ele>192.88</ele>
        <time>2023-05-29T14:11:37Z</time>
      </trkpt>
      <trkpt lat="44.29869" lon="0.60627">
        <ele>194.32</ele>
        <time>2023-05-29T14:11:44Z</time>
      </trkpt>
      <trkpt lat="44.29867" lon="0.60641">
        <ele>194.8</ele>
        <time>2023-05-29T14:11:51Z</time>
      </trkpt>
      <trkpt lat="44.29865" lon="0.60655">
        <ele>195.77</ele>
        <time>2023-05-29T14:11:58Z</time>
      </trkpt>
      <trkpt lat="44.29864" lon="0.60671">
        <ele>195.77</ele>
        <time>2023-05-29T14:12:08Z</time>
      </trkpt>
      <trkpt lat="44.29862" lon="0.60687">
        <ele>195.77</ele>
        <time>2023-05-29T14:12:15Z</time>
      </trkpt>
      <trkpt lat="44.2986" lon="0.60699">
        <ele>194.8</ele>
        <time>2023-05-29T14:12:21Z</time>
      </trkpt>
      <trkpt lat="44.29859" lon="0.60713">
        <ele>194.32</ele>
        <time>2023-05-29T14:12:50Z</time>
      </trkpt>
      <trkpt lat="44.29857" lon="0.60726">
        <ele>193.36</ele>
        <time>2023-05-29T14:12:57Z</time>
      </trkpt>
      <trkpt lat="44.29855" lon="0.6074">
        <ele>192.4</ele>
        <time>2023-05-29T14:13:04Z</time>
      </trkpt>
      <trkpt lat="44.29853" lon="0.60755">
        <ele>191.92</ele>
        <time>2023-05-29T14:13:11Z</time>
      </trkpt>
      <trkpt lat="44.29851" lon="0.60769">
        <ele>190.96</ele>
        <time>2023-05-29T14:13:18Z</time>
      </trkpt>
      <trkpt lat="44.29849" lon="0.60784">
        <ele>190.48</ele>
        <time>2023-05-29T14:13:25Z</time>
      </trkpt>
      <trkpt lat="44.29848" lon="0.60798">
        <ele>190.48</ele>
        <time>2023-05-29T14:13:31Z</time>
      </trkpt>
      <trkpt lat="44.29849" lon="0.6081">
        <ele>190.96</ele>
        <time>2023-05-29T14:13:38Z</time>
      </trkpt>
      <trkpt lat="44.29858" lon="0.60818">
        <ele>190</ele>
        <time>2023-05-29T14:13:46Z</time>
      </trkpt>
      <trkpt lat="44.29867" lon="0.60826">
        <ele>189.04</ele>
        <time>2023-05-29T14:13:53Z</time>
      </trkpt>
      <trkpt lat="44.29876" lon="0.60834">
        <ele>188.56</ele>
        <time>2023-05-29T14:13:59Z</time>
      </trkpt>
      <trkpt lat="44.29885" lon="0.60841">
        <ele>188.56</ele>
        <time>2023-05-29T14:14:06Z</time>
      </trkpt>
      <trkpt lat="44.29894" lon="0.60848">
        <ele>188.56</ele>
        <time>2023-05-29T14:14:13Z</time>
      </trkpt>
      <trkpt lat="44.29904" lon="0.60855">
        <ele>189.52</ele>
        <time>2023-05-29T14:14:20Z</time>
      </trkpt>
      <trkpt lat="44.29912" lon="0.60863">
        <ele>190.48</ele>
        <time>2023-05-29T14:14:27Z</time>
      </trkpt>
      <trkpt lat="44.29921" lon="0.6087">
        <ele>191.92</ele>
        <time>2023-05-29T14:14:34Z</time>
      </trkpt>
      <trkpt lat="44.2993" lon="0.60878">
        <ele>192.4</ele>
        <time>2023-05-29T14:14:41Z</time>
      </trkpt>
      <trkpt lat="44.29939" lon="0.60885">
        <ele>193.36</ele>
        <time>2023-05-29T14:14:48Z</time>
      </trkpt>
      <trkpt lat="44.29949" lon="0.60893">
        <ele>194.32</ele>
        <time>2023-05-29T14:14:55Z</time>
      </trkpt>
      <trkpt lat="44.29958" lon="0.60902">
        <ele>194.32</ele>
        <time>2023-05-29T14:15:02Z</time>
      </trkpt>
      <trkpt lat="44.29967" lon="0.6091">
        <ele>193.36</ele>
        <time>2023-05-29T14:15:09Z</time>
      </trkpt>
      <trkpt lat="44.29974" lon="0.60918">
        <ele>193.36</ele>
        <time>2023-05-29T14:15:15Z</time>
      </trkpt>
      <trkpt lat="44.29977" lon="0.6093">
        <ele>193.36</ele>
        <time>2023-05-29T14:15:22Z</time>
      </trkpt>
      <trkpt lat="44.29974" lon="0.60943">
        <ele>194.8</ele>
        <time>2023-05-29T14:15:28Z</time>
      </trkpt>
      <trkpt lat="44.29968" lon="0.60955">
        <ele>196.73</ele>
        <time>2023-05-29T14:15:34Z</time>
      </trkpt>
      <trkpt lat="44.29963" lon="0.60967">
        <ele>198.17</ele>
        <time>2023-05-29T14:15:40Z</time>
      </trkpt>
      <trkpt lat="44.29958" lon="0.60978">
        <ele>199.61</ele>
        <time>2023-05-29T14:15:46Z</time>
      </trkpt>
      <trkpt lat="44.29951" lon="0.60989">
        <ele>200.57</ele>
        <time>2023-05-29T14:15:52Z</time>
      </trkpt>
      <trkpt lat="44.29947" lon="0.61">
        <ele>201.05</ele>
        <time>2023-05-29T14:15:58Z</time>
      </trkpt>
      <trkpt lat="44.29942" lon="0.61012">
        <ele>201.53</ele>
        <time>2023-05-29T14:16:04Z</time>
      </trkpt>
      <trkpt lat="44.29936" lon="0.61023">
        <ele>202.01</ele>
        <time>2023-05-29T14:16:10Z</time>
      </trkpt>
      <trkpt lat="44.29932" lon="0.61033">
        <ele>202.98</ele>
        <time>2023-05-29T14:16:16Z</time>
      </trkpt>
      <trkpt lat="44.29927" lon="0.61045">
        <ele>203.94</ele>
        <time>2023-05-29T14:16:23Z</time>
      </trkpt>
      <trkpt lat="44.29922" lon="0.61057">
        <ele>204.9</ele>
        <time>2023-05-29T14:16:29Z</time>
      </trkpt>
      <trkpt lat="44.29918" lon="0.61069">
        <ele>205.38</ele>
        <time>2023-05-29T14:16:35Z</time>
      </trkpt>
      <trkpt lat="44.29915" lon="0.61083">
        <ele>206.34</ele>
        <time>2023-05-29T14:16:42Z</time>
      </trkpt>
      <trkpt lat="44.29909" lon="0.61096">
        <ele>206.82</ele>
        <time>2023-05-29T14:16:50Z</time>
      </trkpt>
      <trkpt lat="44.29905" lon="0.6111">
        <ele>207.78</ele>
        <time>2023-05-29T14:16:57Z</time>
      </trkpt>
      <trkpt lat="44.29901" lon="0.61124">
        <ele>208.26</ele>
        <time>2023-05-29T14:17:05Z</time>
      </trkpt>
      <trkpt lat="44.29897" lon="0.61139">
        <ele>208.26</ele>
        <time>2023-05-29T14:17:13Z</time>
      </trkpt>
      <trkpt lat="44.29893" lon="0.61152">
        <ele>208.74</ele>
        <time>2023-05-29T14:17:20Z</time>
      </trkpt>
      <trkpt lat="44.29891" lon="0.61167">
        <ele>208.74</ele>
        <time>2023-05-29T14:17:28Z</time>
      </trkpt>
      <trkpt lat="44.29887" lon="0.61181">
        <ele>209.22</ele>
        <time>2023-05-29T14:17:35Z</time>
      </trkpt>
      <trkpt lat="44.29885" lon="0.61195">
        <ele>209.22</ele>
        <time>2023-05-29T14:17:42Z</time>
      </trkpt>
      <trkpt lat="44.29882" lon="0.61209">
        <ele>208.74</ele>
        <time>2023-05-29T14:17:49Z</time>
      </trkpt>
      <trkpt lat="44.2988" lon="0.61225">
        <ele>208.26</ele>
        <time>2023-05-29T14:17:59Z</time>
      </trkpt>
      <trkpt lat="44.29877" lon="0.61239">
        <ele>208.26</ele>
        <time>2023-05-29T14:18:07Z</time>
      </trkpt>
      <trkpt lat="44.29877" lon="0.61254">
        <ele>208.26</ele>
        <time>2023-05-29T14:18:14Z</time>
      </trkpt>
      <trkpt lat="44.29876" lon="0.61269">
        <ele>207.78</ele>
        <time>2023-05-29T14:18:21Z</time>
      </trkpt>
      <trkpt lat="44.29875" lon="0.61283">
        <ele>207.78</ele>
        <time>2023-05-29T14:18:29Z</time>
      </trkpt>
      <trkpt lat="44.29873" lon="0.61297">
        <ele>206.82</ele>
        <time>2023-05-29T14:18:37Z</time>
      </trkpt>
      <trkpt lat="44.29873" lon="0.61313">
        <ele>206.82</ele>
        <time>2023-05-29T14:18:45Z</time>
      </trkpt>
      <trkpt lat="44.29871" lon="0.61331">
        <ele>206.82</ele>
        <time>2023-05-29T14:18:53Z</time>
      </trkpt>
      <trkpt lat="44.2987" lon="0.61347">
        <ele>207.3</ele>
        <time>2023-05-29T14:19:00Z</time>
      </trkpt>
      <trkpt lat="44.29869" lon="0.61363">
        <ele>206.82</ele>
        <time>2023-05-29T14:19:08Z</time>
      </trkpt>
      <trkpt lat="44.29868" lon="0.61378">
        <ele>207.3</ele>
        <time>2023-05-29T14:19:15Z</time>
      </trkpt>
      <trkpt lat="44.29865" lon="0.61394">
        <ele>207.3</ele>
        <time>2023-05-29T14:19:23Z</time>
      </trkpt>
      <trkpt lat="44.29862" lon="0.61413">
        <ele>207.3</ele>
        <time>2023-05-29T14:19:33Z</time>
      </trkpt>
      <trkpt lat="44.29858" lon="0.61431">
        <ele>208.74</ele>
        <time>2023-05-29T14:19:44Z</time>
      </trkpt>
      <trkpt lat="44.2985" lon="0.61439">
        <ele>208.74</ele>
        <time>2023-05-29T14:19:51Z</time>
      </trkpt>
      <trkpt lat="44.29842" lon="0.61448">
        <ele>208.26</ele>
        <time>2023-05-29T14:19:58Z</time>
      </trkpt>
      <trkpt lat="44.29834" lon="0.61458">
        <ele>207.78</ele>
        <time>2023-05-29T14:20:05Z</time>
      </trkpt>
      <trkpt lat="44.29825" lon="0.61467">
        <ele>207.3</ele>
        <time>2023-05-29T14:20:12Z</time>
      </trkpt>
      <trkpt lat="44.29816" lon="0.61477">
        <ele>206.82</ele>
        <time>2023-05-29T14:20:19Z</time>
      </trkpt>
      <trkpt lat="44.2981" lon="0.61485">
        <ele>206.34</ele>
        <time>2023-05-29T14:20:25Z</time>
      </trkpt>
      <trkpt lat="44.29808" lon="0.61496">
        <ele>205.38</ele>
        <time>2023-05-29T14:20:31Z</time>
      </trkpt>
      <trkpt lat="44.29815" lon="0.61506">
        <ele>204.42</ele>
        <time>2023-05-29T14:20:38Z</time>
      </trkpt>
      <trkpt lat="44.29824" lon="0.61508">
        <ele>203.46</ele>
        <time>2023-05-29T14:20:45Z</time>
      </trkpt>
      <trkpt lat="44.29833" lon="0.61511">
        <ele>203.94</ele>
        <time>2023-05-29T14:20:52Z</time>
      </trkpt>
      <trkpt lat="44.29847" lon="0.61517">
        <ele>204.42</ele>
        <time>2023-05-29T14:21:03Z</time>
      </trkpt>
      <trkpt lat="44.29864" lon="0.61522">
        <ele>205.86</ele>
        <time>2023-05-29T14:21:13Z</time>
      </trkpt>
      <trkpt lat="44.29875" lon="0.61526">
        <ele>207.3</ele>
        <time>2023-05-29T14:21:21Z</time>
      </trkpt>
      <trkpt lat="44.29886" lon="0.61531">
        <ele>208.74</ele>
        <time>2023-05-29T14:21:29Z</time>
      </trkpt>
      <trkpt lat="44.29904" lon="0.61528">
        <ele>209.7</ele>
        <time>2023-05-29T14:21:44Z</time>
      </trkpt>
      <trkpt lat="44.29918" lon="0.61526">
        <ele>210.67</ele>
        <time>2023-05-29T14:21:53Z</time>
      </trkpt>
      <trkpt lat="44.29933" lon="0.61524">
        <ele>213.55</ele>
        <time>2023-05-29T14:22:03Z</time>
      </trkpt>
      <trkpt lat="44.29948" lon="0.61526">
        <ele>216.43</ele>
        <time>2023-05-29T14:22:13Z</time>
      </trkpt>
      <trkpt lat="44.29962" lon="0.61527">
        <ele>217.4</ele>
        <time>2023-05-29T14:22:23Z</time>
      </trkpt>
      <trkpt lat="44.29978" lon="0.61528">
        <ele>219.32</ele>
        <time>2023-05-29T14:22:33Z</time>
      </trkpt>
      <trkpt lat="44.29992" lon="0.61531">
        <ele>220.28</ele>
        <time>2023-05-29T14:22:42Z</time>
      </trkpt>
      <trkpt lat="44.29996" lon="0.61537">
        <ele>217.88</ele>
        <time>2023-05-29T14:30:24Z</time>
      </trkpt>
      <trkpt lat="44.30007" lon="0.61539">
        <ele>217.4</ele>
        <time>2023-05-29T14:30:33Z</time>
      </trkpt>
      <trkpt lat="44.30018" lon="0.6154">
        <ele>217.4</ele>
        <time>2023-05-29T14:30:39Z</time>
      </trkpt>
      <trkpt lat="44.30028" lon="0.61539">
        <ele>216.91</ele>
        <time>2023-05-29T14:30:45Z</time>
      </trkpt>
      <trkpt lat="44.30038" lon="0.61538">
        <ele>216.43</ele>
        <time>2023-05-29T14:30:51Z</time>
      </trkpt>
      <trkpt lat="44.30048" lon="0.61538">
        <ele>216.43</ele>
        <time>2023-05-29T14:30:57Z</time>
      </trkpt>
      <trkpt lat="44.30058" lon="0.61534">
        <ele>215.47</ele>
        <time>2023-05-29T14:31:04Z</time>
      </trkpt>
      <trkpt lat="44.30068" lon="0.61529">
        <ele>214.51</ele>
        <time>2023-05-29T14:31:11Z</time>
      </trkpt>
      <trkpt lat="44.30063" lon="0.61528">
        <ele>213.55</ele>
        <time>2023-05-29T14:31:24Z</time>
      </trkpt>
      <trkpt lat="44.30064" lon="0.61519">
        <ele>211.15</ele>
        <time>2023-05-29T14:31:34Z</time>
      </trkpt>
      <trkpt lat="44.30075" lon="0.61517">
        <ele>208.74</ele>
        <time>2023-05-29T14:31:41Z</time>
      </trkpt>
      <trkpt lat="44.30085" lon="0.61516">
        <ele>206.34</ele>
        <time>2023-05-29T14:31:47Z</time>
      </trkpt>
      <trkpt lat="44.30095" lon="0.61515">
        <ele>204.42</ele>
        <time>2023-05-29T14:31:54Z</time>
      </trkpt>
      <trkpt lat="44.30105" lon="0.61514">
        <ele>202.98</ele>
        <time>2023-05-29T14:32:01Z</time>
      </trkpt>
      <trkpt lat="44.30116" lon="0.61513">
        <ele>202.01</ele>
        <time>2023-05-29T14:32:08Z</time>
      </trkpt>
      <trkpt lat="44.30125" lon="0.61512">
        <ele>200.57</ele>
        <time>2023-05-29T14:32:14Z</time>
      </trkpt>
      <trkpt lat="44.30135" lon="0.61511">
        <ele>199.13</ele>
        <time>2023-05-29T14:32:20Z</time>
      </trkpt>
      <trkpt lat="44.30145" lon="0.61511">
        <ele>198.65</ele>
        <time>2023-05-29T14:32:27Z</time>
      </trkpt>
      <trkpt lat="44.30158" lon="0.61511">
        <ele>199.13</ele>
        <time>2023-05-29T14:32:34Z</time>
      </trkpt>
      <trkpt lat="44.30168" lon="0.61511">
        <ele>199.61</ele>
        <time>2023-05-29T14:32:40Z</time>
      </trkpt>
      <trkpt lat="44.30178" lon="0.6151">
        <ele>199.13</ele>
        <time>2023-05-29T14:32:46Z</time>
      </trkpt>
      <trkpt lat="44.30189" lon="0.61508">
        <ele>199.13</ele>
        <time>2023-05-29T14:32:53Z</time>
      </trkpt>
      <trkpt lat="44.302" lon="0.61504">
        <ele>198.65</ele>
        <time>2023-05-29T14:33:00Z</time>
      </trkpt>
      <trkpt lat="44.3021" lon="0.61497">
        <ele>198.17</ele>
        <time>2023-05-29T14:33:08Z</time>
      </trkpt>
      <trkpt lat="44.30221" lon="0.61489">
        <ele>197.21</ele>
        <time>2023-05-29T14:33:15Z</time>
      </trkpt>
      <trkpt lat="44.3023" lon="0.6148">
        <ele>196.25</ele>
        <time>2023-05-29T14:33:22Z</time>
      </trkpt>
      <trkpt lat="44.3024" lon="0.61471">
        <ele>195.77</ele>
        <time>2023-05-29T14:33:30Z</time>
      </trkpt>
      <trkpt lat="44.3025" lon="0.61463">
        <ele>195.28</ele>
        <time>2023-05-29T14:33:38Z</time>
      </trkpt>
      <trkpt lat="44.30262" lon="0.61453">
        <ele>195.28</ele>
        <time>2023-05-29T14:33:47Z</time>
      </trkpt>
      <trkpt lat="44.30273" lon="0.61445">
        <ele>195.28</ele>
        <time>2023-05-29T14:33:55Z</time>
      </trkpt>
      <trkpt lat="44.30282" lon="0.61436">
        <ele>195.28</ele>
        <time>2023-05-29T14:34:02Z</time>
      </trkpt>
      <trkpt lat="44.3029" lon="0.61427">
        <ele>194.8</ele>
        <time>2023-05-29T14:34:09Z</time>
      </trkpt>
      <trkpt lat="44.30298" lon="0.6142">
        <ele>195.28</ele>
        <time>2023-05-29T14:34:15Z</time>
      </trkpt>
      <trkpt lat="44.30307" lon="0.61412">
        <ele>194.8</ele>
        <time>2023-05-29T14:34:22Z</time>
      </trkpt>
      <trkpt lat="44.30316" lon="0.61406">
        <ele>194.32</ele>
        <time>2023-05-29T14:34:28Z</time>
      </trkpt>
      <trkpt lat="44.30325" lon="0.614">
        <ele>193.84</ele>
        <time>2023-05-29T14:34:35Z</time>
      </trkpt>
      <trkpt lat="44.30333" lon="0.61391">
        <ele>193.36</ele>
        <time>2023-05-29T14:34:42Z</time>
      </trkpt>
      <trkpt lat="44.30343" lon="0.61382">
        <ele>192.4</ele>
        <time>2023-05-29T14:34:50Z</time>
      </trkpt>
      <trkpt lat="44.30352" lon="0.61375">
        <ele>191.44</ele>
        <time>2023-05-29T14:34:56Z</time>
      </trkpt>
      <trkpt lat="44.30361" lon="0.61368">
        <ele>190.96</ele>
        <time>2023-05-29T14:35:02Z</time>
      </trkpt>
      <trkpt lat="44.30369" lon="0.61358">
        <ele>189.52</ele>
        <time>2023-05-29T14:35:09Z</time>
      </trkpt>
      <trkpt lat="44.30376" lon="0.61347">
        <ele>188.08</ele>
        <time>2023-05-29T14:35:15Z</time>
      </trkpt>
      <trkpt lat="44.30383" lon="0.61336">
        <ele>186.15</ele>
        <time>2023-05-29T14:35:22Z</time>
      </trkpt>
      <trkpt lat="44.30389" lon="0.61324">
        <ele>184.71</ele>
        <time>2023-05-29T14:35:29Z</time>
      </trkpt>
      <trkpt lat="44.30395" lon="0.6131">
        <ele>184.23</ele>
        <time>2023-05-29T14:35:36Z</time>
      </trkpt>
      <trkpt lat="44.30402" lon="0.61297">
        <ele>184.23</ele>
        <time>2023-05-29T14:35:44Z</time>
      </trkpt>
      <trkpt lat="44.30407" lon="0.61283">
        <ele>184.71</ele>
        <time>2023-05-29T14:35:51Z</time>
      </trkpt>
      <trkpt lat="44.30416" lon="0.61279">
        <ele>185.19</ele>
        <time>2023-05-29T14:35:58Z</time>
      </trkpt>
      <trkpt lat="44.30426" lon="0.61283">
        <ele>185.67</ele>
        <time>2023-05-29T14:36:04Z</time>
      </trkpt>
      <trkpt lat="44.30435" lon="0.61286">
        <ele>186.15</ele>
        <time>2023-05-29T14:36:10Z</time>
      </trkpt>
      <trkpt lat="44.30445" lon="0.61292">
        <ele>187.59</ele>
        <time>2023-05-29T14:36:17Z</time>
      </trkpt>
      <trkpt lat="44.30455" lon="0.61297">
        <ele>188.08</ele>
        <time>2023-05-29T14:36:24Z</time>
      </trkpt>
      <trkpt lat="44.30463" lon="0.61304">
        <ele>187.11</ele>
        <time>2023-05-29T14:36:31Z</time>
      </trkpt>
      <trkpt lat="44.30473" lon="0.61312">
        <ele>186.63</ele>
        <time>2023-05-29T14:36:38Z</time>
      </trkpt>
      <trkpt lat="44.30482" lon="0.61317">
        <ele>186.15</ele>
        <time>2023-05-29T14:36:45Z</time>
      </trkpt>
      <trkpt lat="44.30488" lon="0.61326">
        <ele>185.67</ele>
        <time>2023-05-29T14:36:54Z</time>
      </trkpt>
      <trkpt lat="44.30487" lon="0.61339">
        <ele>185.19</ele>
        <time>2023-05-29T14:37:01Z</time>
      </trkpt>
      <trkpt lat="44.30486" lon="0.61352">
        <ele>184.23</ele>
        <time>2023-05-29T14:37:07Z</time>
      </trkpt>
      <trkpt lat="44.30484" lon="0.61367">
        <ele>184.23</ele>
        <time>2023-05-29T14:37:13Z</time>
      </trkpt>
      <trkpt lat="44.30483" lon="0.61382">
        <ele>184.23</ele>
        <time>2023-05-29T14:37:20Z</time>
      </trkpt>
      <trkpt lat="44.30483" lon="0.61396">
        <ele>185.19</ele>
        <time>2023-05-29T14:37:27Z</time>
      </trkpt>
      <trkpt lat="44.30481" lon="0.61411">
        <ele>185.67</ele>
        <time>2023-05-29T14:37:34Z</time>
      </trkpt>
      <trkpt lat="44.3048" lon="0.61424">
        <ele>185.19</ele>
        <time>2023-05-29T14:37:40Z</time>
      </trkpt>
      <trkpt lat="44.30479" lon="0.61438">
        <ele>186.15</ele>
        <time>2023-05-29T14:37:47Z</time>
      </trkpt>
      <trkpt lat="44.30478" lon="0.61454">
        <ele>186.63</ele>
        <time>2023-05-29T14:37:54Z</time>
      </trkpt>
      <trkpt lat="44.30476" lon="0.61468">
        <ele>186.63</ele>
        <time>2023-05-29T14:38:01Z</time>
      </trkpt>
      <trkpt lat="44.30474" lon="0.61483">
        <ele>187.11</ele>
        <time>2023-05-29T14:38:08Z</time>
      </trkpt>
      <trkpt lat="44.30471" lon="0.61498">
        <ele>187.11</ele>
        <time>2023-05-29T14:38:15Z</time>
      </trkpt>
      <trkpt lat="44.30469" lon="0.61512">
        <ele>187.11</ele>
        <time>2023-05-29T14:38:22Z</time>
      </trkpt>
      <trkpt lat="44.30466" lon="0.61527">
        <ele>187.11</ele>
        <time>2023-05-29T14:38:29Z</time>
      </trkpt>
      <trkpt lat="44.30464" lon="0.61541">
        <ele>187.59</ele>
        <time>2023-05-29T14:38:36Z</time>
      </trkpt>
      <trkpt lat="44.30461" lon="0.61556">
        <ele>187.59</ele>
        <time>2023-05-29T14:38:43Z</time>
      </trkpt>
      <trkpt lat="44.30459" lon="0.61569">
        <ele>187.59</ele>
        <time>2023-05-29T14:38:49Z</time>
      </trkpt>
      <trkpt lat="44.30458" lon="0.61584">
        <ele>187.59</ele>
        <time>2023-05-29T14:38:56Z</time>
      </trkpt>
      <trkpt lat="44.30455" lon="0.61599">
        <ele>188.08</ele>
        <time>2023-05-29T14:39:03Z</time>
      </trkpt>
      <trkpt lat="44.30453" lon="0.61614">
        <ele>188.56</ele>
        <time>2023-05-29T14:39:10Z</time>
      </trkpt>
      <trkpt lat="44.3045" lon="0.61629">
        <ele>189.52</ele>
        <time>2023-05-29T14:39:17Z</time>
      </trkpt>
      <trkpt lat="44.30447" lon="0.61643">
        <ele>189.04</ele>
        <time>2023-05-29T14:39:24Z</time>
      </trkpt>
      <trkpt lat="44.30445" lon="0.61657">
        <ele>188.56</ele>
        <time>2023-05-29T14:39:31Z</time>
      </trkpt>
      <trkpt lat="44.30443" lon="0.61672">
        <ele>188.08</ele>
        <time>2023-05-29T14:39:38Z</time>
      </trkpt>
      <trkpt lat="44.3044" lon="0.61686">
        <ele>188.08</ele>
        <time>2023-05-29T14:39:45Z</time>
      </trkpt>
      <trkpt lat="44.30437" lon="0.61701">
        <ele>187.59</ele>
        <time>2023-05-29T14:39:53Z</time>
      </trkpt>
      <trkpt lat="44.30434" lon="0.61716">
        <ele>186.63</ele>
        <time>2023-05-29T14:40:01Z</time>
      </trkpt>
      <trkpt lat="44.30429" lon="0.61732">
        <ele>186.63</ele>
        <time>2023-05-29T14:40:09Z</time>
      </trkpt>
      <trkpt lat="44.30426" lon="0.61747">
        <ele>185.67</ele>
        <time>2023-05-29T14:40:16Z</time>
      </trkpt>
      <trkpt lat="44.30421" lon="0.61762">
        <ele>184.71</ele>
        <time>2023-05-29T14:40:23Z</time>
      </trkpt>
      <trkpt lat="44.3042" lon="0.61776">
        <ele>184.71</ele>
        <time>2023-05-29T14:40:30Z</time>
      </trkpt>
      <trkpt lat="44.30422" lon="0.6179">
        <ele>184.71</ele>
        <time>2023-05-29T14:40:36Z</time>
      </trkpt>
      <trkpt lat="44.30425" lon="0.61805">
        <ele>184.23</ele>
        <time>2023-05-29T14:40:43Z</time>
      </trkpt>
      <trkpt lat="44.30431" lon="0.61817">
        <ele>183.75</ele>
        <time>2023-05-29T14:40:49Z</time>
      </trkpt>
      <trkpt lat="44.30436" lon="0.61828">
        <ele>184.71</ele>
        <time>2023-05-29T14:40:55Z</time>
      </trkpt>
      <trkpt lat="44.30441" lon="0.61839">
        <ele>184.71</ele>
        <time>2023-05-29T14:41:01Z</time>
      </trkpt>
      <trkpt lat="44.30447" lon="0.61851">
        <ele>185.19</ele>
        <time>2023-05-29T14:41:07Z</time>
      </trkpt>
      <trkpt lat="44.30452" lon="0.61864">
        <ele>185.67</ele>
        <time>2023-05-29T14:41:14Z</time>
      </trkpt>
      <trkpt lat="44.30456" lon="0.61876">
        <ele>186.63</ele>
        <time>2023-05-29T14:41:20Z</time>
      </trkpt>
      <trkpt lat="44.30459" lon="0.61889">
        <ele>187.11</ele>
        <time>2023-05-29T14:41:26Z</time>
      </trkpt>
      <trkpt lat="44.30461" lon="0.61903">
        <ele>187.11</ele>
        <time>2023-05-29T14:41:33Z</time>
      </trkpt>
      <trkpt lat="44.30462" lon="0.61917">
        <ele>187.11</ele>
        <time>2023-05-29T14:41:39Z</time>
      </trkpt>
      <trkpt lat="44.30462" lon="0.6193">
        <ele>188.08</ele>
        <time>2023-05-29T14:41:45Z</time>
      </trkpt>
      <trkpt lat="44.30462" lon="0.61943">
        <ele>187.59</ele>
        <time>2023-05-29T14:41:51Z</time>
      </trkpt>
      <trkpt lat="44.30463" lon="0.61957">
        <ele>188.56</ele>
        <time>2023-05-29T14:41:58Z</time>
      </trkpt>
      <trkpt lat="44.30463" lon="0.61972">
        <ele>188.56</ele>
        <time>2023-05-29T14:42:05Z</time>
      </trkpt>
      <trkpt lat="44.30462" lon="0.61986">
        <ele>189.04</ele>
        <time>2023-05-29T14:42:11Z</time>
      </trkpt>
      <trkpt lat="44.30462" lon="0.62">
        <ele>189.52</ele>
        <time>2023-05-29T14:42:18Z</time>
      </trkpt>
      <trkpt lat="44.30462" lon="0.62015">
        <ele>189.52</ele>
        <time>2023-05-29T14:42:25Z</time>
      </trkpt>
      <trkpt lat="44.30461" lon="0.62027">
        <ele>190.48</ele>
        <time>2023-05-29T14:42:31Z</time>
      </trkpt>
      <trkpt lat="44.30459" lon="0.6204">
        <ele>190.96</ele>
        <time>2023-05-29T14:42:37Z</time>
      </trkpt>
      <trkpt lat="44.30457" lon="0.62053">
        <ele>191.44</ele>
        <time>2023-05-29T14:42:43Z</time>
      </trkpt>
      <trkpt lat="44.30453" lon="0.62065">
        <ele>191.92</ele>
        <time>2023-05-29T14:42:49Z</time>
      </trkpt>
      <trkpt lat="44.30449" lon="0.62078">
        <ele>192.4</ele>
        <time>2023-05-29T14:42:56Z</time>
      </trkpt>
      <trkpt lat="44.30445" lon="0.62092">
        <ele>192.88</ele>
        <time>2023-05-29T14:43:03Z</time>
      </trkpt>
      <trkpt lat="44.30442" lon="0.62106">
        <ele>192.4</ele>
        <time>2023-05-29T14:43:10Z</time>
      </trkpt>
      <trkpt lat="44.30438" lon="0.62118">
        <ele>191.92</ele>
        <time>2023-05-29T14:43:16Z</time>
      </trkpt>
      <trkpt lat="44.30435" lon="0.6213">
        <ele>191.44</ele>
        <time>2023-05-29T14:43:22Z</time>
      </trkpt>
      <trkpt lat="44.3043" lon="0.62144">
        <ele>190.48</ele>
        <time>2023-05-29T14:43:29Z</time>
      </trkpt>
      <trkpt lat="44.30427" lon="0.62156">
        <ele>190</ele>
        <time>2023-05-29T14:43:35Z</time>
      </trkpt>
      <trkpt lat="44.30424" lon="0.62169">
        <ele>189.52</ele>
        <time>2023-05-29T14:43:41Z</time>
      </trkpt>
      <trkpt lat="44.3042" lon="0.62182">
        <ele>189.04</ele>
        <time>2023-05-29T14:43:47Z</time>
      </trkpt>
      <trkpt lat="44.30416" lon="0.62195">
        <ele>188.56</ele>
        <time>2023-05-29T14:43:54Z</time>
      </trkpt>
      <trkpt lat="44.30412" lon="0.62209">
        <ele>188.56</ele>
        <time>2023-05-29T14:44:01Z</time>
      </trkpt>
      <trkpt lat="44.30408" lon="0.62222">
        <ele>188.56</ele>
        <time>2023-05-29T14:44:07Z</time>
      </trkpt>
      <trkpt lat="44.30404" lon="0.62235">
        <ele>188.56</ele>
        <time>2023-05-29T14:44:13Z</time>
      </trkpt>
      <trkpt lat="44.304" lon="0.62248">
        <ele>188.56</ele>
        <time>2023-05-29T14:44:20Z</time>
      </trkpt>
      <trkpt lat="44.30396" lon="0.62261">
        <ele>188.56</ele>
        <time>2023-05-29T14:44:26Z</time>
      </trkpt>
      <trkpt lat="44.30392" lon="0.62273">
        <ele>188.56</ele>
        <time>2023-05-29T14:44:32Z</time>
      </trkpt>
      <trkpt lat="44.30387" lon="0.62285">
        <ele>188.08</ele>
        <time>2023-05-29T14:44:38Z</time>
      </trkpt>
      <trkpt lat="44.30382" lon="0.62297">
        <ele>188.08</ele>
        <time>2023-05-29T14:44:45Z</time>
      </trkpt>
      <trkpt lat="44.30375" lon="0.62308">
        <ele>187.59</ele>
        <time>2023-05-29T14:44:51Z</time>
      </trkpt>
      <trkpt lat="44.3037" lon="0.62319">
        <ele>187.11</ele>
        <time>2023-05-29T14:44:57Z</time>
      </trkpt>
      <trkpt lat="44.30364" lon="0.6233">
        <ele>187.11</ele>
        <time>2023-05-29T14:45:03Z</time>
      </trkpt>
      <trkpt lat="44.30358" lon="0.62341">
        <ele>186.63</ele>
        <time>2023-05-29T14:45:09Z</time>
      </trkpt>
      <trkpt lat="44.30353" lon="0.62352">
        <ele>186.63</ele>
        <time>2023-05-29T14:45:15Z</time>
      </trkpt>
      <trkpt lat="44.30348" lon="0.62362">
        <ele>186.63</ele>
        <time>2023-05-29T14:45:21Z</time>
      </trkpt>
      <trkpt lat="44.30341" lon="0.62375">
        <ele>186.63</ele>
        <time>2023-05-29T14:45:28Z</time>
      </trkpt>
      <trkpt lat="44.30335" lon="0.62386">
        <ele>187.11</ele>
        <time>2023-05-29T14:45:34Z</time>
      </trkpt>
      <trkpt lat="44.30329" lon="0.62397">
        <ele>187.59</ele>
        <time>2023-05-29T14:45:41Z</time>
      </trkpt>
      <trkpt lat="44.30324" lon="0.62409">
        <ele>187.59</ele>
        <time>2023-05-29T14:45:48Z</time>
      </trkpt>
      <trkpt lat="44.30317" lon="0.62421">
        <ele>188.08</ele>
        <time>2023-05-29T14:45:56Z</time>
      </trkpt>
      <trkpt lat="44.30311" lon="0.62434">
        <ele>187.59</ele>
        <time>2023-05-29T14:46:03Z</time>
      </trkpt>
      <trkpt lat="44.30304" lon="0.62446">
        <ele>188.56</ele>
        <time>2023-05-29T14:46:10Z</time>
      </trkpt>
      <trkpt lat="44.30299" lon="0.62457">
        <ele>189.04</ele>
        <time>2023-05-29T14:46:17Z</time>
      </trkpt>
      <trkpt lat="44.30293" lon="0.6247">
        <ele>190</ele>
        <time>2023-05-29T14:46:24Z</time>
      </trkpt>
      <trkpt lat="44.30287" lon="0.62484">
        <ele>190.48</ele>
        <time>2023-05-29T14:46:31Z</time>
      </trkpt>
      <trkpt lat="44.30283" lon="0.62496">
        <ele>191.44</ele>
        <time>2023-05-29T14:46:38Z</time>
      </trkpt>
      <trkpt lat="44.30278" lon="0.62509">
        <ele>191.92</ele>
        <time>2023-05-29T14:46:44Z</time>
      </trkpt>
      <trkpt lat="44.30274" lon="0.6252">
        <ele>191.92</ele>
        <time>2023-05-29T14:46:50Z</time>
      </trkpt>
      <trkpt lat="44.30269" lon="0.62532">
        <ele>191.92</ele>
        <time>2023-05-29T14:46:56Z</time>
      </trkpt>
      <trkpt lat="44.30265" lon="0.62543">
        <ele>191.92</ele>
        <time>2023-05-29T14:47:02Z</time>
      </trkpt>
      <trkpt lat="44.30261" lon="0.62554">
        <ele>192.4</ele>
        <time>2023-05-29T14:47:08Z</time>
      </trkpt>
      <trkpt lat="44.30256" lon="0.62565">
        <ele>192.88</ele>
        <time>2023-05-29T14:47:14Z</time>
      </trkpt>
      <trkpt lat="44.30252" lon="0.62576">
        <ele>192.88</ele>
        <time>2023-05-29T14:47:20Z</time>
      </trkpt>
      <trkpt lat="44.30247" lon="0.62589">
        <ele>192.88</ele>
        <time>2023-05-29T14:47:27Z</time>
      </trkpt>
      <trkpt lat="44.30243" lon="0.62601">
        <ele>192.88</ele>
        <time>2023-05-29T14:47:33Z</time>
      </trkpt>
      <trkpt lat="44.30238" lon="0.62612">
        <ele>193.36</ele>
        <time>2023-05-29T14:47:39Z</time>
      </trkpt>
      <trkpt lat="44.30233" lon="0.62624">
        <ele>193.84</ele>
        <time>2023-05-29T14:47:45Z</time>
      </trkpt>
      <trkpt lat="44.30229" lon="0.62636">
        <ele>194.32</ele>
        <time>2023-05-29T14:47:51Z</time>
      </trkpt>
      <trkpt lat="44.30229" lon="0.62648">
        <ele>194.8</ele>
        <time>2023-05-29T14:48:00Z</time>
      </trkpt>
      <trkpt lat="44.30236" lon="0.62651">
        <ele>195.28</ele>
        <time>2023-05-29T14:48:11Z</time>
      </trkpt>
      <trkpt lat="44.30242" lon="0.62661">
        <ele>195.77</ele>
        <time>2023-05-29T14:48:18Z</time>
      </trkpt>
      <trkpt lat="44.30244" lon="0.62675">
        <ele>195.28</ele>
        <time>2023-05-29T14:48:25Z</time>
      </trkpt>
      <trkpt lat="44.30248" lon="0.62689">
        <ele>194.8</ele>
        <time>2023-05-29T14:48:37Z</time>
      </trkpt>
      <trkpt lat="44.30251" lon="0.62704">
        <ele>194.32</ele>
        <time>2023-05-29T14:48:44Z</time>
      </trkpt>
      <trkpt lat="44.30254" lon="0.62716">
        <ele>193.84</ele>
        <time>2023-05-29T14:48:51Z</time>
      </trkpt>
      <trkpt lat="44.30257" lon="0.6273">
        <ele>192.4</ele>
        <time>2023-05-29T14:48:58Z</time>
      </trkpt>
      <trkpt lat="44.30261" lon="0.62744">
        <ele>191.92</ele>
        <time>2023-05-29T14:49:05Z</time>
      </trkpt>
      <trkpt lat="44.30265" lon="0.62755">
        <ele>190.96</ele>
        <time>2023-05-29T14:49:12Z</time>
      </trkpt>
      <trkpt lat="44.30269" lon="0.62768">
        <ele>190.48</ele>
        <time>2023-05-29T14:49:19Z</time>
      </trkpt>
      <trkpt lat="44.30272" lon="0.62782">
        <ele>190</ele>
        <time>2023-05-29T14:49:26Z</time>
      </trkpt>
      <trkpt lat="44.30276" lon="0.62795">
        <ele>190</ele>
        <time>2023-05-29T14:49:33Z</time>
      </trkpt>
      <trkpt lat="44.3028" lon="0.62807">
        <ele>189.52</ele>
        <time>2023-05-29T14:49:40Z</time>
      </trkpt>
      <trkpt lat="44.30283" lon="0.62821">
        <ele>189.52</ele>
        <time>2023-05-29T14:49:47Z</time>
      </trkpt>
      <trkpt lat="44.30284" lon="0.62835">
        <ele>189.04</ele>
        <time>2023-05-29T14:49:54Z</time>
      </trkpt>
      <trkpt lat="44.30278" lon="0.62846">
        <ele>189.04</ele>
        <time>2023-05-29T14:50:01Z</time>
      </trkpt>
      <trkpt lat="44.30269" lon="0.62852">
        <ele>189.52</ele>
        <time>2023-05-29T14:50:08Z</time>
      </trkpt>
      <trkpt lat="44.30259" lon="0.62857">
        <ele>189.52</ele>
        <time>2023-05-29T14:50:15Z</time>
      </trkpt>
      <trkpt lat="44.3025" lon="0.62863">
        <ele>190</ele>
        <time>2023-05-29T14:50:22Z</time>
      </trkpt>
      <trkpt lat="44.3024" lon="0.62868">
        <ele>190.48</ele>
        <time>2023-05-29T14:50:29Z</time>
      </trkpt>
      <trkpt lat="44.30231" lon="0.62873">
        <ele>190.48</ele>
        <time>2023-05-29T14:50:36Z</time>
      </trkpt>
      <trkpt lat="44.30221" lon="0.62877">
        <ele>190.96</ele>
        <time>2023-05-29T14:50:43Z</time>
      </trkpt>
      <trkpt lat="44.3021" lon="0.6288">
        <ele>191.92</ele>
        <time>2023-05-29T14:50:50Z</time>
      </trkpt>
      <trkpt lat="44.302" lon="0.62883">
        <ele>192.88</ele>
        <time>2023-05-29T14:50:58Z</time>
      </trkpt>
      <trkpt lat="44.30198" lon="0.62886">
        <ele>193.36</ele>
        <time>2023-05-29T14:51:09Z</time>
      </trkpt>
      <trkpt lat="44.30294" lon="0.62929">
        <ele>206.34</ele>
        <time>2023-05-29T15:41:40Z</time>
      </trkpt>
    </trkseg>
  </trk>
</gpx>